[[[{"header":{"parameterUnit":"kt","parameterCategory":2,"dx":1,"dy":1,"la1":29.285339999999998,"la2":30.599998999999997,"lo1":-89.70041500000002,"lo2":-87.6738589999976,"nx":112,"ny":82,"refTime":"2022-10-22T00:00:00:Z","depth":0,"parameterNumber":1,"parameterNumberName":"U-component_of_WINDS"},"data":[-8.3521,-8.451,0.0,-7.9418,-7.8879,0.0,-7.047,0.0,-6.8678,0.0,0.0,0.0,0.0,0.0,0.0,0.0,0.0,0.0,0.0,0.0,0.0,0.0,0.0,0.0,0.0,0.0,0.0,0.0,0.0,0.0,0.0,0.0,-8.6731,-8.6731,-8.8879,-9.0001,-9.0001,-9.0001,-9.0001,-9.0001,-9.0001,-9.0001,-8.9884,-8.6496,-8.5006,-8.4764,-8.0298,-7.7029,-7.4899,-7.3778,-7.1905,-7.0009,-7.0009,-7.0009,-7.0009,-7.0009,-7.0009,-7.0009,-7.0009,-7.0009,-7.0009,-7.0009,-7.0009,-7.0009,-7.0009,-7.0009,-6.9971,-6.9667,-6.9211,-6.8528,-6.7351,-6.663,-6.6022,-6.5187,-6.4959,-6.4959,-6.4959,-6.4959,-6.4959,-6.4959,-6.4959,-6.4959,-6.4959,-6.4959,-6.4959,-6.4959,-6.6402,-6.7465,-6.7465,-6.8946,-6.9363,-6.7617,-6.7465,-6.6782,-6.5111,-6.4959,-6.4959,-6.4959,-6.4959,-6.4959,-6.4959,-6.4959,-6.4959,-6.4959,-6.4959,-6.4959,-6.4959,-6.4959,-6.4959,-6.4836,-6.1474,-5.8053,0.0,0.0,-8.2559,-7.652,0.0,0.0,0.0,0.0,0.0,0.0,0.0,0.0,0.0,0.0,0.0,0.0,0.0,0.0,0.0,0.0,0.0,0.0,0.0,0.0,0.0,0.0,0.0,0.0,0.0,0.0,0.0,-8.5901,-8.7854,-8.7854,-8.9269,-9.0001,-9.0001,-9.0001,-9.0001,-9.0001,-9.0001,-9.0001,-8.9884,-8.7616,-8.6615,-8.6496,-8.3137,-8.0379,-7.8168,-7.5924,-7.3649,-7.1512,-7.0405,-7.0009,-7.0009,-7.0009,-7.0009,-7.0009,-7.0009,-7.0009,-7.0009,-7.0009,-7.0009,-7.0009,-7.0009,-7.0009,-7.0009,-7.0009,-6.9211,-6.8186,-6.7617,-6.663,-6.5643,-6.5111,-6.4959,-6.4959,-6.4959,-6.4959,-6.4959,-6.4959,-6.4959,-6.4959,-6.4959,-6.4959,-6.4959,-6.4959,-6.6402,-6.7465,-6.7465,-6.8718,-6.9059,-6.7617,-6.7199,-6.6478,-6.5073,-6.4959,-6.4959,-6.4959,-6.4959,-6.4959,-6.4959,-6.4959,-6.4959,-6.4959,-6.4959,-6.4959,-6.4959,-6.4959,-6.4959,-6.4836,-6.0225,-5.6913,0.0,0.0,0.0,-7.2542,0.0,0.0,0.0,0.0,-6.3612,0.0,0.0,0.0,0.0,0.0,0.0,0.0,0.0,0.0,0.0,0.0,0.0,0.0,0.0,0.0,0.0,0.0,0.0,0.0,0.0,0.0,-8.639,-8.883,-9.0001,-9.0001,-9.0001,-9.0001,-9.0001,-9.0001,-9.0001,-9.0001,-9.0001,-9.0001,-9.0001,-9.0001,-9.0001,-8.9767,-8.6496,-8.5006,-8.4476,-7.8042,-7.5156,-7.4682,-7.142,-7.0009,-7.0009,-7.0009,-7.0009,-7.0009,-7.0009,-7.0009,-7.0009,-7.0009,-7.0009,-7.0009,-7.0009,-7.0009,-7.0009,-7.0009,-6.8794,-6.7503,-6.7465,-6.6212,-6.4997,-6.4959,-6.4959,-6.4959,-6.4959,-6.4959,-6.4959,-6.4959,-6.4959,-6.4959,-6.4959,-6.4959,-6.4997,-6.4997,-6.6402,-6.7465,-6.7503,-6.8262,-6.8452,-6.7541,-6.6706,-6.587,-6.5035,-6.4959,-6.4959,-6.4959,-6.4959,-6.4959,-6.4959,-6.4959,-6.4959,-6.4959,-6.4959,-6.4959,-6.4959,-6.4959,-6.4959,-6.4714,-5.796,-5.4745,-7.4642,0.0,0.0,0.0,0.0,0.0,0.0,0.0,0.0,0.0,0.0,0.0,0.0,0.0,0.0,0.0,0.0,0.0,0.0,0.0,0.0,0.0,0.0,0.0,0.0,0.0,0.0,0.0,0.0,-8.2436,-8.6536,-8.883,-9.0001,-9.0001,-9.0001,-9.0001,-9.0001,-9.0001,-9.0001,-9.0001,-9.0001,-9.0001,-9.0001,-9.0001,-9.0001,-8.9884,-8.9014,-8.7259,-8.4885,-8.3014,-7.9381,-7.4899,-7.4037,-7.2167,-7.0009,-7.0009,-7.0009,-7.0009,-7.0009,-7.0009,-7.0009,-7.0009,-7.0009,-7.0009,-7.0009,-7.0009,-7.0009,-7.0009,-6.9249,-6.83,-6.7617,-6.6668,-6.5718,-6.5111,-6.4959,-6.4959,-6.4959,-6.4959,-6.4959,-6.4959,-6.4959,-6.4959,-6.4959,-6.4959,-6.5187,-6.5794,-6.6782,-6.7693,-6.8338,-6.8642,-6.8452,-6.7541,-6.6706,-6.587,-6.5035,-6.4959,-6.4959,-6.4959,-6.4959,-6.4959,-6.4959,-6.4959,-6.4959,-6.4959,-6.4959,-6.4959,-6.4959,-6.4959,-6.4959,-6.4714,-5.796,-5.4745,0.0,0.0,0.0,0.0,0.0,0.0,-6.9,0.0,-6.5107,0.0,0.0,0.0,0.0,0.0,0.0,0.0,-6.0961,0.0,0.0,0.0,0.0,0.0,0.0,0.0,0.0,0.0,0.0,0.0,-8.5121,-8.4681,-8.7951,-8.9318,-9.0001,-9.0001,-9.0001,-9.0001,-9.0001,-9.0001,-9.0001,-9.0001,-9.0001,-9.0001,-9.0001,-9.0001,-9.0001,-9.0001,-9.0001,-8.8896,-8.6854,-8.399,-8.0672,-7.7029,-7.554,-7.291,-7.0009,-7.0009,-7.0009,-7.0009,-7.0009,-7.0009,-7.0009,-7.0009,-7.0009,-7.0009,-7.0009,-7.0009,-7.0009,-7.0009,-6.9439,-6.8604,-6.7693,-6.6857,-6.6022,-6.5187,-6.4959,-6.4959,-6.4959,-6.4959,-6.4959,-6.4959,-6.4959,-6.4959,-6.4959,-6.4959,-6.5263,-6.6098,-6.6933,-6.7769,-6.868,-6.849,-6.8034,-6.7503,-6.6402,-6.5491,-6.4997,-6.4959,-6.4959,-6.4959,-6.4959,-6.4959,-6.4959,-6.4959,-6.4959,-6.4959,-6.4959,-6.4959,-6.4959,-6.4959,-6.4959,-6.4836,-5.9473,-5.6913,0.0,0.0,0.0,0.0,-7.2359,0.0,0.0,0.0,-6.5215,-6.2668,0.0,0.0,0.0,0.0,0.0,0.0,0.0,0.0,-6.6378,0.0,0.0,0.0,0.0,0.0,0.0,-8.229,-8.4877,-8.966,-8.7317,-8.6975,-8.9855,-9.0001,-9.0001,-9.0001,-9.0001,-9.0001,-9.0001,-9.0001,-9.0001,-9.0001,-9.0001,-9.0001,-9.0001,-9.0001,-9.0001,-9.0001,-9.0001,-9.0001,-8.9532,-8.3304,-8.0423,-7.9675,-7.5924,-7.2649,-7.0009,-7.0009,-7.0009,-7.0009,-7.0009,-7.0009,-7.0009,-7.0009,-7.0009,-7.0009,-7.0009,-7.0009,-7.0009,-7.0009,-6.9477,-6.8718,-6.7693,-6.6895,-6.6136,-6.5187,-6.4959,-6.4959,-6.4959,-6.4959,-6.4959,-6.4959,-6.4959,-6.4959,-6.4959,-6.4959,-6.5301,-6.6212,-6.6971,-6.7807,-6.8794,-6.8148,-6.7579,-6.7465,-6.606,-6.5073,-6.4959,-6.4959,-6.4959,-6.4959,-6.4959,-6.4959,-6.4959,-6.4959,-6.4959,-6.4959,-6.4959,-6.4959,-6.4959,-6.4959,-6.4959,-6.4836,-6.1474,-5.9814,0.0,0.0,0.0,0.0,0.0,-7.0087,0.0,0.0,0.0,0.0,0.0,0.0,0.0,0.0,0.0,0.0,0.0,0.0,0.0,-7.8336,0.0,0.0,0.0,0.0,-8.8195,-8.8342,-8.8879,-8.9953,-8.9416,-8.9367,-9.0001,-9.0001,-9.0001,-9.0001,-9.0001,-9.0001,-9.0001,-9.0001,-9.0001,-9.0001,-9.0001,-9.0001,-9.0001,-9.0001,-9.0001,-9.0001,-9.0001,-9.0001,-8.965,-8.5609,-8.2401,-7.9425,-7.33,-7.0537,-7.0009,-7.0009,-7.0009,-7.0009,-7.0009,-7.0009,-7.0009,-7.0009,-7.0009,-7.0009,-7.0009,-7.0009,-7.0009,-7.0009,-6.9895,-6.9439,-6.7845,-6.7313,-6.682,-6.5339,-6.4959,-6.4959,-6.4959,-6.4959,-6.4959,-6.4959,-6.4959,-6.4959,-6.4959,-6.4959,-6.5491,-6.6971,-6.7351,-6.8034,-6.9591,-6.9059,-6.8262,-6.7541,-6.6554,-6.5718,-6.5035,-6.4959,-6.4959,-6.4959,-6.4959,-6.4959,-6.4959,-6.4959,-6.4959,-6.4959,-6.4959,-6.4959,-6.4959,-6.4959,-6.4959,-6.4836,-6.1474,-5.9814,0.0,0.0,0.0,-6.916,0.0,0.0,0.0,-6.8349,-6.8802,-7.0656,-7.0489,-7.0381,-7.1991,-7.2284,-7.2479,-7.3016,-7.5359,-7.7702,-7.9312,-8.4633,-8.8391,0.0,0.0,0.0,-9.0001,-9.0001,-9.0001,-9.0001,-9.0001,-9.0001,-9.0001,-9.0001,-9.0001,-9.0001,-9.0001,-9.0001,-9.0001,-9.0001,-9.0001,-9.0001,-9.0001,-9.0001,-9.0001,-9.0001,-9.0001,-9.0001,-9.0001,-9.0001,-8.965,-8.4522,-8.1539,-7.955,-7.4553,-7.1512,-7.0009,-7.0009,-7.0009,-7.0009,-7.0009,-7.0009,-7.0009,-7.0009,-7.0009,-7.0009,-7.0009,-7.0009,-7.0009,-7.0009,-7.0009,-6.9743,-6.8452,-6.7807,-6.7123,-6.5908,-6.5263,-6.4959,-6.4959,-6.4959,-6.4959,-6.4959,-6.4959,-6.4959,-6.4959,-6.4959,-6.5529,-6.7199,-6.7465,-6.8072,-6.9781,-6.9325,-6.8452,-6.7541,-6.6706,-6.587,-6.5035,-6.4959,-6.4959,-6.4959,-6.4959,-6.4959,-6.4959,-6.4959,-6.4959,-6.4959,-6.4959,-6.4959,-6.4959,-6.4959,-6.4959,-6.4836,-6.316,-6.238,0.0,0.0,0.0,0.0,0.0,0.0,-6.8471,-6.7933,-6.8696,-7.1065,-7.1026,-7.1796,-7.5652,-7.6384,-7.6384,-7.6384,-7.858,-8.1948,-8.6731,-8.8928,-8.9367,-8.761,0.0,0.0,-9.0001,-9.0001,-9.0001,-9.0001,-9.0001,-9.0001,-9.0001,-9.0001,-9.0001,-9.0001,-9.0001,-9.0001,-9.0001,-9.0001,-9.0001,-9.0001,-9.0001,-9.0001,-9.0001,-9.0001,-9.0001,-9.0001,-9.0001,-9.0001,-8.9532,-8.3503,-8.0672,-7.98,-7.6307,-7.291,-7.0009,-7.0009,-7.0009,-7.0009,-7.0009,-7.0009,-7.0009,-7.0009,-7.0009,-7.0009,-7.0009,-7.0009,-7.0009,-7.0009,-7.0009,-6.9819,-6.9022,-6.811,-6.7237,-6.644,-6.5605,-6.4959,-6.4959,-6.4959,-6.4959,-6.4959,-6.4959,-6.4959,-6.4959,-6.4959,-6.5529,-6.7199,-6.7465,-6.8072,-6.9781,-6.9439,-6.8642,-6.7579,-6.6857,-6.606,-6.5035,-6.4959,-6.4959,-6.4959,-6.4959,-6.4959,-6.4959,-6.4959,-6.4959,-6.4959,-6.4959,-6.4959,-6.4959,-6.4959,-6.4959,-6.4959,-6.4959,-6.4959,0.0,0.0,0.0,0.0,0.0,0.0,-7.3359,-7.6011,-7.8625,-8.1381,-8.4852,-8.6926,-8.556,-8.5316,-8.5316,-8.5316,-8.5609,-8.6731,-8.9318,-8.9855,-8.9904,-8.9708,-8.9855,-9.0001,-9.0001,-9.0001,-9.0001,-9.0001,-9.0001,-9.0001,-9.0001,-9.0001,-9.0001,-9.0001,-9.0001,-9.0001,-9.0001,-9.0001,-9.0001,-9.0001,-9.0001,-9.0001,-9.0001,-9.0001,-9.0001,-9.0001,-9.0001,-9.0001,-8.9767,-8.6016,-8.2647,-7.98,-7.6307,-7.291,-7.0009,-7.0009,-7.0009,-7.0009,-7.0009,-7.0009,-7.0009,-7.0009,-7.0009,-7.0009,-7.0009,-7.0009,-7.0009,-7.0009,-7.0009,-6.9819,-6.9022,-6.811,-6.7237,-6.644,-6.5605,-6.4959,-6.4959,-6.4959,-6.4959,-6.4959,-6.4959,-6.4959,-6.4959,-6.4959,-6.5529,-6.7199,-6.7465,-6.8072,-6.9781,-6.9933,-6.9249,-6.7617,-6.7389,-6.6668,-6.5111,-6.4959,-6.4959,-6.4959,-6.4959,-6.4959,-6.4959,-6.4959,-6.4959,-6.4959,-6.4959,-6.4959,-6.4959,-6.4959,-6.4959,-6.4959,-6.4959,-6.4959,0.0,0.0,0.0,0.0,0.0,0.0,-7.095,-7.3657,-7.6529,-7.8503,-8.2339,-8.5609,-8.6585,-8.7805,-8.8635,-8.8635,-8.8635,-8.8976,-8.9904,-9.0001,-9.0001,-9.0001,-9.0001,-9.0001,-9.0001,-9.0001,-9.0001,-9.0001,-8.883,-8.8684,-8.9953,-9.0001,-9.0001,-9.0001,-9.0001,-9.0001,-9.0001,-9.0001,-9.0001,-9.0001,-9.0001,-9.0001,-9.0001,-9.0001,-9.0001,-9.0001,-9.0001,-9.0001,-8.9884,-8.8494,-8.4764,-7.9925,-7.8546,-7.4682,-7.0009,-7.0009,-7.0009,-7.0009,-7.0009,-7.0009,-7.0009,-7.0009,-7.0009,-7.0009,-7.0009,-7.0009,-7.0009,-7.0009,-7.0009,-6.9933,-6.9591,-6.849,-6.7351,-6.7009,-6.5946,-6.4959,-6.4959,-6.4959,-6.4959,-6.4959,-6.4959,-6.4959,-6.4959,-6.4959,-6.5529,-6.7199,-6.7465,-6.8072,-6.9781,-7.0009,-6.9363,-6.7617,-6.7465,-6.6782,-6.5111,-6.4959,-6.4959,-6.4959,-6.4959,-6.4959,-6.4959,-6.4959,-6.4959,-6.4959,-6.4959,-6.4959,-6.4959,-6.4959,-6.4959,-6.4959,-6.4959,-6.4959,-6.9044,0.0,0.0,0.0,0.0,0.0,-7.0707,-7.3225,-7.611,-7.7567,-8.1167,-8.4877,-8.7219,-8.8928,-9.0001,-9.0001,-9.0001,-9.0001,-9.0001,-9.0001,-9.0001,-9.0001,-9.0001,-9.0001,-9.0001,-9.0001,-9.0001,0.0,-8.8537,-8.8342,-8.9953,-9.0001,-9.0001,-9.0001,-9.0001,-9.0001,-9.0001,-9.0001,-9.0001,-9.0001,-9.0001,-9.0001,-9.0001,-9.0001,-9.0001,-9.0001,-9.0001,-9.0001,-8.9884,-8.9014,-8.5247,-8.0049,-7.9049,-7.5156,-7.0009,-7.0009,-7.0009,-7.0009,-7.0009,-7.0009,-7.0009,-7.0009,-7.0009,-7.0009,-7.0009,-7.0009,-7.0009,-7.0009,-7.0009,-7.0009,-7.0009,-6.8756,-6.7465,-6.7465,-6.6174,-6.4959,-6.4959,-6.4959,-6.4959,-6.4959,-6.4959,-6.4959,-6.4959,-6.4959,-6.5529,-6.7199,-6.7465,-6.8072,-6.9781,-7.0009,-6.9363,-6.7617,-6.7465,-6.6782,-6.5111,-6.4959,-6.4959,-6.4959,-6.4959,-6.4959,-6.4959,-6.4959,-6.4959,-6.4959,-6.4959,-6.4959,-6.4959,-6.4959,-6.4959,-6.4959,-6.4959,-6.4959,0.0,0.0,0.0,0.0,0.0,-7.1935,-7.5842,-7.9006,-8.1659,-8.306,-8.678,-8.9806,-8.9904,-8.9953,-9.0001,-9.0001,-9.0001,-9.0001,-9.0001,-9.0001,-9.0001,-9.0001,-9.0001,-9.0001,-9.0001,-9.0001,-9.0001,-9.0001,-8.9953,-8.9953,-9.0001,-9.0001,-9.0001,-9.0001,-9.0001,-9.0001,-9.0001,-9.0001,-9.0001,-9.0001,-9.0001,-9.0001,-9.0001,-9.0001,-9.0001,-9.0001,-9.0001,-9.0001,-8.9767,-8.6496,-8.3137,-7.98,-7.6435,-7.304,-7.0009,-7.0009,-7.0009,-7.0009,-7.0009,-7.0009,-7.0009,-7.0009,-7.0009,-7.0009,-7.0009,-7.0009,-7.0009,-7.0009,-7.0009,-7.0009,-7.0009,-6.8756,-6.7465,-6.7465,-6.6174,-6.4959,-6.4959,-6.4959,-6.4959,-6.4959,-6.4959,-6.4959,-6.4959,-6.4959,-6.5529,-6.7199,-6.7465,-6.8072,-6.9781,-7.0009,-6.9363,-6.7617,-6.7465,-6.6782,-6.5111,-6.4959,-6.4959,-6.4959,-6.4959,-6.4959,-6.4959,-6.4959,-6.4959,-6.4959,-6.4959,-6.4959,-6.4959,-6.4959,-6.4959,-6.4959,-6.4959,-6.4959,-7.1847,0.0,0.0,0.0,-7.5471,-7.478,-7.9038,-8.1506,-8.2994,-8.3531,-8.6975,-8.9562,-8.8098,-8.9025,-9.0001,-9.0001,-9.0001,-9.0001,-9.0001,-9.0001,-9.0001,-9.0001,-9.0001,-9.0001,-9.0001,-9.0001,-9.0001,-9.0001,-8.8684,0.0,-8.9953,-8.8635,-8.8537,-8.9953,-9.0001,-9.0001,-9.0001,-9.0001,-9.0001,-9.0001,-9.0001,-9.0001,-9.0001,-9.0001,-9.0001,-9.0001,-9.0001,-8.873,-8.6496,-8.5368,-8.1741,-7.6817,-7.7916,-7.4899,-7.0273,-7.2519,-7.1905,-7.0009,-7.0009,-7.0009,-7.0009,-7.0009,-7.0009,-7.0009,-7.0009,-7.0009,-7.0009,-7.0009,-7.0009,-7.0009,-7.0009,-6.9591,-6.887,-6.7731,-6.6592,-6.5643,-6.5111,-6.4959,-6.4959,-6.4959,-6.4959,-6.4959,-6.4959,-6.4959,-6.5339,-6.6478,-6.7123,-6.7883,-6.9059,-6.9667,-6.9363,-6.7617,-6.7465,-6.6782,-6.5111,-6.4959,-6.4959,-6.4959,-6.4959,-6.4959,-6.4959,-6.4959,-6.4959,-6.4959,-6.4959,-6.4959,-6.4959,-6.4959,-6.4959,-6.4959,-6.4959,-6.4959,-7.3304,-7.3281,-7.34,-7.8881,-7.822,-7.7301,-8.1255,-8.2903,-8.3754,-8.4535,-8.7512,-8.9611,-8.8195,-8.9074,-9.0001,-9.0001,-9.0001,-9.0001,-9.0001,-9.0001,-9.0001,-9.0001,-9.0001,-9.0001,-9.0001,-9.0001,-9.0001,-9.0001,-8.8732,-8.8537,-8.9953,-8.8684,-8.8537,-8.9953,-9.0001,-9.0001,-9.0001,-9.0001,-9.0001,-9.0001,-9.0001,-9.0001,-9.0001,-9.0001,-9.0001,-9.0001,-9.0001,-8.8778,-8.6615,-8.4158,-8.0672,-7.6902,-7.7916,-7.4939,-7.0405,-7.3778,-7.291,-7.0009,-7.0009,-7.0009,-7.0009,-7.0009,-7.0009,-7.0009,-7.0009,-7.0009,-7.0009,-7.0009,-7.0009,-7.0009,-7.0009,-7.0009,-6.9667,-6.8262,-6.7275,-6.6364,-6.5225,-6.4959,-6.4959,-6.4959,-6.4959,-6.4959,-6.4959,-6.4959,-6.5263,-6.6098,-6.6933,-6.7769,-6.868,-6.9515,-6.9477,-6.8072,-6.7655,-6.6895,-6.5529,-6.5149,-6.4959,-6.4959,-6.4959,-6.4959,-6.4959,-6.4959,-6.4959,-6.4959,-6.4959,-6.4959,-6.4959,-6.4959,-6.4959,-6.4959,-6.4959,-6.4959,-7.3655,-7.4687,-7.5875,-8.0699,-8.019,-7.9498,-8.306,-8.3803,-8.4291,-8.6487,-8.8586,-9.0001,-9.0001,-9.0001,-9.0001,-9.0001,-9.0001,-9.0001,-9.0001,-9.0001,-9.0001,-9.0001,-9.0001,-9.0001,-9.0001,-9.0001,-9.0001,-9.0001,-9.0001,-9.0001,-9.0001,-9.0001,-9.0001,-9.0001,-9.0001,-9.0001,-9.0001,-9.0001,-9.0001,-9.0001,-9.0001,-9.0001,-9.0001,-9.0001,-9.0001,-9.0001,-9.0001,-8.9767,-8.9014,-8.2892,-8.0049,-7.9299,-7.6435,-7.317,-7.0405,-7.3778,-7.291,-7.0009,-7.0009,-7.0009,-7.0009,-7.0009,-7.0009,-7.0009,-7.0009,-7.0009,-7.0009,-7.0009,-7.0009,-7.0009,-7.0009,-7.0009,-6.9819,-6.8984,-6.811,-6.7009,-6.5377,-6.4997,-6.4959,-6.4959,-6.4959,-6.4959,-6.4959,-6.4959,-6.5225,-6.606,-6.6895,-6.7769,-6.8604,-6.9477,-6.9705,-6.887,-6.7996,-6.7123,-6.6288,-6.5453,-6.4959,-6.4959,-6.4959,-6.4959,-6.4959,-6.4959,-6.4959,-6.4959,-6.4959,-6.4959,-6.4959,-6.4959,-6.4959,-6.4959,-6.4959,-6.4959,-7.7904,-7.9845,-8.1307,-8.6538,-8.5006,-8.3323,-8.743,-8.7122,-8.6536,-8.8732,-8.9611,-9.0001,-9.0001,-9.0001,-9.0001,-9.0001,-9.0001,-9.0001,-9.0001,-9.0001,-9.0001,-9.0001,-9.0001,-9.0001,-9.0001,-9.0001,-9.0001,-9.0001,-9.0001,-9.0001,-9.0001,-9.0001,-9.0001,-9.0001,-9.0001,-9.0001,-9.0001,-9.0001,-9.0001,-9.0001,-9.0001,-9.0001,-9.0001,-9.0001,-9.0001,-9.0001,-9.0001,-8.714,-8.2647,-8.3381,-7.9256,-7.291,-7.7156,-7.5156,-7.0405,-7.3778,-7.291,-7.0009,-7.0009,-7.0009,-7.0009,-7.0009,-7.0009,-7.0009,-7.0009,-7.0009,-7.0009,-7.0009,-7.0009,-7.0009,-7.0009,-7.0009,-6.9819,-6.8984,-6.811,-6.7161,-6.6136,-6.5415,-6.4959,-6.4959,-6.4959,-6.4959,-6.4959,-6.4959,-6.5035,-6.5263,-6.6516,-6.7541,-6.7769,-6.9097,-6.9705,-6.887,-6.7996,-6.7123,-6.6288,-6.5453,-6.4959,-6.4959,-6.4959,-6.4959,-6.4959,-6.4959,-6.4959,-6.4959,-6.4959,-6.4959,-6.4959,-6.4959,-6.4959,-6.4959,-6.4959,-6.4959,-7.7912,-8.0393,-8.2885,-8.7482,-8.6048,-8.4681,-8.9025,-8.8342,-8.7366,-8.9562,-9.0001,-9.0001,-9.0001,-9.0001,-9.0001,-9.0001,-9.0001,-9.0001,-9.0001,-9.0001,-9.0001,-9.0001,-9.0001,-9.0001,-9.0001,-9.0001,-9.0001,-9.0001,-9.0001,-9.0001,-9.0001,-9.0001,-9.0001,-9.0001,-9.0001,-9.0001,-9.0001,-9.0001,-9.0001,-9.0001,-9.0001,-9.0001,-9.0001,-9.0001,-9.0001,-8.9884,-8.8375,-8.5655,-8.2155,-8.1,-7.7283,-7.2519,-7.6435,-7.4641,-7.0405,-7.3778,-7.291,-7.0009,-7.0009,-7.0009,-7.0009,-7.0009,-7.0009,-7.0009,-7.0009,-7.0009,-7.0009,-7.0009,-7.0009,-7.0009,-7.0009,-7.0009,-6.9819,-6.8984,-6.811,-6.7123,-6.5946,-6.5301,-6.4959,-6.4959,-6.4959,-6.4959,-6.4959,-6.4959,-6.4959,-6.4959,-6.6402,-6.7465,-6.7465,-6.8946,-6.9857,-6.9401,-6.8186,-6.7275,-6.682,-6.5643,-6.4959,-6.4959,-6.4959,-6.4959,-6.4959,-6.4959,-6.4959,-6.4959,-6.4959,-6.4959,-6.4959,-6.4959,-6.4959,-6.4959,-6.4959,-6.4959,-7.6852,-7.9546,-8.2464,-8.5857,-8.556,-8.5316,-8.8781,-8.8342,-8.7707,-8.9611,-9.0001,-9.0001,-9.0001,-9.0001,-9.0001,-9.0001,-9.0001,-9.0001,-9.0001,-9.0001,-9.0001,-9.0001,-9.0001,-9.0001,-9.0001,-9.0001,-9.0001,-9.0001,-9.0001,-9.0001,-9.0001,-9.0001,-9.0001,-9.0001,-9.0001,-9.0001,-9.0001,-9.0001,-9.0001,-9.0001,-9.0001,-9.0001,-9.0001,-9.0001,-9.0001,-8.9884,-8.6902,-8.5127,-8.3869,-7.8503,-7.554,-7.4424,-7.4899,-7.291,-7.0405,-7.33,-7.2519,-7.0009,-7.0009,-7.0009,-7.0009,-7.0009,-7.0009,-7.0009,-7.0009,-7.0009,-7.0009,-7.0009,-7.0009,-7.0009,-7.0009,-7.0009,-6.9781,-6.8832,-6.8034,-6.7009,-6.5453,-6.5035,-6.4959,-6.4959,-6.4959,-6.4959,-6.4959,-6.4959,-6.4959,-6.4959,-6.6402,-6.7465,-6.7465,-6.8946,-7.0009,-7.0009,-6.8604,-6.7579,-6.7465,-6.6022,-6.5073,-6.4959,-6.4959,-6.4959,-6.4959,-6.4959,-6.4959,-6.4959,-6.4959,-6.4959,-6.4959,-6.4959,-6.4959,-6.4959,-6.4959,-6.4959,-8.2182,-8.3624,-8.3676,-8.6115,-8.7854,-8.8635,-8.7561,-8.8439,-8.9562,-8.9953,-9.0001,-9.0001,-9.0001,-9.0001,-9.0001,-9.0001,-9.0001,-9.0001,-9.0001,-9.0001,-9.0001,-9.0001,-9.0001,-9.0001,-9.0001,-9.0001,-9.0001,-9.0001,-9.0001,-9.0001,-9.0001,-9.0001,-9.0001,-9.0001,-9.0001,-9.0001,-9.0001,-9.0001,-9.0001,-9.0001,-9.0001,-9.0001,-9.0001,-9.0001,-9.0001,-9.0001,-8.9367,-8.6016,-8.1044,-8.2647,-7.8377,-7.1157,-7.3908,-7.291,-7.0009,-7.0669,-7.0537,-7.0009,-7.0009,-7.0009,-7.0009,-7.0009,-7.0009,-7.0009,-7.0009,-7.0009,-7.0009,-7.0009,-7.0009,-7.0009,-7.0009,-7.0009,-6.9629,-6.8072,-6.7579,-6.7199,-6.6212,-6.5453,-6.4959,-6.4959,-6.4959,-6.4959,-6.4959,-6.4959,-6.4959,-6.4959,-6.6402,-6.7465,-6.7465,-6.8946,-7.0009,-7.0009,-6.9135,-6.8262,-6.7503,-6.6554,-6.5718,-6.4997,-6.4959,-6.4959,-6.4959,-6.4959,-6.4959,-6.4959,-6.4959,-6.4959,-6.4959,-6.4959,-6.4959,-6.4959,-6.4959,-6.4959,-7.9387,-8.0251,-8.0397,-8.1427,-8.3363,-8.5609,-8.7903,-8.8391,-8.8635,-8.9806,-8.9123,-8.8684,-8.9806,-9.0001,-9.0001,-9.0001,-9.0001,-9.0001,-9.0001,-9.0001,-9.0001,-9.0001,-9.0001,-9.0001,-9.0001,-9.0001,-9.0001,-9.0001,-9.0001,-9.0001,-9.0001,-9.0001,-9.0001,-9.0001,-9.0001,-9.0001,-9.0001,-9.0001,-9.0001,-9.0001,-9.0001,-9.0001,-9.0001,-9.0001,-9.0001,-8.9767,-8.6376,-8.3014,-7.9925,-7.7873,-7.4255,-7.0141,-7.1774,-7.1381,-7.0009,-7.0009,-7.0009,-7.0009,-7.0009,-7.0009,-7.0009,-7.0009,-7.0009,-7.0009,-7.0009,-7.0009,-7.0009,-7.0009,-7.0009,-7.0009,-7.0009,-7.0009,-6.9705,-6.8452,-6.8148,-6.7807,-6.6516,-6.5908,-6.5491,-6.5035,-6.4959,-6.4959,-6.4959,-6.4959,-6.4959,-6.4959,-6.6402,-6.7465,-6.7465,-6.8946,-7.0009,-7.0009,-6.9287,-6.8604,-6.8186,-6.6971,-6.606,-6.5643,-6.5225,-6.4959,-6.4959,-6.4959,-6.4959,-6.4959,-6.4959,-6.4959,-6.4959,-6.4959,-6.4959,-6.4959,-6.4959,-6.4959,-7.6565,-7.7008,-7.7751,-7.8922,-7.9605,-8.1403,-8.7317,-8.7317,-8.678,-8.9464,-8.8488,-8.7707,-8.966,-8.9855,-8.9757,-9.0001,-9.0001,-9.0001,-9.0001,-9.0001,-9.0001,-9.0001,-9.0001,-9.0001,-9.0001,-9.0001,-9.0001,-9.0001,-9.0001,-9.0001,-9.0001,-9.0001,-9.0001,-9.0001,-9.0001,-9.0001,-9.0001,-9.0001,-9.0001,-9.0001,-9.0001,-9.0001,-9.0001,-9.0001,-9.0001,-8.965,-8.3792,-8.0796,-7.9675,-7.3519,-7.0669,-7.0009,-7.0009,-7.0009,-7.0009,-7.0009,-7.0009,-7.0009,-7.0009,-7.0009,-7.0009,-7.0009,-7.0009,-7.0009,-7.0009,-7.0009,-7.0009,-7.0009,-7.0009,-7.0009,-7.0009,-7.0009,-6.9857,-6.9211,-6.8946,-6.8376,-6.682,-6.6364,-6.5984,-6.5111,-6.4959,-6.4959,-6.4959,-6.4959,-6.4959,-6.4959,-6.625,-6.7237,-6.7427,-6.8794,-6.9819,-7.0009,-6.9439,-6.8984,-6.8832,-6.7541,-6.6706,-6.6516,-6.5681,-6.5225,-6.5225,-6.5073,-6.4959,-6.4959,-6.4959,-6.4959,-6.4959,-6.4959,-6.4959,-6.4959,-6.4959,-6.4959,-7.9513,-7.9503,-7.9801,-8.4633,-8.2339,-7.9801,-8.3315,-8.3998,-8.5023,-8.9172,-8.9074,-8.8635,-8.9806,-8.922,-8.8879,-8.9855,-9.0001,-9.0001,-9.0001,-9.0001,-9.0001,-9.0001,-9.0001,-9.0001,-9.0001,-9.0001,-9.0001,-9.0001,-9.0001,-9.0001,-9.0001,-9.0001,-9.0001,-9.0001,-9.0001,-9.0001,-9.0001,-9.0001,-9.0001,-9.0001,-9.0001,-9.0001,-9.0001,-9.0001,-9.0001,-8.9767,-8.6136,-8.2769,-7.98,-7.6052,-7.278,-7.0009,-7.0009,-7.0009,-7.0009,-7.0009,-7.0009,-7.0009,-7.0009,-7.0009,-7.0009,-7.0009,-7.0009,-7.0009,-7.0009,-7.0009,-7.0009,-7.0009,-7.0009,-7.0009,-7.0009,-7.0009,-7.0009,-6.9933,-6.9325,-6.8528,-6.7541,-6.6744,-6.5984,-6.5111,-6.4959,-6.4959,-6.4959,-6.4959,-6.4959,-6.4959,-6.5756,-6.6592,-6.7351,-6.83,-6.9211,-6.9933,-6.9971,-6.9591,-6.887,-6.8642,-6.8224,-6.7389,-6.6554,-6.6136,-6.6136,-6.5377,-6.4959,-6.4959,-6.4959,-6.4959,-6.4959,-6.4959,-6.4959,-6.4959,-6.4959,-6.4959,-7.1782,-7.288,-7.4578,-7.736,-7.8385,-7.9068,-8.0386,-8.1655,-8.3608,-8.7268,-8.7707,-8.6926,-8.5413,-8.7463,-8.8879,-8.7317,-8.8732,-9.0001,-9.0001,-9.0001,-9.0001,-9.0001,-9.0001,-9.0001,-9.0001,-9.0001,-9.0001,-9.0001,-9.0001,-9.0001,-9.0001,-9.0001,-9.0001,-9.0001,-9.0001,-9.0001,-9.0001,-9.0001,-9.0001,-9.0001,-9.0001,-9.0001,-9.0001,-9.0001,-9.0001,-8.9884,-8.866,-8.5006,-7.9675,-7.4166,-7.1157,-7.0009,-7.0009,-7.0009,-7.0009,-7.0009,-7.0009,-7.0009,-7.0009,-7.0009,-7.0009,-7.0009,-7.0009,-7.0009,-7.0009,-7.0009,-7.0009,-7.0009,-7.0009,-7.0009,-7.0009,-7.0009,-7.0009,-7.0009,-6.9781,-6.9135,-6.7731,-6.7199,-6.6554,-6.5225,-6.4959,-6.4959,-6.4959,-6.4959,-6.4959,-6.4959,-6.5263,-6.5946,-6.7275,-6.868,-6.9667,-6.9971,-7.0009,-6.9895,-6.9553,-6.9097,-6.8642,-6.83,-6.6971,-6.644,-6.6933,-6.5681,-6.4959,-6.4959,-6.4959,-6.4959,-6.4959,-6.4959,-6.4959,-6.4959,-6.4959,-6.4959,-6.6931,-6.8477,-7.1205,-7.2821,-7.5066,-7.7507,-8.0093,-8.0581,-8.1704,-8.5901,-8.7024,-8.6438,-8.3852,-8.6194,-8.7903,-8.595,-8.7561,-8.9269,-8.9904,-9.0001,-9.0001,-9.0001,-9.0001,-9.0001,-9.0001,-9.0001,-9.0001,-9.0001,-9.0001,-9.0001,-9.0001,-9.0001,-9.0001,-9.0001,-9.0001,-9.0001,-9.0001,-9.0001,-9.0001,-9.0001,-9.0001,-9.0001,-9.0001,-9.0001,-8.9415,-8.8494,-8.8494,-8.4764,-7.8168,-7.3429,-7.0894,-7.0009,-7.0009,-7.0009,-7.0009,-7.0009,-7.0009,-7.0009,-7.0009,-7.0009,-7.0009,-7.0009,-7.0009,-7.0009,-7.0009,-7.0009,-7.0009,-7.0009,-7.0009,-7.0009,-7.0009,-7.0009,-7.0009,-7.0009,-7.0009,-6.9553,-6.7807,-6.7465,-6.6971,-6.5301,-6.4959,-6.4959,-6.4959,-6.4959,-6.4959,-6.4959,-6.4959,-6.5491,-6.6895,-6.8338,-6.9439,-6.9971,-7.0009,-7.0009,-7.0009,-6.9477,-6.9173,-6.9173,-6.7541,-6.6857,-6.7427,-6.6098,-6.5225,-6.4959,-6.4959,-6.4959,-6.4959,-6.4959,-6.4959,-6.4959,-6.4959,-6.4959,-6.7977,-6.9063,-7.1547,-7.4822,-7.3895,-7.4578,-8.3119,-8.0972,-7.902,-8.5413,-8.761,-8.8049,-8.6926,-8.5853,-8.5511,-8.6585,-8.678,-8.7512,-8.9708,-9.0001,-9.0001,-9.0001,-9.0001,-9.0001,-9.0001,-9.0001,-9.0001,-9.0001,-9.0001,-9.0001,-9.0001,-9.0001,-9.0001,-9.0001,-9.0001,-9.0001,-9.0001,-9.0001,-9.0001,-9.0001,-9.0001,-9.0001,-9.0001,-9.0001,-8.8139,-8.5006,-8.5006,-8.1247,-7.5027,-7.5027,-7.304,-7.0009,-7.0009,-7.0009,-7.0009,-7.0009,-7.0009,-7.0009,-7.0009,-7.0009,-7.0009,-7.0009,-7.0009,-7.0009,-7.0009,-7.0009,-7.0009,-7.0009,-7.0009,-7.0009,-7.0009,-7.0009,-7.0009,-7.0009,-7.0009,-6.9553,-6.7807,-6.7465,-6.6971,-6.5301,-6.4959,-6.4959,-6.4959,-6.4959,-6.4959,-6.4959,-6.4959,-6.5263,-6.6136,-6.6971,-6.811,-6.9857,-7.0009,-7.0009,-7.0009,-7.0009,-7.0009,-7.0009,-6.8376,-6.7427,-6.7465,-6.6668,-6.5832,-6.4997,-6.4959,-6.4959,-6.4959,-6.4959,-6.4959,-6.4959,-6.4959,-6.4959,-6.6355,-6.794,-7.0722,-7.5457,-7.4432,-7.4529,-8.3168,-8.1558,-8.0289,-8.7512,-8.5755,-8.2583,-8.146,-8.3998,-8.6097,-8.5706,-8.7512,-8.922,-8.9904,-9.0001,-9.0001,-9.0001,-9.0001,-9.0001,-9.0001,-9.0001,-9.0001,-9.0001,-9.0001,-9.0001,-9.0001,-9.0001,-9.0001,-9.0001,-9.0001,-9.0001,-9.0001,-9.0001,-9.0001,-9.0001,-9.0001,-9.0001,-9.0001,-9.0001,-8.8139,-8.5006,-8.5006,-8.1124,-7.5027,-7.5027,-7.304,-7.0009,-7.0009,-7.0009,-7.0009,-7.0009,-7.0009,-7.0009,-7.0009,-7.0009,-7.0009,-7.0009,-7.0009,-7.0009,-7.0009,-7.0009,-7.0009,-7.0009,-7.0009,-7.0009,-7.0009,-7.0009,-7.0009,-7.0009,-7.0009,-6.9553,-6.7807,-6.7465,-6.6971,-6.5301,-6.4959,-6.4959,-6.4959,-6.4959,-6.4959,-6.4959,-6.4959,-6.5263,-6.6136,-6.6933,-6.7883,-6.9059,-6.9705,-7.0009,-7.0009,-7.0009,-7.0009,-7.0009,-6.8984,-6.8072,-6.7465,-6.6668,-6.5832,-6.4997,-6.4959,-6.4959,-6.4959,-6.4959,-6.4959,-6.4959,-6.4959,-6.4959,-6.672,-6.838,-7.0771,-7.5408,-7.4383,-7.4432,-8.268,-8.0289,-7.8434,-8.5999,-8.4047,-8.1021,-8.1167,-8.3559,-8.556,-8.5706,-8.7463,-8.9074,-8.9904,-9.0001,-9.0001,-9.0001,-9.0001,-9.0001,-9.0001,-9.0001,-9.0001,-9.0001,-9.0001,-9.0001,-9.0001,-9.0001,-9.0001,-9.0001,-9.0001,-9.0001,-9.0001,-9.0001,-9.0001,-9.0001,-9.0001,-9.0001,-8.9884,-8.866,-8.6256,-8.3014,-8.1741,-7.8126,-7.317,-7.317,-7.1905,-7.0009,-7.0009,-7.0009,-7.0009,-7.0009,-7.0009,-7.0009,-7.0009,-7.0009,-7.0009,-7.0009,-7.0009,-7.0009,-7.0009,-7.0009,-7.0009,-7.0009,-7.0009,-7.0009,-7.0009,-7.0009,-7.0009,-7.0009,-7.0009,-6.9553,-6.7807,-6.7465,-6.6971,-6.5301,-6.4959,-6.4959,-6.4959,-6.4959,-6.4959,-6.4959,-6.4959,-6.5263,-6.6136,-6.6668,-6.7465,-6.868,-6.9249,-6.9667,-7.0009,-7.0009,-7.0009,-7.0009,-6.9553,-6.887,-6.7996,-6.7123,-6.6288,-6.5453,-6.5111,-6.4959,-6.4959,-6.4959,-6.4959,-6.4959,-6.4959,-6.4959,-6.8437,-6.9893,-7.1596,-7.5017,-7.4139,-7.4481,-8.2046,-7.7946,-7.4627,-8.2094,-8.2641,-8.2397,-8.4486,-8.4047,-8.3998,-8.6146,-8.678,-8.761,-8.9513,-8.9806,-8.9806,-8.9806,-8.9806,-8.9806,-8.9806,-8.9904,-9.0001,-9.0001,-9.0001,-9.0001,-9.0001,-9.0001,-9.0001,-9.0001,-9.0001,-9.0001,-9.0001,-9.0001,-8.9953,-8.9806,-8.967,-8.9553,-8.929,-8.6043,-8.2769,-7.955,-7.6523,-7.318,-7.0009,-7.0121,-7.0027,-7.0009,-7.0009,-7.0009,-7.0009,-7.0009,-7.0009,-7.0009,-7.0009,-7.0009,-7.0009,-7.0009,-7.0009,-7.0009,-7.0009,-7.0009,-7.0009,-7.0009,-7.0009,-7.0009,-7.0009,-7.0009,-7.0009,-7.0009,-7.0009,-6.9553,-6.7921,-6.7503,-6.6971,-6.5377,-6.4997,-6.4959,-6.4959,-6.4959,-6.4959,-6.4959,-6.4959,-6.5263,-6.6022,-6.6212,-6.6857,-6.8528,-6.8756,-6.9135,-6.9971,-7.0009,-7.0009,-7.0009,-7.0009,-6.9667,-6.8832,-6.7996,-6.7123,-6.625,-6.5453,-6.5035,-6.4959,-6.4959,-6.4959,-6.4959,-6.4959,-6.4959,-6.8632,-6.9893,-7.1938,-7.6774,-7.6384,-7.6774,-8.4291,-8.0191,-7.6677,-8.3412,-8.1314,0.0,0.0,-8.1802,-8.1802,-8.3949,-8.7073,-8.883,-8.7659,-8.7512,-8.7512,-8.7512,-8.7512,-8.7512,-8.7512,-8.9025,-9.0001,-9.0001,-9.0001,-9.0001,-9.0001,-9.0001,-9.0001,-9.0001,-9.0001,-9.0001,-9.0001,-9.0001,-8.9172,-8.7398,-8.6619,-8.5294,-8.3679,-8.1972,-7.9425,-7.6224,-7.639,-7.3974,-7.0027,-7.0934,-7.0824,-7.0009,-7.0009,-7.0009,-7.0009,-7.0009,-7.0009,-7.0009,-7.0009,-7.0009,-7.0009,-7.0009,-7.0009,-7.0009,-7.0009,-7.0009,-7.0009,-7.0009,-7.0009,-7.0009,-7.0009,-7.0009,-7.0009,-7.0009,-7.0009,-6.9743,-6.8718,-6.7921,-6.7161,-6.6136,-6.5415,-6.4959,-6.4959,-6.4959,-6.4959,-6.4959,-6.4959,-6.5035,-6.5225,-6.5832,-6.663,-6.7655,-6.8376,-6.9135,-6.9971,-7.0009,-7.0009,-7.0009,-7.0009,-6.9667,-6.8832,-6.8604,-6.7769,-6.625,-6.6022,-6.5605,-6.4959,-6.4959,-6.4959,-6.4959,-6.4959,-6.4959,-7.0137,-7.1357,-7.287,-7.5798,-7.5652,-7.5994,-8.0581,-7.8092,0.0,0.0,0.0,0.0,0.0,-8.351,-8.4193,-8.2387,-8.4877,-8.6634,-8.5413,-8.6097,-8.639,-8.5365,-8.7024,-8.7854,-8.6829,-8.8732,-9.0001,-9.0001,-9.0001,-9.0001,-9.0001,-9.0001,-9.0001,-9.0001,-9.0001,-9.0001,-9.0001,-9.0001,-8.8928,-8.6667,-8.5509,-8.3823,-8.1814,-7.9055,-7.6775,-7.4986,0.0,-7.2256,-7.0065,-7.0632,-7.0567,-7.0009,-7.0009,-7.0009,-7.0009,-7.0009,-7.0009,-7.0009,-7.0009,-7.0009,-7.0009,-7.0009,-7.0009,-7.0009,-7.0009,-7.0009,-7.0009,-7.0009,-7.0009,-7.0009,-7.0009,-7.0009,-7.0009,-7.0009,-7.0009,-6.9781,-6.8984,-6.8414,-6.7693,-6.6478,-6.587,-6.5415,-6.5035,-6.4959,-6.4959,-6.4959,-6.4959,-6.4959,-6.4959,-6.5377,-6.6098,-6.7313,-6.7883,-6.868,-6.9933,-7.0009,-7.0009,-7.0009,-7.0009,-6.9819,-6.9363,-6.8984,-6.8148,-6.682,-6.6402,-6.5832,-6.4959,-6.4959,-6.4959,-6.4959,-6.4959,-6.4959,-7.1552,-7.2821,-7.37,-7.4041,-7.3895,-7.4041,-7.5652,0.0,0.0,0.0,0.0,0.0,0.0,-8.5316,-8.6731,-8.1159,-8.185,-8.3168,-8.351,-8.5121,-8.556,-8.3754,-8.678,-8.8439,-8.6878,-8.8732,-9.0001,-9.0001,-9.0001,-9.0001,-9.0001,-9.0001,-9.0001,-9.0001,-9.0001,-9.0001,-9.0001,-9.0001,-8.8928,-8.6667,-8.4988,-8.3059,-8.0948,-7.6317,-7.4295,-7.4126,0.0,-7.0138,-7.0009,-7.01,-7.0138,-7.0009,-7.0009,-7.0009,-7.0009,-7.0009,-7.0009,-7.0009,-7.0009,-7.0009,-7.0009,-7.0009,-7.0009,-7.0009,-7.0009,-7.0009,-7.0009,-7.0009,-7.0009,-7.0009,-7.0009,-7.0009,-7.0009,-7.0009,-7.0009,-6.9819,-6.9135,-6.887,-6.8338,-6.6744,-6.6326,-6.5984,-6.5111,-6.4959,-6.4959,-6.4959,-6.4959,-6.4959,-6.4959,-6.4959,-6.5605,-6.7275,-6.7465,-6.8148,-6.9857,-7.0009,-7.0009,-7.0009,-7.0009,-7.0009,-7.0009,-6.9363,-6.849,-6.7465,-6.6782,-6.5946,-6.4959,-6.4959,-6.4959,-6.4959,-6.4959,-6.4959,-7.0912,-7.1698,-7.2967,-7.4822,-7.3895,-7.3553,-7.7409,0.0,0.0,0.0,-7.9849,-8.0337,-7.941,-8.0679,-8.1403,-8.0428,-8.0525,-8.146,-8.3266,-8.3803,-8.39,-8.3559,-8.4144,-8.5121,-8.6585,-8.8732,-9.0001,-9.0001,-9.0001,-9.0001,-9.0001,-9.0001,-9.0001,-9.0001,-9.0001,-9.0001,-9.0001,-9.0001,-8.8928,-8.6667,-8.267,-7.9618,-7.7459,-7.2848,-7.0762,-7.0817,-7.1326,0.0,-7.0027,-7.1031,-7.0924,-7.0009,-7.0009,-7.0009,-7.0009,-7.0009,-7.0009,-7.0009,-7.0009,-7.0009,-7.0009,-7.0009,-7.0009,-7.0009,-7.0009,-7.0009,-7.0009,-7.0009,-7.0009,-7.0009,-7.0009,-7.0009,-7.0009,-7.0009,-7.0009,-6.9971,-6.9857,-6.9287,-6.849,-6.7465,-6.6706,-6.5984,-6.5111,-6.4959,-6.4959,-6.4959,-6.4959,-6.4959,-6.4959,-6.4959,-6.5605,-6.7275,-6.7465,-6.8148,-6.9857,-7.0009,-7.0009,-7.0009,-7.0009,-7.0009,-7.0009,-6.9895,-6.9097,-6.7503,-6.7313,-6.6516,-6.4959,-6.4959,-6.4959,-6.4959,-6.4959,-6.4959,-7.0765,-7.1107,-7.1743,-7.2769,-7.3016,-7.3651,-7.5652,-7.5896,-7.6384,-7.8966,-7.994,-8.0087,-7.9599,-8.0972,-8.1704,-8.0428,-8.1314,-8.2436,-8.3412,-8.4535,-8.4828,-8.3705,-8.5609,-8.6975,-8.678,-8.8732,-9.0001,-9.0001,-9.0001,-9.0001,-9.0001,-9.0001,-9.0001,-9.0001,-9.0001,-9.0001,-9.0001,-9.0001,-8.8067,-8.4016,-8.1338,-7.8359,-7.4823,-7.1554,-7.0394,-7.0884,-7.0745,-7.0554,-6.9933,-7.0528,-7.0423,-7.0009,-7.0009,-7.0009,-7.0009,-7.0009,-7.0009,-7.0009,-7.0009,-7.0009,-7.0009,-7.0009,-7.0009,-7.0009,-7.0009,-7.0009,-7.0009,-7.0009,-7.0009,-7.0009,-7.0009,-7.0009,-7.0009,-7.0009,-7.0009,-7.0009,-7.0009,-6.9705,-6.9211,-6.8338,-6.7883,-6.7199,-6.587,-6.5643,-6.5491,-6.5035,-6.4959,-6.4959,-6.4959,-6.4959,-6.5605,-6.7275,-6.7465,-6.8148,-6.9857,-7.0009,-7.0009,-7.0009,-7.0009,-7.0009,-7.0009,-7.0009,-6.9629,-6.887,-6.7921,-6.663,-6.4959,-6.4959,-6.4959,-6.4959,-6.4959,-6.4959,-7.1694,0.0,-7.2967,-7.2967,-7.3797,-7.4725,0.0,-7.5945,-7.7311,-7.9215,-7.9892,-8.0087,-7.9599,-8.1362,-8.2094,-7.9947,-8.1802,-8.3363,-8.2875,-8.4633,-8.5365,-8.3754,-8.6926,-8.8781,-8.761,-8.9025,-9.0001,-9.0001,-9.0001,-9.0001,-9.0001,-9.0001,-9.0001,-9.0001,-9.0001,-9.0001,-9.0001,-8.9249,-8.669,-8.2577,-8.0092,-7.7242,-7.422,-7.1229,-7.058,-7.1671,-7.0515,-7.0009,-7.0009,-7.0009,-7.0009,-7.0009,-7.0009,-7.0009,-7.0009,-7.0009,-7.0009,-7.0009,-7.0009,-7.0009,-7.0009,-7.0009,-7.0009,-7.0009,-7.0009,-7.0009,-7.0009,-7.0009,-7.0009,-7.0009,-7.0009,-7.0009,-7.0009,-7.0009,-7.0009,-7.0009,-7.0009,-7.0009,-6.9781,-6.8946,-6.8794,-6.83,-6.6782,-6.6364,-6.6022,-6.5377,-6.5111,-6.4959,-6.4959,-6.4959,-6.5605,-6.7275,-6.7465,-6.8148,-6.9857,-7.0009,-7.0009,-7.0009,-7.0009,-7.0009,-7.0009,-7.0009,-7.0009,-7.0009,-6.8338,-6.682,-6.5567,-6.5149,-6.4959,-6.4959,-6.4959,-6.4959,0.0,-7.7409,-7.9551,-7.9551,-7.8288,-7.7165,-7.819,-7.697,0.0,-7.7165,-7.8971,-7.9648,-7.7751,-7.9117,-7.9794,-7.7751,-8.0874,-8.2875,-8.0769,-8.2436,-8.3705,-8.3559,-8.556,-8.7707,-8.9611,-8.9904,-9.0001,-9.0001,-9.0001,-9.0001,-9.0001,-9.0001,-9.0001,-9.0001,-9.0001,-9.0001,-9.0001,-8.6854,-8.5034,-8.4654,-7.8335,-7.5731,-7.64,-7.2038,-7.058,-7.1671,-7.0515,-7.0009,-7.0009,-7.0009,-7.0009,-7.0009,-7.0009,-7.0009,-7.0009,-7.0009,-7.0009,-7.0009,-7.0009,-7.0009,-7.0009,-7.0009,-7.0009,-7.0009,-7.0009,-7.0009,-7.0009,-7.0009,-7.0009,-7.0009,-7.0009,-7.0009,-7.0009,-7.0009,-7.0009,-7.0009,-7.0009,-7.0009,-6.9781,-6.8946,-6.8794,-6.849,-6.7541,-6.6744,-6.6212,-6.6136,-6.5491,-6.4959,-6.4959,-6.4959,-6.5605,-6.7275,-6.7465,-6.8148,-6.9857,-7.0009,-7.0009,-7.0009,-7.0009,-7.0009,-7.0009,-7.0009,-7.0009,-7.0009,-6.8338,-6.7389,-6.7275,-6.5718,-6.4959,-6.4959,-6.4959,-6.4959,-7.5847,-7.8434,-8.0233,-8.0233,-8.024,-7.9898,-7.8971,-7.8629,-7.8288,-7.736,-7.7799,-7.8141,-7.7311,-7.7799,-7.8532,-7.9068,-8.0484,-8.2192,-8.3986,-8.5023,-8.6048,-8.7415,-8.8293,-8.9123,-8.9953,-8.8781,-8.8537,-8.9904,-8.8732,-8.8586,-8.9953,-9.0001,-8.8139,-8.3914,-8.5776,-8.5896,-8.3914,-8.2524,-8.092,-7.8755,-7.6266,-7.4596,-7.3569,-7.1124,-7.058,-7.1671,-7.0515,-7.0409,0.0,-7.034,-7.037,-7.0983,-7.0209,-7.0009,-7.0009,-7.0009,-7.0009,-7.0009,-7.0009,-7.0009,-7.0009,-7.0009,-7.0009,-7.0009,-7.0009,-7.0009,-7.0009,-7.0009,-7.0009,-7.0009,-7.0009,-7.0009,-7.0009,-7.0009,-7.0009,-7.0009,-7.0009,-7.0009,-6.9933,-6.9629,-6.9553,-6.9287,-6.8452,-6.8034,-6.7465,-6.6402,-6.5946,-6.5567,-6.5035,-6.5415,-6.6174,-6.7313,-6.7958,-6.8756,-6.9933,-7.0009,-7.0009,-7.0009,-7.0009,-7.0009,-7.0009,-7.0009,-7.0009,-7.0009,-6.8338,-6.7465,-6.7465,-6.5794,-6.4959,-6.4959,-6.4959,-6.4959,-7.9068,-8.1509,-8.3304,-8.3304,-8.3461,-8.2924,-8.0777,-8.0337,-7.9648,-7.7604,-7.7165,-7.7165,-7.7165,-7.7165,-7.7848,-7.9892,-8.0233,0.0,-8.5218,-8.5706,-8.6536,-8.8732,-8.8976,-8.9269,-8.9953,-8.8684,-8.8391,-8.9904,-8.7613,-8.684,-8.8327,-8.8375,-8.6256,-8.1786,-8.2769,-8.2401,-8.0049,-7.9049,-7.7283,-7.5027,-7.3908,-7.2856,-7.163,-7.0476,-7.058,-7.1671,-7.0515,-7.0671,-7.1586,-7.0423,-7.0632,-7.1627,-7.0462,-7.0009,-7.0009,-7.0009,-7.0009,-7.0009,-7.0009,-7.0009,-7.0009,-7.0009,-7.0009,-7.0009,-7.0009,-7.0009,-7.0009,-7.0009,-7.0009,-7.0009,-7.0009,-7.0009,-7.0009,-7.0009,-7.0009,-7.0009,-7.0009,-7.0009,-7.0009,-7.0009,-7.0009,-6.9857,-6.9287,-6.8984,-6.83,-6.6857,-6.6402,-6.5908,-6.5073,-6.5718,-6.6554,-6.7351,-6.8262,-6.9135,-6.9971,-7.0009,-7.0009,-7.0009,-7.0009,-7.0009,-7.0009,-7.0009,-7.0009,-7.0009,-6.8338,-6.7465,-6.7465,-6.5794,-6.4959,-6.4959,-6.4959,-6.4959,-8.4535,-8.7512,-9.0001,-9.0001,-8.8391,-8.6194,-8.4047,-8.1899,-7.9697,-7.7604,-7.7165,-7.7165,-7.7165,-7.7165,-7.7848,-7.9892,0.0,0.0,-8.3266,-8.3559,-8.4388,-8.6536,-8.678,-8.761,-8.9757,-9.0001,-9.0001,-8.9884,-8.6854,-8.496,-8.5006,-8.4885,-8.4885,-8.4764,-8.1662,-8.0049,-7.9925,-7.6648,-7.4899,-7.4899,-7.1512,-7.0619,-7.1671,-7.0476,-7.058,-7.1586,-7.0515,-7.0671,0.0,-7.0423,-7.0722,-7.1627,-7.0462,-7.0009,-7.0009,-7.0009,-7.0009,-7.0009,-7.0009,-7.0009,-7.0009,-7.0009,-7.0009,-7.0009,-7.0009,-7.0009,-7.0009,-7.0009,-7.0009,-7.0009,-7.0009,-7.0009,-7.0009,-7.0009,-7.0009,-7.0009,-7.0009,-7.0009,-7.0009,-7.0009,-7.0009,-7.0009,-7.0009,-6.9325,-6.849,-6.7579,-6.6782,-6.5946,-6.5111,-6.5718,-6.6554,-6.7389,-6.83,-6.9135,-6.9971,-7.0009,-7.0009,-7.0009,-7.0009,-7.0009,-7.0009,-7.0009,-7.0009,-7.0009,-6.8338,-6.7465,-6.7465,-6.5794,-6.4959,-6.4959,-6.4959,-6.4959,-8.3656,-8.6975,-9.0001,-9.0001,-8.9513,-8.8098,-8.4388,-8.3071,-8.1558,-7.7897,-7.7165,-7.7165,-7.7165,-7.7165,-7.7848,0.0,0.0,-8.15,-8.5267,-8.5804,-8.6585,-8.8781,-8.9074,-8.8684,-8.7805,-8.7707,-8.6744,-8.445,-8.335,-8.3362,-8.4914,-8.2769,-7.9299,-7.4513,-7.5796,-7.5412,-7.304,-7.2036,-7.1512,-7.1381,-7.0537,-7.0138,-7.0515,-7.0176,-7.01,-7.0554,-7.0176,-7.108,-7.2742,-7.0785,-7.1128,-7.2706,-7.0734,-7.0009,-7.0009,-7.0009,-7.0009,-7.0009,-7.0009,-7.0009,-7.0009,-7.0009,-7.0009,-7.0009,-7.0009,-7.0009,-7.0009,-7.0009,-7.0009,-7.0009,-7.0009,-7.0009,-7.0009,-7.0009,-7.0009,-7.0009,-7.0009,-7.0009,-7.0009,-7.0009,-7.0009,-7.0009,-7.0009,-6.9819,-6.9363,-6.8528,-6.8186,-6.7731,-6.682,-6.7503,-6.8148,-6.8376,-6.9705,-7.0388,-7.0047,-7.0009,-7.0009,-7.0009,-7.0009,-7.0009,-7.0009,-7.0009,-7.0009,-7.0009,-6.8338,-6.7465,-6.7465,-6.5794,-6.4959,-6.4959,-6.4959,-6.4959,-8.5706,-8.8049,-9.0001,-9.0001,-9.0001,-8.9123,-8.5609,-8.4144,-8.2583,-7.9166,-7.7751,-7.7409,-7.8288,-7.8434,-7.9117,0.0,0.0,0.0,-8.4974,-8.5462,-8.6292,-8.8439,-8.8732,-8.8537,-8.8098,-8.6032,-8.4348,-8.3111,-8.1851,-8.1629,-8.2969,-7.9925,-7.618,-7.2167,-7.2649,-7.2036,-7.0009,-7.0009,-7.0009,-7.0009,-7.0009,-7.0009,-7.0009,-7.0009,-7.0009,-7.0009,-7.0009,-7.1031,-7.2676,-7.0734,-7.1119,-7.264,-7.0683,-7.0009,-7.0009,-7.0009,-7.0009,-7.0009,-7.0009,-7.0009,-7.0009,-7.0009,-7.0009,-7.0009,-7.0009,-7.0009,-7.0009,-7.0009,-7.0009,-7.0009,-7.0009,-7.0009,-7.0009,-7.0009,-7.0009,-7.0009,-7.0009,-7.0009,-7.0009,-7.0009,-7.0009,-7.0009,-7.0009,-7.0009,-6.9743,-6.8908,-6.8794,-6.8604,-6.8072,-6.8756,-6.9287,-6.9287,-7.0502,-7.1072,-7.0578,-7.0198,-7.0009,-7.0009,-7.0009,-7.0009,-7.0009,-7.0009,-7.0009,-7.0009,-6.8338,-6.7465,-6.7465,-6.5794,-6.4959,-6.4959,-6.4959,-6.4959,-8.922,-8.9855,-9.0001,-9.0001,-9.0001,-8.9416,-8.6975,-8.4925,-8.2875,-8.0533,-7.8532,-7.7751,-7.9599,-7.994,-8.0826,-8.3168,-8.1899,-8.1411,-8.351,-8.3852,-8.4584,-8.6487,-8.6731,-8.7398,-8.9047,-8.4755,-8.2388,-8.3579,-8.1273,-7.9751,-7.9675,-7.6648,-7.4899,-7.4553,-7.1512,-7.0009,-7.0009,-7.0009,-7.0009,-7.0009,-7.0009,-7.0009,-7.0009,-7.0009,-7.0009,-7.0009,-7.0009,-7.0671,-7.1586,-7.0423,-7.0632,-7.1627,-7.0462,-7.0009,-7.0009,-7.0009,-7.0009,-7.0009,-7.0009,-7.0009,-7.0009,-7.0009,-7.0009,-7.0009,-7.0009,-7.0009,-7.0009,-7.0009,-7.0009,-7.0009,-7.0009,-7.0009,-7.0009,-7.0009,-7.0009,-7.0009,-7.0009,-7.0009,-7.0009,-7.0009,-7.0009,-7.0009,-7.0009,-7.0009,-6.9781,-6.9022,-6.8908,-6.8946,-6.9022,-6.9667,-7.016,-7.0236,-7.092,-7.1337,-7.1186,-7.0464,-7.0009,-7.0009,-7.0009,-7.0009,-7.0009,-7.0009,-6.9971,-6.9895,-6.83,-6.7427,-6.7351,-6.5756,-6.4959,-6.4959,-6.4959,-6.4959,-8.7561,-8.8732,-9.0001,-9.0001,-9.0001,-8.8976,-8.5121,-8.3852,-8.2436,-7.8629,-7.7458,-7.7311,-7.7751,-7.7848,-7.9068,-8.2924,-8.3168,-8.3608,-8.5755,-8.6048,-8.6243,-8.6682,-8.6731,-8.5857,-8.3772,-8.2466,-7.9859,-7.4931,-7.6403,-7.7088,-7.6224,-7.5412,-7.3778,-7.1157,-7.0405,-7.0009,-7.0009,-7.0009,-7.0009,-7.0009,-7.0009,-7.0009,-7.0009,-7.0009,-7.0009,-7.0009,-7.0009,-7.0671,-7.1586,-7.0423,-7.0632,-7.1627,-7.0462,-7.0009,-7.0009,-7.0009,-7.0009,-7.0009,-7.0009,-7.0009,-7.0009,-7.0009,-7.0009,-7.0009,-7.0009,-7.0009,-7.0009,-7.0009,-7.0009,-7.0009,-7.0009,-7.0009,-7.0009,-7.0009,-7.0009,-7.0009,-7.0009,-7.0009,-7.0009,-7.0009,-7.0009,-7.0009,-7.0009,-7.0009,-6.9971,-6.9781,-6.9743,-7.0009,-7.0654,-7.092,-7.1261,-7.1907,-7.2135,-7.1717,-7.0388,-7.0123,-7.0009,-7.0009,-7.0009,-7.0009,-7.0009,-7.0009,-6.9705,-6.9059,-6.7996,-6.7123,-6.6478,-6.5453,-6.4959,-6.4959,-6.4959,-6.4959,-8.717,-8.8342,-9.0001,-9.0001,-9.0001,-8.9416,-8.717,-8.5853,-8.4144,-8.0874,-7.941,-7.8678,-7.8678,-7.8678,-7.9752,-8.3022,-8.3559,-8.3559,-8.3656,-8.5462,-8.6341,-8.5316,-8.6097,-8.5821,-8.3579,-8.0977,-7.7765,-7.3684,-7.498,-7.5018,-7.274,-7.4166,-7.3519,-7.0141,-7.0009,-7.0009,-7.0009,-7.0009,-7.0009,-7.0009,-7.0009,-7.0009,-7.0009,-7.0009,-7.0009,-7.0009,-7.0009,-7.0394,-7.0874,-7.0286,-7.0355,-7.0874,-7.0155,-7.0009,-7.0009,-7.0009,-7.0009,-7.0009,-7.0009,-7.0009,-7.0009,-7.0009,-7.0009,-7.0009,-7.0009,-7.0009,-7.0009,-7.0009,-7.0009,-7.0009,-7.0009,-7.0009,-7.0009,-7.0009,-7.0009,-7.0009,-7.0009,-7.0009,-7.0009,-7.0009,-7.0009,-7.0009,-7.0009,-7.0009,-7.0009,-7.0009,-7.0009,-7.0464,-7.1717,-7.0844,-7.0578,-7.1793,-7.1565,-7.111,-7.0654,-7.0236,-7.0009,-7.0009,-7.0009,-7.0009,-7.0009,-7.0009,-6.9629,-6.8832,-6.7921,-6.7047,-6.625,-6.5377,-6.4959,-6.4959,-6.4959,-6.4959,-8.7707,-8.8635,-9.0001,-9.0001,-9.0001,-8.9904,-8.9562,-8.8049,-8.6146,-8.3998,-8.2143,-8.0672,-8.033,-8.0233,-8.1013,-8.3461,-8.3803,-8.3363,-8.1841,-8.4779,-8.6292,-8.434,-8.5657,-8.6254,-8.5062,-8.0877,-7.7328,-7.5161,-7.4614,-7.3208,-7.0432,-7.2951,-7.307,-7.0141,-7.0009,-7.0009,-7.0009,-7.0009,-7.0009,-7.0009,-7.0009,-7.0009,-7.0009,-7.0009,-7.0121,-7.0209,-7.0027,-7.0082,-7.0209,-7.0027,-7.0009,-7.0009,-7.0009,-7.0009,-7.0009,-7.0009,-7.0009,-7.0009,-7.0009,-7.0009,-7.0009,-7.0009,-7.0009,-7.0009,-7.0009,-7.0009,-7.0009,-7.0009,-7.0009,-7.0009,-7.0009,-7.0009,-7.0009,-7.0009,-7.0009,-7.0009,-7.0009,-7.0009,-7.0009,-7.0009,-7.0009,-7.0009,-7.0009,-7.0009,-7.0009,-7.0009,-6.9895,-7.035,-7.1869,-7.016,-6.9401,-7.092,-7.0426,-7.0312,-7.0996,-7.0426,-7.0009,-7.0009,-7.0009,-7.0009,-7.0009,-6.9895,-6.9401,-6.8604,-6.7693,-6.682,-6.6022,-6.5301,-6.4959,-6.4959,-6.4959,-6.4959,-8.9172,-8.9806,-9.0001,-9.0001,-9.0001,-8.9513,-8.761,-8.6975,-8.6146,-8.3998,-8.3315,-8.2534,-8.0574,-8.0233,-8.1257,-8.4437,-8.4925,-8.5511,-8.7122,-8.7854,-8.7707,-8.6487,-8.6585,-8.6254,-8.5062,-8.4246,-8.1351,-7.554,-7.318,-7.1953,-7.1453,-7.1953,-7.1453,-6.9971,-7.0009,-7.0009,-7.0009,-7.0009,-7.0009,-7.0009,-7.0009,-7.0009,-7.0009,-7.0009,-7.0567,-7.1407,-7.037,-7.0528,-7.1447,-7.0409,-7.0009,-7.0009,-7.0009,-7.0009,-7.0009,-7.0009,-7.0009,-7.0009,-7.0009,-7.0009,-7.0009,-7.0009,-7.0009,-7.0009,-7.0009,-7.0009,-7.0009,-7.0009,-7.0009,-7.0009,-7.0009,-7.0009,-7.0009,-7.0009,-7.0009,-7.0009,-7.0009,-7.0009,-7.0009,-7.0009,-7.0009,-7.0009,-7.0009,-7.0009,-7.0009,-7.0009,-6.9401,-6.9287,-7.0236,-6.9439,-6.9173,-7.0085,-7.0085,-7.0047,-7.016,-7.0085,-7.0009,-7.0009,-7.0009,-7.0009,-7.0009,-6.9325,-6.8528,-6.7655,-6.682,-6.5984,-6.5149,-6.5035,-6.4959,-6.4959,-6.4959,-6.4959,-8.6438,-8.8147,-9.0001,-9.0001,-9.0001,-8.9757,-8.883,-8.8586,-8.7951,-8.5804,-8.4877,-8.3803,-8.1655,-8.0289,-8.0728,-8.4535,-8.3608,-8.3656,-8.7024,-8.6438,-8.595,-8.6682,-8.6731,-8.6254,-8.5062,-8.3259,-8.0436,-7.6266,-7.4477,-7.2743,-7.0902,-7.0734,-7.0476,-6.9971,-7.0009,-7.0009,-7.0009,-7.0009,-7.0009,-7.0009,-7.0009,-7.0009,-7.0009,-7.0009,-7.0247,-7.0683,-7.0193,-7.0209,-7.0683,-7.0193,-7.0009,-7.0009,-7.0009,-7.0009,-7.0009,-7.0009,-7.0009,-7.0009,-7.0009,-7.0009,-7.0009,-7.0009,-7.0009,-7.0009,-7.0009,-7.0009,-7.0009,-7.0009,-7.0009,-7.0009,-7.0009,-7.0009,-7.0009,-7.0009,-7.0009,-7.0009,-7.0009,-7.0009,-7.0009,-7.0009,-7.0009,-7.0009,-7.0009,-7.0009,-6.9857,-6.9401,-6.9022,-6.8566,-6.7958,-6.7161,-6.6971,-6.7807,-6.83,-6.8794,-6.9287,-6.9743,-7.0009,-7.0009,-7.0009,-6.9819,-6.9363,-6.8984,-6.8148,-6.6782,-6.6402,-6.5832,-6.4959,-6.4959,-6.4959,-6.4959,-6.4959,-6.4959,-8.4486,-8.6731,-8.9318,-8.9855,-9.0001,-9.0001,-9.0001,-9.0001,-8.9562,-8.7903,-8.6926,-8.5706,-8.3559,-8.185,-8.1948,-8.5413,-8.3949,-8.3596,-8.7463,-8.5908,-8.4957,-8.6521,-8.5891,-8.5249,-8.4686,-8.2096,-7.9521,-7.7204,-7.5522,-7.3337,-7.0631,-7.037,-7.0302,-7.0009,-7.0009,-7.0009,-7.0009,-7.0009,-7.0009,-7.0009,-7.0009,-7.0009,-7.0009,-7.0009,-7.0138,-7.037,-7.0082,-7.0138,-7.0409,-7.0082,-7.0009,-7.0009,-7.0009,-7.0009,-7.0009,-7.0009,-7.0009,-7.0009,-7.0009,-7.0009,-7.0009,-7.0009,-7.0009,-7.0009,-7.0009,-7.0009,-7.0009,-7.0009,-7.0009,-7.0009,-7.0009,-7.0009,-7.0009,-7.0009,-7.0009,-7.0009,-7.0009,-7.0009,-7.0009,-7.0009,-7.0009,-7.0009,-7.0009,-7.0009,-6.9743,-6.8908,-6.8604,-6.7845,-6.6136,-6.5377,-6.5301,-6.6136,-6.6971,-6.7807,-6.8718,-6.9553,-7.0009,-7.0009,-7.0009,-6.9667,-6.8832,-6.8566,-6.7769,-6.625,-6.6022,-6.5605,-6.4959,-6.4959,-6.4959,-6.4959,-6.4959,-6.4959,-8.5511,-8.6731,-8.7415,-8.9513,-9.0001,-9.0001,-9.0001,-9.0001,-9.0001,-8.9855,-8.9806,-8.9123,-8.6878,-8.639,-8.6731,-8.8049,-8.8098,-8.8781,-9.0957,-8.8492,-8.6637,-8.6733,-8.4016,-8.2527,-8.3609,-8.252,-8.0649,-7.8027,-7.5022,-7.2766,-7.1667,-7.1586,-7.1167,-6.9971,-7.0009,-7.0009,-7.0009,-7.0009,-7.0009,-7.0009,-7.0009,-7.0009,-7.0009,-7.0009,-7.0619,-7.1582,-7.0423,-7.058,-7.1498,-7.0462,-7.0009,-7.0009,-7.0009,-7.0009,-7.0009,-7.0009,-7.0009,-7.0009,-7.0009,-7.0009,-7.0009,-7.0009,-7.0009,-7.0009,-7.0009,-7.0009,-7.0009,-7.0009,-7.0009,-7.0009,-7.0009,-7.0009,-7.0009,-7.0009,-7.0009,-7.0009,-7.0009,-7.0009,-7.0009,-7.0009,-7.0009,-7.0009,-7.0009,-7.0009,-6.9743,-6.8908,-6.8072,-6.6933,-6.5263,-6.4997,-6.5301,-6.6136,-6.6971,-6.7807,-6.8718,-6.9553,-7.0009,-7.0009,-7.0009,-6.9667,-6.8832,-6.7958,-6.7123,-6.625,-6.5453,-6.4997,-6.4959,-6.4959,-6.4959,-6.4959,-6.4959,-6.4959,-8.2475,-8.4633,-8.6926,-8.7707,-8.8976,-9.0001,-9.0001,-9.0001,-9.0001,-9.0001,-8.9464,-8.8732,-8.7951,-8.6682,-8.6292,-8.8147,-8.6682,-8.6536,-9.0099,-8.7227,-8.4876,-8.558,-8.398,-8.2795,-8.2215,-7.8917,-7.65,-7.5201,-7.313,-7.1512,-7.0658,-7.058,-7.037,-7.0009,-7.0009,-7.0009,-7.0009,-7.0009,-7.0009,-7.0009,-7.0009,-7.0009,-7.0009,-7.0009,-7.0193,-7.0619,-7.0138,-7.0155,-7.0528,-7.0138,-7.0009,-7.0009,-7.0009,-7.0009,-7.0009,-7.0009,-7.0009,-7.0009,-7.0009,-7.0009,-7.0009,-7.0009,-7.0009,-7.0009,-7.0009,-7.0009,-7.0009,-7.0009,-7.0009,-7.0009,-7.0009,-7.0009,-7.0009,-7.0009,-7.0009,-7.0009,-7.0009,-7.0009,-7.0009,-7.0009,-7.0009,-7.0009,-7.0009,-7.0009,-6.9553,-6.8148,-6.7199,-6.625,-6.5111,-6.4959,-6.5073,-6.5377,-6.6174,-6.6782,-6.7123,-6.8414,-6.9211,-6.9211,-6.9211,-6.8832,-6.7958,-6.7123,-6.6288,-6.5453,-6.5111,-6.4959,-6.4959,-6.4959,-6.4959,-6.4959,-6.4959,-6.4959,-8.2241,-8.351,-8.5462,-8.6926,-8.8147,-8.9123,-8.9855,-9.0001,-9.0001,-9.0001,-8.9464,-8.8976,-8.8976,-8.7756,-8.7268,-8.8732,-8.7463,-8.7268,-9.0148,-8.742,-8.5515,-8.6499,-8.4051,-8.2095,-8.1583,-7.7325,-7.4445,-7.3612,-7.2402,-7.1337,-7.0502,-7.016,-7.0009,-7.0009,-7.0009,-7.0009,-7.0009,-7.0009,-7.0009,-7.0009,-7.0009,-7.0009,-7.0009,-7.0009,-7.0009,-7.0009,-7.0009,-7.0009,-7.0009,-7.0009,-7.0009,-7.0009,-7.0009,-7.0009,-7.0009,-7.0009,-7.0009,-7.0009,-7.0009,-7.0009,-7.0009,-7.0009,-7.0009,-7.0009,-7.0009,-7.0009,-7.0009,-7.0009,-7.0009,-7.0009,-7.0009,-7.0009,-7.0009,-7.0009,-7.0009,-7.0009,-7.0009,-7.0009,-7.0009,-7.0009,-6.9781,-6.9591,-6.9591,-6.9363,-6.8756,-6.7617,-6.6744,-6.5908,-6.5073,-6.4959,-6.4959,-6.4959,-6.5718,-6.625,-6.625,-6.7541,-6.849,-6.8794,-6.8528,-6.8072,-6.7465,-6.6668,-6.5832,-6.4997,-6.4959,-6.4959,-6.4959,-6.4959,-6.4959,-6.4959,-6.4959,-6.4807,-8.473,-8.3559,-8.3227,-8.7317,-8.761,-8.7463,-8.9562,-9.005,-9.005,-9.0001,-9.0001,-9.0001,-9.0001,-8.9953,-8.9953,-8.9933,-9.0643,-9.1276,-9.1254,-8.9554,-8.8553,-8.9588,-8.3914,-8.0353,-8.1769,-7.8011,-7.5023,-7.3703,-7.2894,-7.2097,-7.1299,-7.0464,-7.0009,-7.0009,-7.0009,-7.0009,-7.0009,-7.0009,-7.0009,-7.0009,-7.0009,-7.0009,-7.0009,-7.0009,-7.0009,-7.0009,-7.0009,-7.0009,-7.0009,-7.0009,-7.0009,-7.0009,-7.0009,-7.0009,-7.0009,-7.0009,-7.0009,-7.0009,-7.0009,-7.0009,-7.0009,-7.0009,-7.0009,-7.0009,-7.0009,-7.0009,-7.0009,-7.0009,-7.0009,-6.9971,-7.0009,-7.0009,-6.9971,-7.0009,-7.0009,-6.9971,-6.9971,-6.9971,-6.9933,-6.9933,-6.9287,-6.8756,-6.8756,-6.8034,-6.7427,-6.7427,-6.6706,-6.5908,-6.5073,-6.4959,-6.4959,-6.4959,-6.5718,-6.6212,-6.6212,-6.6933,-6.7731,-6.8642,-6.7845,-6.7351,-6.7389,-6.6592,-6.5794,-6.4997,-6.4959,-6.4959,-6.4959,-6.4959,-6.4921,-6.4921,-6.4883,-6.4466,-8.1257,-8.351,-8.5706,-8.6926,-8.8732,-9.0323,-9.1026,-9.1173,-9.0977,-9.0197,-9.0001,-9.0001,-9.0001,-8.8732,-8.7584,-8.7369,-8.623,-8.5294,-8.4976,-8.6698,-8.72,-8.5102,-8.3873,-8.2427,-8.0474,-7.6068,-7.3372,-7.3238,-7.2333,-7.1261,-7.0426,-7.016,-7.0009,-7.0009,-7.0009,-7.0009,-7.0009,-7.0009,-7.0009,-7.0009,-7.0009,-7.0009,-7.0009,-7.0009,-7.0009,-7.0009,-7.0009,-7.0009,-7.0009,-7.0009,-7.0009,-7.0009,-7.0009,-7.0009,-7.0009,-7.0009,-7.0009,-7.0009,-7.0009,-7.0009,-7.0009,-7.0009,-7.0009,-7.0009,-7.0009,-7.0009,-7.0009,-7.0009,-6.9591,-6.9287,-6.9857,-6.9591,-6.9287,-6.9857,-6.9553,-6.9135,-6.9135,-6.8642,-6.8148,-6.8148,-6.7958,-6.7807,-6.7807,-6.7617,-6.7237,-6.6668,-6.587,-6.5225,-6.4997,-6.4959,-6.4959,-6.4959,-6.5187,-6.5301,-6.5301,-6.5529,-6.5756,-6.5984,-6.5225,-6.5035,-6.5643,-6.4883,-6.458,-6.4959,-6.4959,-6.4959,-6.4959,-6.4352,-6.4086,-6.4086,-6.3479,-6.3099,-8.119,-8.2534,-8.351,-8.384,-8.6194,-8.8147,-8.7659,-8.9318,-9.0636,-8.9562,-9.005,-9.0831,-9.1222,-9.0294,-8.9297,-8.9155,-8.8034,-8.6708,-8.5046,-8.6709,-8.6709,-8.3352,-8.3528,-8.3068,-8.1182,-7.5783,-7.2547,-7.2821,-7.195,-7.1072,-7.0578,-7.0198,-7.0009,-7.0009,-7.0009,-7.0009,-7.0009,-7.0009,-7.0009,-7.0009,-7.0009,-7.0009,-7.0009,-7.0009,-7.0009,-7.0009,-7.0009,-7.0009,-7.0009,-7.0009,-7.0009,-7.0009,-7.0009,-7.0009,-7.0009,-7.0009,-7.0009,-7.0009,-7.0009,-6.9781,-6.9553,-6.9895,-6.9515,-6.9022,-6.9401,-6.9249,-6.8946,-6.8946,-6.8604,-6.8338,-6.8832,-6.8604,-6.8376,-6.8832,-6.8566,-6.8224,-6.8224,-6.7807,-6.7465,-6.7465,-6.7161,-6.6933,-6.6933,-6.663,-6.625,-6.5756,-6.5263,-6.4959,-6.4959,-6.4959,-6.4959,-6.4959,-6.4959,-6.4845,-6.4504,-6.4466,-6.4466,-6.4466,-6.3706,-6.3592,-6.4428,-6.3668,-6.3479,-6.3934,-6.3934,-6.3782,-6.3403,-6.3289,-6.3061,-6.2719,-6.2605,-6.215,-8.2227,-8.0826,-7.9068,-8.0282,-8.2241,-8.3461,0.0,-8.6048,-8.9172,-8.8098,-8.9367,-9.0977,-9.1905,-9.2051,-9.2029,-9.2009,-9.1936,-9.094,-8.8089,-8.8011,-8.6869,-8.3301,-8.2274,-8.1931,-8.2061,-7.6144,-7.2249,-7.2362,-7.1603,-7.1148,-7.1148,-7.0426,-7.0065,-7.01,-7.0027,-7.0065,-7.01,-7.0065,-7.0009,-7.0009,-7.0009,-7.0009,-7.0009,-7.0009,-7.0009,-7.0009,-7.0009,-7.0009,-7.0009,-7.0009,-7.0009,-7.0009,-7.0009,-6.9971,-6.9895,-6.9895,-6.9819,-6.9743,-6.9743,-6.9249,-6.8756,-6.9477,-6.868,-6.7579,-6.8414,-6.8034,-6.7313,-6.7313,-6.7161,-6.7085,-6.7275,-6.7237,-6.7237,-6.7389,-6.7389,-6.7313,-6.7313,-6.7237,-6.7161,-6.7161,-6.6592,-6.6098,-6.6098,-6.5453,-6.4959,-6.4959,-6.4959,-6.4959,-6.4959,-6.4959,-6.4959,-6.4959,-6.4883,-6.4542,-6.382,-6.3592,-6.3479,-6.3479,-6.2719,-6.2605,-6.3441,-6.2757,-6.2378,-6.2378,-6.2378,-6.196,-6.1125,-6.177,-6.177,-6.1125,-6.1808,-6.1314,0.0,0.0,0.0,0.0,0.0,0.0,0.0,-8.5316,-8.5804,-8.473,-8.4828,-8.5169,-8.5365,-8.5413,-8.5295,-8.5013,-8.4911,-8.466,-8.3641,-8.6077,-8.6162,-8.1292,-7.8212,-7.6838,-7.7452,-7.3161,-7.0768,-7.1451,-7.073,-7.0274,-7.0274,-7.0123,-7.037,-7.1315,-7.0423,-7.0462,-7.1402,-7.0462,-7.0009,-7.0009,-7.0009,-7.0009,-7.0009,-7.0009,-7.0009,-7.0009,-7.0009,-7.0009,-7.0009,-7.0009,-7.0009,-7.0009,-7.0009,-6.9629,-6.9022,-6.9022,-6.8566,-6.7958,-6.7958,-6.7845,-6.7731,-6.7883,-6.7731,-6.7503,-6.7655,-6.7123,-6.6478,-6.6478,-6.5491,-6.4769,-6.6136,-6.5946,-6.5794,-6.7123,-6.6933,-6.6478,-6.6478,-6.5946,-6.5453,-6.5453,-6.5301,-6.5225,-6.5225,-6.5073,-6.4959,-6.4959,-6.4959,-6.4959,-6.4959,-6.4959,-6.4959,-6.4959,-6.439,-6.3934,-6.3744,-6.2529,-6.1732,-6.1732,-6.0973,-6.0897,-6.1732,-6.158,-6.1504,-6.1504,-6.1504,-6.1087,-6.0289,-5.972,-5.972,-6.0251,-5.972,-5.9264,0.0,0.0,0.0,0.0,0.0,0.0,0.0,0.0,0.0,0.0,0.0,-8.3071,-8.4144,0.0,-8.5245,-8.5713,-8.5695,-8.5294,-8.394,-8.4795,-8.507,-8.3546,-8.0961,-7.8738,-7.7325,-7.4384,-7.1969,-7.0749,-7.0274,-7.0009,-7.0009,-7.0567,-7.1167,-7.1755,-7.1128,-7.1167,-7.1714,-7.0528,-7.0009,-7.0009,-7.0009,-7.0009,-7.0009,-7.0009,-7.0009,-7.0009,-7.0009,-7.0009,-7.0009,-7.0009,-7.0009,-6.9933,-6.9059,-6.849,-6.8329,-6.9271,-6.8697,-6.7643,-6.8657,-6.8039,-6.6895,-6.7313,-6.6895,-6.6288,-6.6706,-6.625,-6.5605,-6.5605,-6.4997,-6.4542,-6.5377,-6.5301,-6.5187,-6.6022,-6.5908,-6.5605,-6.5605,-6.5263,-6.4959,-6.4959,-6.4959,-6.4959,-6.4959,-6.4959,-6.4959,-6.4959,-6.4959,-6.4959,-6.4959,-6.4617,-6.4646,-6.5622,-6.4058,-6.3928,-6.6335,-6.4464,-6.3775,-6.545,-6.4828,-6.3878,-6.2789,-6.3585,-6.2788,-5.9986,-6.0875,-6.0215,-5.8125,-5.8087,-5.8087,-5.8125,-5.767,-5.767,0.0,0.0,0.0,0.0,0.0,0.0,0.0,0.0,0.0,0.0,0.0,0.0,0.0,0.0,0.0,-8.6926,-8.7366,-8.6937,-8.5459,-8.4402,-8.4447,-8.6441,-8.461,-8.197,-7.928,-7.6943,-7.427,-7.0887,-7.0817,-7.0631,-7.0009,-7.0924,-7.1453,-7.1714,-7.1578,-7.1453,-7.1714,-7.0528,-7.0009,-7.0009,-7.0009,0.0,-7.0009,-7.0009,-7.0082,-7.0302,-7.0121,-7.0082,-7.0302,-6.9968,-6.9781,-6.9629,-6.8676,-6.8317,-6.8454,-6.9429,-6.8601,-6.7236,-6.8866,-6.8014,-6.6098,-6.6744,-6.606,-6.5111,-6.5794,-6.5415,0.0,-6.4731,-6.4617,-6.4542,-6.4693,-6.4731,-6.4769,-6.4921,-6.4959,-6.4959,-6.4959,-6.4731,-6.458,-6.4883,-6.4693,-6.4617,-6.4921,-6.506,-6.5206,-6.4871,-6.5304,-6.5381,-6.4951,-6.4837,-6.5388,-6.69,-6.4898,-6.5146,-6.9051,-6.6529,-6.6115,-6.9336,-6.8401,-6.6601,-6.4349,-6.5515,-6.3933,-5.8955,-6.0058,-5.931,-5.6431,-5.6969,-5.6804,-5.6189,-5.6034,-5.6474,0.0,0.0,0.0,0.0,0.0,0.0,0.0,0.0,0.0,0.0,0.0,0.0,0.0,0.0,0.0,0.0,-8.357,-8.4669,-8.6215,-8.5584,-8.5357,-8.6521,-8.3949,-8.1906,-8.1509,-7.939,-7.6644,-7.3338,-7.3979,-7.317,-7.0141,-7.0082,0.0,0.0,0.0,-7.0632,-7.1714,-7.0528,-7.0009,-7.0009,-7.0009,-7.0009,-7.0009,-7.0009,-7.0567,-7.1493,-7.0501,-7.0528,-7.1327,-6.9729,-6.8946,-6.9092,-7.0904,-7.163,-7.126,-6.7979,-6.6043,-6.5225,-6.548,0.0,0.0,-6.5225,-6.5111,-6.4997,-6.5073,-6.4542,-6.3896,-6.3896,-6.3365,-6.2985,-6.3706,-6.3896,-6.4086,-6.4807,-6.4959,-6.4959,-6.4959,-6.382,-6.3251,-6.4693,-6.3782,-6.3251,-6.4731,-6.5702,-6.6029,-6.4921,-6.63,-6.6875,-6.4944,-6.7087,-6.882,-6.9023,-6.8985,0.0,-6.9661,-6.6133,-6.5267,-6.8595,-6.5933,-6.4156,-6.3851,-6.4026,-6.2577,-5.9317,-5.8477,-5.7865,-5.7197,-5.6453,-5.6093,-5.6219,-5.5363,-5.5757,0.0,0.0,0.0,0.0,0.0,0.0,0.0,0.0,0.0,0.0,0.0,0.0,0.0,0.0,0.0,0.0,-8.1224,-8.2924,-8.3803,-8.3022,-8.2973,-8.4681,-8.425,-8.2956,-8.1031,-8.055,-7.8947,-7.5711,-7.6311,-7.6317,-7.4972,-7.6062,-7.6036,-7.3993,-7.3901,-7.2949,-7.1109,-7.0296,-7.0009,-7.0009,-6.9553,-6.9325,-6.9287,-6.8756,-6.9737,-7.1879,-7.1428,-7.2527,-7.463,-7.3819,-7.3404,0.0,0.0,0.0,0.0,0.0,-6.9488,-6.7804,-6.903,-6.7447,-6.4959,-6.4959,-6.4959,-6.4959,-6.4959,-6.4731,-6.4466,-6.4466,-6.42,-6.401,-6.4352,-6.4466,-6.4542,-6.4883,-6.4959,-6.4959,-6.4959,-6.4428,-6.4162,-6.4845,-6.4428,0.0,-6.5862,-6.6436,-6.7141,-6.8317,-6.9183,-6.9399,-6.8621,-6.9162,-6.9988,-7.107,-6.9773,-6.9953,-7.2937,-7.0433,0.0,0.0,0.0,-7.1324,-7.0718,-6.903,0.0,0.0,0.0,-5.9428,-5.7826,-5.548,0.0,0.0,-5.4709,-5.46,0.0,0.0,0.0,0.0,0.0,0.0,0.0,0.0,0.0,0.0,0.0,0.0,0.0,0.0,0.0,0.0,-7.9068,-8.0393,-8.0686,-8.0484,-8.1167,-8.3266,-8.3949,-8.3556,-8.1635,-8.2272,-8.1307,-7.793,-7.8695,-7.8906,-7.7933,-7.9563,-7.9129,-7.6011,-7.6543,-7.5384,-7.233,-7.1968,-7.181,-7.181,-7.1308,-7.1031,-7.0992,-7.0321,-7.1431,-7.3872,-7.3565,-7.4942,-7.7178,-7.6652,-7.65,-7.637,-7.5769,-7.5568,-7.5453,-7.4532,-7.2746,-7.1018,-7.2554,-7.0718,-6.7319,-6.647,-6.6227,-6.6022,-6.5204,-6.4959,-6.4959,-6.4959,-6.4959,-6.4921,-6.4693,-6.4617,-6.4504,-6.4048,-6.4124,-6.4238,-6.401,-6.3782,-6.3744,-6.42,-6.4882,-6.6019,-6.8087,-6.8424,-6.8973,-7.075,-7.1597,-7.1731,-7.1087,-7.1193,-7.1858,-7.3189,-7.1671,-7.1997,-7.5748,-7.37,-7.37,-7.697,-7.6042,-7.5408,-7.5652,-7.2435,-6.9064,-6.5507,-6.3652,-6.1499,0.0,0.0,0.0,0.0,0.0,0.0,0.0,0.0,0.0,0.0,0.0,0.0,0.0,0.0,0.0,0.0,0.0,0.0,0.0,0.0,0.0,0.0,0.0,0.0,-7.7165,-7.9068,-8.1167,-8.3266,-8.2788,-8.2875,-8.4815,-8.5059,-8.3626,-8.0201,-8.1053,-8.0315,-7.7055,-7.6934,-7.6891,-7.6727,-7.677,-7.677,-7.6607,-7.6573,-7.6616,-7.6616,-7.6616,-7.6573,-7.6573,-7.6529,-7.7193,-7.8254,-7.7134,-7.7384,-7.8367,-7.6443,-7.5663,-7.5812,-7.7915,-7.8792,-7.8455,-7.5339,-7.4185,-7.4185,-7.4141,-7.4141,-7.3488,-7.0433,-6.9482,-6.8885,-6.59,-6.4959,-6.4959,-6.4959,-6.4959,-6.4769,-6.401,-6.3782,-6.3365,-6.177,-6.1998,-6.2378,-6.158,-6.0745,-6.0669,-6.2302,-6.4954,-6.8045,-7.1693,-7.2318,-7.1952,-7.0899,-7.2439,0.0,-7.103,-7.3556,-7.5455,-7.5505,-7.6333,-7.6918,-7.7116,-7.4139,-7.37,-7.697,-7.3307,-7.2378,-7.5506,-7.141,-6.8988,-6.88,-6.5816,-6.3496,-6.1863,0.0,0.0,0.0,0.0,0.0,0.0,0.0,0.0,0.0,0.0,0.0,0.0,0.0,0.0,0.0,0.0,0.0,0.0,0.0,0.0,0.0,0.0,0.0,0.0,-7.7799,-7.9556,-8.3119,-8.1997,-8.1704,-8.3852,-8.3461,-8.2649,-8.1515,-8.3034,-8.3541,-8.2359,-8.3017,-8.2095,-7.9273,-7.979,-7.8774,-7.5979,-7.6467,-7.677,-7.677,-7.6283,-7.5979,-7.5936,-7.5446,-7.642,-7.8792,-7.8347,-7.9665,-8.1823,-8.116,-7.9633,-7.7658,-7.7727,-7.7764,-7.766,-7.6564,-7.6201,-7.5978,-7.4651,-7.4072,-7.3395,-6.91,-6.912,-6.9913,-6.6155,-6.5184,-6.5261,-6.5068,-6.3476,-6.177,-6.2036,-6.1694,-6.1163,-6.0593,-6.0669,-6.0821,-6.0517,-6.0669,-6.1548,-6.4078,-6.5286,-6.6615,-6.9176,-7.1305,-7.2506,-7.1859,-7.4188,-7.5798,-7.5115,-7.5945,-7.6628,-7.6628,-7.697,-7.6872,-7.614,-7.5066,-7.4627,-7.4969,-7.3602,-7.2967,-7.3358,-7.1991,-7.0869,-7.0137,-6.9153,-6.5887,-6.0257,0.0,0.0,0.0,0.0,0.0,0.0,0.0,0.0,0.0,0.0,0.0,0.0,0.0,0.0,0.0,0.0,0.0,0.0,0.0,0.0,0.0,0.0,0.0,0.0,0.0,0.0,-8.1899,-8.1216,0.0,-8.229,-8.225,-8.1712,-8.0874,-8.2094,-8.3022,-8.3412,-8.3705,-8.2831,-8.0418,-8.0967,-7.9957,-7.7348,-7.7709,-7.8026,-7.8026,-7.7506,-7.7348,-7.7302,-7.6667,-7.7509,-7.9428,-7.9428,-8.0566,-8.2339,-8.1606,-8.0484,-7.9166,-7.7751,-7.7604,-7.8141,-7.7019,-7.6823,-7.6864,-7.5181,-7.4894,-7.4646,-7.1513,-7.0489,-6.9635,-6.5605,-6.4447,-6.4555,-6.438,-6.337,-6.228,-6.2518,-6.251,-6.2301,-6.1663,-6.1783,-6.1793,-6.1623,-6.1873,-6.288,-6.5494,-6.614,-6.68,-6.8719,-7.0705,-7.1909,-7.1224,-7.3602,-7.5408,-7.5408,-7.6091,-7.6433,-7.6042,-7.5994,-7.5701,-7.5017,-7.4969,-7.4627,-7.3944,-7.3504,-7.3016,-7.2284,-7.1894,-7.1015,-6.9551,-6.8859,-6.5987,0.0,0.0,0.0,0.0,0.0,0.0,0.0,0.0,0.0,0.0,0.0,0.0,0.0,0.0,0.0,0.0,0.0,0.0,0.0,0.0,0.0,0.0,0.0,0.0,0.0,0.0,0.0,-7.9599,-8.0038,0.0,0.0,0.0,0.0,-7.8727,-7.8629,-7.9117,-8.0038,-7.9166,-7.9068,-7.9989,-8.0087,-8.0087,-8.0087,-8.0184,-8.0233,-8.0233,-8.0233,-8.0233,-8.0233,-8.0184,-8.0184,-8.0184,-8.0087,-8.0087,-7.994,-7.7751,-7.8043,-7.9551,-7.7555,-7.7946,-7.9258,-7.6335,-7.5847,-7.653,-7.5652,-7.5994,-7.6823,-7.6823,-7.3334,-6.8338,-6.4414,-6.3064,0.0,0.0,-6.4324,-6.5587,-6.4873,-6.5407,-6.5873,-6.43,-6.4459,-6.485,-6.4083,-6.3809,-6.4289,-6.6551,-6.7583,-6.8486,-7.0106,0.0,-7.0221,-6.9047,-7.0808,-7.2325,-7.2374,-7.4282,-7.5261,-7.4185,-7.4134,-7.4229,-7.418,-7.4131,-7.4131,-7.4082,-7.3101,-7.2561,-7.2561,-7.1531,-6.9912,-6.7715,-6.5595,0.0,0.0,0.0,0.0,0.0,0.0,0.0,0.0,0.0,0.0,0.0,0.0,0.0,0.0,0.0,0.0,0.0,0.0,0.0,0.0,0.0,0.0,0.0,0.0,0.0,0.0,-7.3893,-7.5847,-7.7751,-7.7263,-7.7116,0.0,0.0,0.0,0.0,0.0,0.0,-7.7946,-7.697,-7.6482,-7.6774,-7.7555,-7.7995,-7.7995,-7.9453,-8.0233,-8.0233,-8.0233,-8.0233,-8.0233,-7.9508,-7.9063,-7.9117,-7.8336,-7.7995,-7.7702,-7.3944,-7.2723,-7.3016,-7.1698,-7.0923,-7.0679,-7.0679,-7.0338,-7.0137,-7.1454,-7.2183,-7.2427,-7.2427,-7.0055,-6.7203,-6.7411,0.0,0.0,0.0,0.0,-5.9179,-6.0436,-6.0532,-6.0368,-6.0775,-6.0991,-6.1078,-6.0861,-6.1242,-6.2929,-6.7539,-6.8022,-6.711,-6.5685,-6.742,0.0,-6.7244,-6.9724,-7.2022,-7.3055,-7.5396,-7.6752,-7.6542,-7.7961,-7.8596,-7.7796,-7.7743,-7.7429,-7.6678,-7.6364,-7.6206,-7.6206,-7.5052,-7.3154,-7.066,0.0,0.0,0.0,0.0,0.0,0.0,0.0,0.0,0.0,0.0,0.0,0.0,0.0,0.0,0.0,0.0,0.0,0.0,0.0,0.0,0.0,0.0,0.0,0.0,0.0,0.0,0.0,-7.3455,-7.6036,-7.7158,-7.7114,-7.6865,0.0,0.0,0.0,0.0,0.0,0.0,0.0,0.0,0.0,-7.4235,-7.4725,-7.4822,-7.4334,-7.6433,-7.7263,-7.6823,-7.7799,-7.7995,-7.7406,-7.6872,-7.6628,-7.6579,-7.5505,-7.4481,-7.3407,-7.1432,-7.0995,-7.1346,0.0,0.0,0.0,0.0,-6.6622,-6.6183,-6.6915,-6.7452,-6.798,-6.798,0.0,0.0,0.0,0.0,0.0,0.0,0.0,-6.0141,-6.1193,-6.1829,-6.2375,-6.2969,-6.2741,-6.2695,-6.3564,-6.192,-6.1473,-6.5826,-6.6104,-6.5215,-6.3523,-6.4755,0.0,0.0,0.0,-7.1267,-7.1974,-7.5614,-7.7983,-7.7513,-7.8557,-7.9022,-7.8465,-7.8411,-7.8229,-7.7584,-7.7584,-7.6749,-7.5029,-7.4897,-7.2327,0.0,0.0,0.0,0.0,0.0,0.0,0.0,0.0,0.0,0.0,0.0,0.0,0.0,0.0,0.0,0.0,0.0,0.0,0.0,0.0,0.0,0.0,0.0,0.0,0.0,0.0,0.0,0.0,0.0,-7.5534,-7.6772,0.0,0.0,0.0,0.0,0.0,0.0,0.0,0.0,0.0,0.0,0.0,0.0,0.0,-7.1259,-7.057,-7.2479,-7.3016,-7.2089,-7.4089,-7.4383,-7.3456,-7.3309,-7.326,-7.3212,-7.2089,0.0,-6.9305,-7.0179,0.0,0.0,0.0,0.0,0.0,0.0,0.0,0.0,0.0,0.0,0.0,0.0,0.0,0.0,0.0,0.0,0.0,0.0,0.0,0.0,0.0,0.0,-6.6427,-6.6427,-6.5744,-6.5634,-6.7879,-6.391,-6.0649,-6.2951,-6.3458,-6.3236,0.0,0.0,0.0,0.0,0.0,0.0,-7.0305,-7.5575,-7.9032,-7.806,-7.8204,-7.8372,-7.8372,-7.8372,-7.8372,-7.8372,-7.7937,-7.6119,-7.25,-7.3443,0.0,0.0,0.0,0.0,0.0,0.0,0.0,0.0,0.0,0.0,0.0,0.0,0.0,0.0,0.0,0.0,0.0,0.0,0.0,0.0,0.0,0.0,0.0,0.0,0.0,0.0,0.0,0.0,0.0,0.0,0.0,0.0,0.0,0.0,0.0,0.0,0.0,0.0,0.0,0.0,0.0,0.0,0.0,0.0,0.0,0.0,0.0,0.0,0.0,0.0,-7.145,-7.1498,-7.1303,-7.0332,-6.985,-6.9802,-6.8729,-6.9093,-7.0284,-7.0505,0.0,0.0,0.0,0.0,0.0,0.0,0.0,0.0,0.0,0.0,0.0,0.0,0.0,0.0,0.0,0.0,0.0,0.0,0.0,0.0,0.0,0.0,-6.0912,-6.0912,-6.0766,-6.1453,-6.45,0.0,0.0,0.0,0.0,0.0,0.0,0.0,0.0,0.0,0.0,0.0,-7.1013,-7.6668,-8.0493,-8.0271,-8.1938,-8.3,-8.3,-8.3,-8.3,-8.3,-8.0075,-7.7609,0.0,0.0,0.0,0.0,0.0,0.0,0.0,0.0,0.0,0.0,0.0,0.0,0.0,0.0,0.0,0.0,0.0,0.0,0.0,0.0,0.0,0.0,0.0,0.0,0.0,0.0,0.0,0.0,0.0,0.0,0.0,0.0,0.0,0.0,0.0,0.0,0.0,0.0,0.0,0.0,0.0,0.0,0.0,0.0,0.0,0.0,0.0,0.0,0.0,0.0,0.0,0.0,0.0,0.0,0.0,0.0,0.0,0.0,-6.7385,-6.7881,0.0,0.0,0.0,0.0,0.0,0.0,0.0,0.0,0.0,0.0,0.0,0.0,0.0,0.0,0.0,0.0,0.0,0.0,0.0,0.0,0.0,0.0,0.0,0.0,0.0,0.0,0.0,0.0,0.0,0.0,0.0,0.0,0.0,0.0,0.0,0.0,0.0,0.0,0.0,0.0,-7.1964,-7.8268,-8.2549,-8.2549,-8.3548,-8.4148,-8.4148,-8.4148,-8.3335,-8.1375,-7.9572,0.0,0.0,0.0,0.0,0.0,0.0,0.0,0.0,0.0,0.0,0.0,0.0,0.0,0.0,0.0,0.0,0.0,0.0,0.0,0.0,0.0,0.0,0.0,0.0,0.0,0.0,0.0,0.0,0.0,0.0,0.0,0.0,0.0,0.0,0.0,0.0,0.0,0.0,0.0,0.0,0.0,0.0,0.0,0.0,0.0,0.0,0.0,0.0,0.0,0.0,0.0,0.0,0.0,0.0,0.0,0.0,0.0,0.0,0.0,-6.7084,-6.7557,0.0,0.0,0.0,0.0,0.0,0.0,0.0,0.0,0.0,0.0,0.0,0.0,0.0,0.0,0.0,0.0,0.0,0.0,0.0,0.0,0.0,0.0,0.0,0.0,0.0,0.0,0.0,0.0,0.0,0.0,0.0,0.0,0.0,0.0,0.0,0.0,0.0,0.0,0.0,0.0,-7.2708,-7.9383,-8.4148,-8.4148,-8.4148,-8.4148,-8.4148,-8.4148,-8.2672,-7.913,-7.8206,0.0,0.0,0.0,0.0,0.0,0.0,0.0,0.0,0.0,0.0,0.0,0.0,0.0,0.0,0.0,0.0,0.0,0.0,0.0,0.0,0.0,0.0,0.0,0.0,0.0,0.0,0.0,0.0,0.0,0.0,0.0,0.0,0.0,0.0,0.0,0.0,0.0,0.0,0.0,0.0,0.0,0.0,0.0,0.0,0.0,0.0,0.0,0.0,0.0,0.0,0.0,0.0,0.0,0.0,0.0,0.0,0.0,0.0,0.0,0.0,0.0,0.0,0.0,0.0,0.0,0.0,0.0,0.0,0.0,0.0,0.0,0.0,0.0,0.0,0.0,0.0,0.0,0.0,0.0,0.0,0.0,0.0,0.0,0.0,0.0,0.0,0.0,0.0,0.0,0.0,0.0,0.0,0.0,0.0,0.0,0.0,0.0,0.0,0.0,0.0,0.0,-7.2708,-7.9383,-8.4148,-8.4148,-8.4148,-8.4148,-8.4148,-8.4148,-8.3065,-8.0431,0.0,0.0,0.0,0.0,0.0,0.0,0.0,0.0,0.0,0.0,0.0,0.0,0.0,0.0,0.0,0.0,0.0,0.0,0.0,0.0,0.0,0.0,0.0,0.0,0.0,0.0,0.0,0.0,0.0,0.0,0.0,0.0,0.0,0.0,0.0,0.0,0.0,0.0,0.0,0.0,0.0,0.0,0.0,0.0,0.0,0.0,0.0,0.0,0.0,0.0,0.0,0.0,0.0,0.0,0.0,0.0,0.0,0.0,0.0,0.0,0.0,0.0,0.0,0.0,0.0,0.0,0.0,0.0,0.0,0.0,0.0,0.0,0.0,0.0,0.0,0.0,0.0,0.0,0.0,0.0,0.0,0.0,0.0,0.0,0.0,0.0,0.0,0.0,0.0,0.0,0.0,0.0,0.0,0.0,0.0,0.0,0.0,0.0,0.0,0.0,0.0,0.0,-7.4285,-8.1125,-8.6373,-8.7422,-8.7566,-8.7566,-8.7566,-8.7566,-8.4985,-7.9051,0.0,0.0,0.0,0.0,0.0,0.0,0.0,0.0,0.0,0.0,0.0,0.0,0.0,0.0,0.0,0.0,0.0,0.0,0.0,0.0,0.0,0.0,0.0,0.0,0.0,0.0,0.0,0.0,0.0,0.0,0.0,0.0,0.0,0.0,0.0,0.0,0.0,0.0,0.0,0.0,0.0,0.0,0.0,0.0,0.0,0.0,0.0,0.0,0.0,0.0,0.0,0.0,0.0,0.0,0.0,0.0,0.0,0.0,0.0,0.0,0.0,0.0,0.0,0.0,0.0,0.0,0.0,0.0,0.0,0.0,0.0,0.0,0.0,0.0,0.0,0.0,0.0,0.0,0.0,0.0,0.0,0.0,0.0,0.0,0.0,0.0,0.0,0.0,0.0,0.0,0.0,0.0,0.0,0.0,0.0,0.0,0.0,0.0,0.0,0.0,0.0,0.0,-7.5991,-8.306,-8.8352,-8.9685,-8.9822,-8.9822,-8.9822,-8.9822,-8.6468,-7.8652,0.0,0.0,0.0,0.0,0.0,0.0,0.0,0.0,0.0,0.0,0.0,0.0,0.0,0.0,0.0,0.0,0.0,0.0,0.0,0.0,0.0,0.0,0.0,0.0,0.0,0.0,0.0,0.0,0.0,0.0,0.0,0.0,0.0,0.0,0.0,0.0,0.0,0.0,0.0,0.0,0.0,0.0,0.0,0.0,0.0,0.0,0.0,0.0,0.0,0.0,0.0,0.0,0.0,0.0,0.0,0.0,0.0,0.0,0.0,0.0,0.0,0.0,0.0,0.0,0.0,0.0,0.0,0.0,0.0,0.0,0.0,0.0,0.0,0.0,0.0,0.0,0.0,0.0,0.0,0.0,0.0,0.0,0.0,0.0,0.0,0.0,0.0,0.0,0.0,0.0,0.0,0.0,0.0,0.0,0.0,0.0,0.0,0.0,0.0,0.0,0.0,0.0,-7.75,-8.4715,-8.9754,-8.9822,-8.9822,-8.9822,-8.9822,-8.9822,-8.6859,0.0,0.0,0.0,0.0,0.0,0.0,0.0,0.0,0.0,0.0,0.0,0.0,0.0,0.0,0.0,0.0,0.0,0.0,0.0,0.0,0.0,0.0,0.0,0.0,0.0,0.0,0.0,0.0,0.0,0.0,0.0,0.0,0.0,0.0,0.0,0.0,0.0,0.0,0.0,0.0,0.0,0.0,0.0,0.0,0.0,0.0,0.0,0.0,0.0,0.0,0.0,0.0,0.0,0.0,0.0,0.0,0.0,0.0,0.0,0.0,0.0,0.0,0.0,0.0,0.0,0.0,0.0,0.0,0.0,0.0,0.0,0.0,0.0,0.0,0.0,0.0,0.0,0.0,0.0,0.0,0.0,0.0,0.0,0.0,0.0,0.0,0.0,0.0,0.0,0.0,0.0,0.0,0.0,0.0,0.0,0.0,0.0,0.0,0.0,0.0,0.0,0.0,0.0,-7.9114,-8.5723,-9.1066,-9.33,-9.3554,-9.3554,-9.3554,-9.3554,-9.0047,-8.1866,0.0,0.0,0.0,0.0,0.0,0.0,0.0,0.0,0.0,0.0,0.0,0.0,0.0,0.0,0.0,0.0,0.0,0.0,0.0,0.0,0.0,0.0,0.0,0.0,0.0,0.0,0.0,0.0,0.0,0.0,0.0,0.0,0.0,0.0,0.0,0.0,0.0,0.0,0.0,0.0,0.0,0.0,0.0,0.0,0.0,0.0,0.0,0.0,0.0,0.0,0.0,0.0,0.0,0.0,0.0,0.0,0.0,0.0,0.0,0.0,0.0,0.0,0.0,0.0,0.0,0.0,0.0,0.0,0.0,0.0,0.0,0.0,0.0,0.0,0.0,0.0,0.0,0.0,0.0,0.0,0.0,0.0,0.0,0.0,0.0,0.0,0.0,0.0,0.0,0.0,0.0,0.0,0.0,0.0,0.0,0.0,0.0,0.0,0.0,0.0,0.0,0.0,0.0,-8.6301,-9.1395,-9.339,-9.4626,-9.4824,-9.3706,-9.4166,-9.0747,-8.1935,0.0,0.0,0.0,0.0,0.0,0.0,0.0,0.0,0.0,0.0,0.0,0.0,0.0,0.0,0.0,0.0,0.0,0.0,0.0,0.0,0.0,0.0,0.0,0.0,0.0,0.0,0.0,0.0,0.0,0.0,0.0,0.0,0.0,0.0,0.0,0.0,0.0,0.0,0.0,0.0,0.0,0.0,0.0,0.0,0.0,0.0,0.0,0.0,0.0,0.0,0.0,0.0,0.0,0.0,0.0,0.0,0.0,0.0,0.0,0.0,0.0,0.0,0.0,0.0,0.0,0.0,0.0,0.0,0.0,0.0,0.0,0.0,0.0,0.0,0.0,0.0,0.0,0.0,0.0,0.0,0.0,0.0,0.0,0.0,0.0,0.0,0.0,0.0,0.0,0.0,0.0,0.0,0.0,0.0,0.0,0.0,0.0,0.0,0.0,0.0,0.0,0.0,0.0,-8.6472,-9.0878,-9.1075,-9.3443,-9.3837,-9.1207,-9.2128,-8.9112,-8.062,-7.7332,0.0,0.0,0.0,0.0,0.0,0.0,0.0,0.0,0.0,0.0,0.0,0.0,0.0,0.0,0.0,0.0,0.0,0.0,0.0,0.0,0.0,0.0,0.0,0.0,0.0,0.0,0.0,0.0,0.0,0.0,0.0,0.0,0.0,0.0,0.0,0.0,0.0,0.0,0.0,0.0,0.0,0.0,0.0,0.0,0.0,0.0,0.0,0.0,0.0,0.0,0.0,0.0,0.0,0.0,0.0,0.0,0.0,0.0,0.0,0.0,0.0,0.0,0.0,0.0,0.0,0.0,0.0,0.0,0.0,0.0,0.0,0.0,0.0,0.0,0.0,0.0,0.0,0.0,0.0,0.0,0.0,0.0,0.0,0.0,0.0,0.0,0.0,0.0,0.0,0.0,0.0,0.0,0.0,0.0,0.0,0.0,0.0,0.0,0.0,0.0,0.0,0.0,-8.6867,-9.0221,-9.2391,-9.2259,-9.1667,-9.101,-9.0286,-8.7064,-8.0488,-7.6411,0.0,0.0,0.0,0.0,0.0,0.0,0.0,0.0,0.0,0.0,0.0,0.0,0.0,0.0,0.0,0.0,0.0,0.0,0.0,0.0,0.0,0.0,0.0,0.0,0.0,0.0,0.0,0.0,0.0,0.0,0.0,0.0,0.0,0.0,0.0,0.0,0.0,0.0,0.0,0.0,0.0,0.0,0.0,0.0,0.0,0.0,0.0,0.0,0.0,0.0,0.0,0.0,0.0,0.0,0.0,0.0,0.0,0.0,0.0,0.0,0.0,0.0,0.0,0.0,0.0,0.0,0.0,0.0,0.0,0.0,0.0,0.0,0.0,0.0,0.0,0.0,0.0,0.0,0.0,0.0,0.0,0.0,0.0,0.0,0.0,0.0,0.0,0.0,0.0,0.0,0.0,0.0,0.0,0.0,0.0,0.0,0.0,0.0,0.0,0.0,0.0,0.0,-8.1475,-8.45,-8.8652,-8.9629,-8.9431,-8.805,-8.7261,-8.4302,-7.8516,-7.4702,0.0,0.0,0.0,0.0,0.0,0.0,0.0,0.0,0.0,0.0,0.0,0.0,0.0,0.0,0.0,0.0,0.0,0.0,0.0,0.0,0.0,0.0,0.0,0.0,0.0,0.0,0.0,0.0,0.0,0.0,0.0,0.0,0.0,0.0,0.0,0.0,0.0,0.0,0.0,0.0,0.0,0.0,0.0,0.0,0.0,0.0,0.0,0.0,0.0,0.0,0.0,0.0,0.0,0.0,0.0,0.0,0.0,0.0,0.0,0.0,0.0,0.0,0.0,0.0,0.0,0.0,0.0,0.0,0.0,0.0,0.0,0.0,0.0,0.0,0.0,0.0,0.0,0.0,0.0,0.0,0.0,0.0,0.0,0.0,0.0,0.0,0.0,0.0,0.0,0.0,0.0,0.0,0.0,0.0,0.0,0.0,0.0,0.0,0.0,0.0,0.0,0.0,0.0,-7.8384,-8.3461,-8.6341,-8.6801,-8.4249,-8.3789,-8.1475,-7.6148,0.0,0.0,0.0,0.0,0.0,0.0,0.0,0.0,0.0,0.0,0.0,0.0,0.0,0.0,0.0,0.0,0.0,0.0,0.0,0.0,0.0,0.0,0.0,0.0,0.0,0.0,0.0,0.0,0.0,0.0,0.0,0.0,0.0,0.0,0.0,0.0,0.0,0.0,0.0,0.0,0.0,0.0,0.0,0.0,0.0,0.0,0.0,0.0,0.0,0.0,0.0,0.0,0.0,0.0,0.0,0.0,0.0,0.0,0.0,0.0,0.0,0.0,0.0,0.0,0.0,0.0,0.0,0.0,0.0,0.0,0.0,0.0,0.0,0.0,0.0,0.0,0.0,0.0,0.0,0.0,0.0,0.0,0.0,0.0,0.0,0.0,0.0,0.0,0.0,0.0,0.0,0.0,0.0,0.0,0.0,0.0,0.0,0.0,0.0,0.0,0.0,0.0,0.0,0.0,-8.0225,-8.233,-8.2921,-8.3053,-8.2593,-8.1475,-7.9305,-7.6017,0.0,0.0,0.0,0.0,0.0,0.0,0.0,0.0,0.0,0.0,0.0,0.0,0.0,0.0]}],[{"header":{"parameterUnit":"kt","parameterCategory":2,"dx":1,"dy":1,"la1":29.285339999999998,"la2":30.599998999999997,"lo1":-89.70041500000002,"lo2":-87.6738589999976,"nx":112,"ny":82,"refTime":"2022-10-22T00:00:00:Z","depth":0,"parameterNumber":2,"parameterNumberName":"V-component_of_WINDS"},"data":[9.4403,9.6365,0.0,8.8396,8.5705,0.0,7.7242,0.0,6.9735,0.0,0.0,0.0,0.0,0.0,0.0,0.0,0.0,0.0,0.0,0.0,0.0,0.0,0.0,0.0,0.0,0.0,0.0,0.0,0.0,0.0,0.0,0.0,10.3362,10.3362,10.5922,10.7259,10.7259,10.7259,10.7259,10.7259,10.7259,10.7259,10.7358,10.9719,11.0782,11.0967,11.4147,11.6378,11.7851,11.8645,11.9967,12.1258,12.1258,12.1258,12.1258,12.1258,12.1258,12.1258,12.1258,12.1258,12.1258,12.1258,12.1258,12.1258,12.1258,12.1258,12.1193,12.0667,11.9878,11.8694,11.6655,11.5406,11.4354,11.2907,11.2513,11.2513,11.2513,11.2513,11.2513,11.2513,11.2513,11.2513,11.2513,11.2513,11.2513,11.2513,11.5011,11.6853,11.6853,11.9417,12.0141,11.7116,11.6853,11.5669,11.2776,11.2513,11.2513,11.2513,11.2513,11.2513,11.2513,11.2513,11.2513,11.2513,11.2513,11.2513,11.2513,11.2513,11.2513,11.2583,11.4109,11.5802,0.0,0.0,8.8921,8.0635,0.0,0.0,0.0,0.0,0.0,0.0,0.0,0.0,0.0,0.0,0.0,0.0,0.0,0.0,0.0,0.0,0.0,0.0,0.0,0.0,0.0,0.0,0.0,0.0,0.0,0.0,0.0,10.2373,10.47,10.47,10.6387,10.7259,10.7259,10.7259,10.7259,10.7259,10.7259,10.7259,10.7358,10.8924,10.9625,10.9719,11.2097,11.3998,11.5617,11.7193,11.8725,12.0201,12.1029,12.1258,12.1258,12.1258,12.1258,12.1258,12.1258,12.1258,12.1258,12.1258,12.1258,12.1258,12.1258,12.1258,12.1258,12.1258,11.9878,11.8102,11.7116,11.5406,11.3696,11.2776,11.2513,11.2513,11.2513,11.2513,11.2513,11.2513,11.2513,11.2513,11.2513,11.2513,11.2513,11.2513,11.5011,11.6853,11.6853,11.9023,11.9615,11.7116,11.6392,11.5143,11.271,11.2513,11.2513,11.2513,11.2513,11.2513,11.2513,11.2513,11.2513,11.2513,11.2513,11.2513,11.2513,11.2513,11.2513,11.2583,11.4773,11.6367,0.0,0.0,0.0,6.839,0.0,0.0,0.0,0.0,6.5872,0.0,0.0,0.0,0.0,0.0,0.0,0.0,0.0,0.0,0.0,0.0,0.0,0.0,0.0,0.0,0.0,0.0,0.0,0.0,0.0,0.0,10.2955,10.5863,10.7259,10.7259,10.7259,10.7259,10.7259,10.7259,10.7259,10.7259,10.7259,10.7259,10.7259,10.7259,10.7259,10.7456,10.9719,11.0782,11.1091,11.5702,11.7687,11.8078,12.0344,12.1258,12.1258,12.1258,12.1258,12.1258,12.1258,12.1258,12.1258,12.1258,12.1258,12.1258,12.1258,12.1258,12.1258,12.1258,11.9154,11.6918,11.6853,11.4683,11.2578,11.2513,11.2513,11.2513,11.2513,11.2513,11.2513,11.2513,11.2513,11.2513,11.2513,11.2513,11.2578,11.2578,11.5011,11.6853,11.6918,11.8234,11.8562,11.6984,11.5537,11.4091,11.2644,11.2513,11.2513,11.2513,11.2513,11.2513,11.2513,11.2513,11.2513,11.2513,11.2513,11.2513,11.2513,11.2513,11.2513,11.2654,11.5933,11.7402,7.037,0.0,0.0,0.0,0.0,0.0,0.0,0.0,0.0,0.0,0.0,0.0,0.0,0.0,0.0,0.0,0.0,0.0,0.0,0.0,0.0,0.0,0.0,0.0,0.0,0.0,0.0,0.0,0.0,9.8244,10.313,10.5863,10.7259,10.7259,10.7259,10.7259,10.7259,10.7259,10.7259,10.7259,10.7259,10.7259,10.7259,10.7259,10.7259,10.7358,10.7982,10.921,11.0875,11.2188,11.4695,11.7851,11.8484,11.9809,12.1258,12.1258,12.1258,12.1258,12.1258,12.1258,12.1258,12.1258,12.1258,12.1258,12.1258,12.1258,12.1258,12.1258,11.9943,11.8299,11.7116,11.5472,11.3828,11.2776,11.2513,11.2513,11.2513,11.2513,11.2513,11.2513,11.2513,11.2513,11.2513,11.2513,11.2907,11.3959,11.5669,11.7247,11.8365,11.8891,11.8562,11.6984,11.5537,11.4091,11.2644,11.2513,11.2513,11.2513,11.2513,11.2513,11.2513,11.2513,11.2513,11.2513,11.2513,11.2513,11.2513,11.2513,11.2513,11.2654,11.5933,11.7402,0.0,0.0,0.0,0.0,0.0,0.0,6.3504,0.0,6.2874,0.0,0.0,0.0,0.0,0.0,0.0,0.0,7.265,0.0,0.0,0.0,0.0,0.0,0.0,0.0,0.0,0.0,0.0,0.0,10.1443,10.0919,10.4816,10.6445,10.7259,10.7259,10.7259,10.7259,10.7259,10.7259,10.7259,10.7259,10.7259,10.7259,10.7259,10.7259,10.7259,10.7259,10.7259,10.8079,10.9436,11.1459,11.3884,11.6378,11.7441,11.927,12.1258,12.1258,12.1258,12.1258,12.1258,12.1258,12.1258,12.1258,12.1258,12.1258,12.1258,12.1258,12.1258,12.1258,12.0272,11.8825,11.7247,11.5801,11.4354,11.2907,11.2513,11.2513,11.2513,11.2513,11.2513,11.2513,11.2513,11.2513,11.2513,11.2513,11.3039,11.4485,11.5932,11.7379,11.8957,11.8628,11.7839,11.6918,11.5011,11.3433,11.2578,11.2513,11.2513,11.2513,11.2513,11.2513,11.2513,11.2513,11.2513,11.2513,11.2513,11.2513,11.2513,11.2513,11.2513,11.2583,11.5165,11.6367,0.0,0.0,0.0,0.0,6.0717,0.0,0.0,0.0,6.6218,6.7498,0.0,0.0,0.0,0.0,0.0,0.0,0.0,0.0,7.9107,0.0,0.0,0.0,0.0,0.0,0.0,9.8069,10.1152,10.6852,10.406,10.3653,10.7085,10.7259,10.7259,10.7259,10.7259,10.7259,10.7259,10.7259,10.7259,10.7259,10.7259,10.7259,10.7259,10.7259,10.7259,10.7259,10.7259,10.7259,10.7651,11.2067,11.406,11.4584,11.7193,11.9428,12.1258,12.1258,12.1258,12.1258,12.1258,12.1258,12.1258,12.1258,12.1258,12.1258,12.1258,12.1258,12.1258,12.1258,12.0338,11.9023,11.7247,11.5866,11.4551,11.2907,11.2513,11.2513,11.2513,11.2513,11.2513,11.2513,11.2513,11.2513,11.2513,11.2513,11.3104,11.4683,11.5998,11.7444,11.9154,11.8036,11.705,11.6853,11.442,11.271,11.2513,11.2513,11.2513,11.2513,11.2513,11.2513,11.2513,11.2513,11.2513,11.2513,11.2513,11.2513,11.2513,11.2513,11.2513,11.2583,11.4109,11.4902,0.0,0.0,0.0,0.0,0.0,5.9992,0.0,0.0,0.0,0.0,0.0,0.0,0.0,0.0,0.0,0.0,0.0,0.0,0.0,9.3358,0.0,0.0,0.0,0.0,10.5107,10.5282,10.5922,10.7201,10.6561,10.6503,10.7259,10.7259,10.7259,10.7259,10.7259,10.7259,10.7259,10.7259,10.7259,10.7259,10.7259,10.7259,10.7259,10.7259,10.7259,10.7259,10.7259,10.7259,10.7553,11.0317,11.2639,11.4757,11.903,12.0952,12.1258,12.1258,12.1258,12.1258,12.1258,12.1258,12.1258,12.1258,12.1258,12.1258,12.1258,12.1258,12.1258,12.1258,12.1061,12.0272,11.751,11.659,11.5735,11.317,11.2513,11.2513,11.2513,11.2513,11.2513,11.2513,11.2513,11.2513,11.2513,11.2513,11.3433,11.5998,11.6655,11.7839,12.0535,11.9615,11.8234,11.6984,11.5274,11.3828,11.2644,11.2513,11.2513,11.2513,11.2513,11.2513,11.2513,11.2513,11.2513,11.2513,11.2513,11.2513,11.2513,11.2513,11.2513,11.2583,11.4109,11.4902,0.0,0.0,0.0,5.8032,0.0,0.0,0.0,6.6293,7.0782,7.7277,8.1088,8.3876,8.5796,8.6145,8.6378,8.7017,8.9809,9.2601,9.4521,10.0861,10.534,0.0,0.0,0.0,10.7259,10.7259,10.7259,10.7259,10.7259,10.7259,10.7259,10.7259,10.7259,10.7259,10.7259,10.7259,10.7259,10.7259,10.7259,10.7259,10.7259,10.7259,10.7259,10.7259,10.7259,10.7259,10.7259,10.7259,10.7553,11.1152,11.3265,11.467,11.816,12.0201,12.1258,12.1258,12.1258,12.1258,12.1258,12.1258,12.1258,12.1258,12.1258,12.1258,12.1258,12.1258,12.1258,12.1258,12.1258,12.0798,11.8562,11.7444,11.6261,11.4157,11.3039,11.2513,11.2513,11.2513,11.2513,11.2513,11.2513,11.2513,11.2513,11.2513,11.3499,11.6392,11.6853,11.7905,12.0864,12.0075,11.8562,11.6984,11.5537,11.4091,11.2644,11.2513,11.2513,11.2513,11.2513,11.2513,11.2513,11.2513,11.2513,11.2513,11.2513,11.2513,11.2513,11.2513,11.2513,11.2583,11.3359,11.3703,0.0,0.0,0.0,0.0,0.0,0.0,6.3294,6.6177,7.0673,7.8752,8.243,8.5563,9.0158,9.1031,9.1031,9.1031,9.3648,9.7662,10.3362,10.598,10.6503,10.4409,0.0,0.0,10.7259,10.7259,10.7259,10.7259,10.7259,10.7259,10.7259,10.7259,10.7259,10.7259,10.7259,10.7259,10.7259,10.7259,10.7259,10.7259,10.7259,10.7259,10.7259,10.7259,10.7259,10.7259,10.7259,10.7259,10.7651,11.1824,11.3884,11.4497,11.6944,11.927,12.1258,12.1258,12.1258,12.1258,12.1258,12.1258,12.1258,12.1258,12.1258,12.1258,12.1258,12.1258,12.1258,12.1258,12.1258,12.093,11.9549,11.7971,11.6458,11.5077,11.3631,11.2513,11.2513,11.2513,11.2513,11.2513,11.2513,11.2513,11.2513,11.2513,11.3499,11.6392,11.6853,11.7905,12.0864,12.0272,11.8891,11.705,11.5801,11.442,11.2644,11.2513,11.2513,11.2513,11.2513,11.2513,11.2513,11.2513,11.2513,11.2513,11.2513,11.2513,11.2513,11.2513,11.2513,11.2513,11.2513,11.2513,0.0,0.0,0.0,0.0,0.0,0.0,7.2248,7.7858,8.3764,9.4656,10.0676,10.3595,10.1966,10.1675,10.1675,10.1675,10.2024,10.3362,10.6445,10.7085,10.7143,10.691,10.7085,10.7259,10.7259,10.7259,10.7259,10.7259,10.7259,10.7259,10.7259,10.7259,10.7259,10.7259,10.7259,10.7259,10.7259,10.7259,10.7259,10.7259,10.7259,10.7259,10.7259,10.7259,10.7259,10.7259,10.7259,10.7259,10.7456,11.0096,11.2459,11.4497,11.6944,11.927,12.1258,12.1258,12.1258,12.1258,12.1258,12.1258,12.1258,12.1258,12.1258,12.1258,12.1258,12.1258,12.1258,12.1258,12.1258,12.093,11.9549,11.7971,11.6458,11.5077,11.3631,11.2513,11.2513,11.2513,11.2513,11.2513,11.2513,11.2513,11.2513,11.2513,11.3499,11.6392,11.6853,11.7905,12.0864,12.1127,11.9943,11.7116,11.6721,11.5472,11.2776,11.2513,11.2513,11.2513,11.2513,11.2513,11.2513,11.2513,11.2513,11.2513,11.2513,11.2513,11.2513,11.2513,11.2513,11.2513,11.2513,11.2513,0.0,0.0,0.0,0.0,0.0,0.0,7.0795,7.728,8.4252,9.2322,9.8127,10.2024,10.3188,10.4642,10.5631,10.5631,10.5631,10.6038,10.7143,10.7259,10.7259,10.7259,10.7259,10.7259,10.7259,10.7259,10.7259,10.7259,10.5863,10.5689,10.7201,10.7259,10.7259,10.7259,10.7259,10.7259,10.7259,10.7259,10.7259,10.7259,10.7259,10.7259,10.7259,10.7259,10.7259,10.7259,10.7259,10.7259,10.7358,10.8311,11.0967,11.4409,11.536,11.8078,12.1258,12.1258,12.1258,12.1258,12.1258,12.1258,12.1258,12.1258,12.1258,12.1258,12.1258,12.1258,12.1258,12.1258,12.1258,12.1127,12.0535,11.8628,11.6655,11.6064,11.4222,11.2513,11.2513,11.2513,11.2513,11.2513,11.2513,11.2513,11.2513,11.2513,11.3499,11.6392,11.6853,11.7905,12.0864,12.1258,12.0141,11.7116,11.6853,11.5669,11.2776,11.2513,11.2513,11.2513,11.2513,11.2513,11.2513,11.2513,11.2513,11.2513,11.2513,11.2513,11.2513,11.2513,11.2513,11.2513,11.2513,11.2513,5.7935,0.0,0.0,0.0,0.0,0.0,7.2424,7.9041,8.565,9.1424,9.6731,10.1152,10.3944,10.598,10.7259,10.7259,10.7259,10.7259,10.7259,10.7259,10.7259,10.7259,10.7259,10.7259,10.7259,10.7259,10.7259,0.0,10.5514,10.5282,10.7201,10.7259,10.7259,10.7259,10.7259,10.7259,10.7259,10.7259,10.7259,10.7259,10.7259,10.7259,10.7259,10.7259,10.7259,10.7259,10.7259,10.7259,10.7358,10.7982,11.0596,11.4322,11.5016,11.7687,12.1258,12.1258,12.1258,12.1258,12.1258,12.1258,12.1258,12.1258,12.1258,12.1258,12.1258,12.1258,12.1258,12.1258,12.1258,12.1258,12.1258,11.9088,11.6853,11.6853,11.4617,11.2513,11.2513,11.2513,11.2513,11.2513,11.2513,11.2513,11.2513,11.2513,11.3499,11.6392,11.6853,11.7905,12.0864,12.1258,12.0141,11.7116,11.6853,11.5669,11.2776,11.2513,11.2513,11.2513,11.2513,11.2513,11.2513,11.2513,11.2513,11.2513,11.2513,11.2513,11.2513,11.2513,11.2513,11.2513,11.2513,11.2513,0.0,0.0,0.0,0.0,0.0,6.9467,8.1688,8.7745,9.2299,9.8115,10.342,10.7027,10.7143,10.7201,10.7259,10.7259,10.7259,10.7259,10.7259,10.7259,10.7259,10.7259,10.7259,10.7259,10.7259,10.7259,10.7259,10.7259,10.7201,10.7201,10.7259,10.7259,10.7259,10.7259,10.7259,10.7259,10.7259,10.7259,10.7259,10.7259,10.7259,10.7259,10.7259,10.7259,10.7259,10.7259,10.7259,10.7259,10.7456,10.9719,11.2097,11.4497,11.686,11.919,12.1258,12.1258,12.1258,12.1258,12.1258,12.1258,12.1258,12.1258,12.1258,12.1258,12.1258,12.1258,12.1258,12.1258,12.1258,12.1258,12.1258,11.9088,11.6853,11.6853,11.4617,11.2513,11.2513,11.2513,11.2513,11.2513,11.2513,11.2513,11.2513,11.2513,11.3499,11.6392,11.6853,11.7905,12.0864,12.1258,12.0141,11.7116,11.6853,11.5669,11.2776,11.2513,11.2513,11.2513,11.2513,11.2513,11.2513,11.2513,11.2513,11.2513,11.2513,11.2513,11.2513,11.2513,11.2513,11.2513,11.2513,11.2513,6.4549,0.0,0.0,0.0,7.7642,7.9667,8.7205,9.2939,9.7174,9.9109,10.3653,10.6736,10.4991,10.6096,10.7259,10.7259,10.7259,10.7259,10.7259,10.7259,10.7259,10.7259,10.7259,10.7259,10.7259,10.7259,10.7259,10.7259,10.5689,0.0,10.7201,10.5631,10.5514,10.7201,10.7259,10.7259,10.7259,10.7259,10.7259,10.7259,10.7259,10.7259,10.7259,10.7259,10.7259,10.7259,10.7259,10.8117,10.9719,11.0503,11.3025,11.661,11.5787,11.7851,12.1105,11.9508,11.9967,12.1258,12.1258,12.1258,12.1258,12.1258,12.1258,12.1258,12.1258,12.1258,12.1258,12.1258,12.1258,12.1258,12.1258,12.0535,11.9286,11.7313,11.534,11.3696,11.2776,11.2513,11.2513,11.2513,11.2513,11.2513,11.2513,11.2513,11.317,11.5143,11.6261,11.7576,11.9615,12.0667,12.0141,11.7116,11.6853,11.5669,11.2776,11.2513,11.2513,11.2513,11.2513,11.2513,11.2513,11.2513,11.2513,11.2513,11.2513,11.2513,11.2513,11.2513,11.2513,11.2513,11.2513,11.2513,6.791,6.8936,7.0573,8.258,8.5176,8.6419,9.2654,9.6853,9.9814,10.0745,10.4293,10.6794,10.5107,10.6154,10.7259,10.7259,10.7259,10.7259,10.7259,10.7259,10.7259,10.7259,10.7259,10.7259,10.7259,10.7259,10.7259,10.7259,10.5747,10.5514,10.7201,10.5689,10.5514,10.7201,10.7259,10.7259,10.7259,10.7259,10.7259,10.7259,10.7259,10.7259,10.7259,10.7259,10.7259,10.7259,10.7259,10.8176,10.9625,11.1428,11.3884,11.6462,11.5787,11.7915,12.1029,11.8645,11.927,12.1258,12.1258,12.1258,12.1258,12.1258,12.1258,12.1258,12.1258,12.1258,12.1258,12.1258,12.1258,12.1258,12.1258,12.1258,12.0667,11.8234,11.6524,11.4946,11.2973,11.2513,11.2513,11.2513,11.2513,11.2513,11.2513,11.2513,11.3039,11.4485,11.5932,11.7379,11.8957,12.0404,12.0338,11.7905,11.7181,11.5866,11.3499,11.2841,11.2513,11.2513,11.2513,11.2513,11.2513,11.2513,11.2513,11.2513,11.2513,11.2513,11.2513,11.2513,11.2513,11.2513,11.2513,11.2513,6.8535,7.0875,7.4237,8.826,8.9845,9.0054,9.8115,9.9872,10.0454,10.3071,10.5573,10.7259,10.7259,10.7259,10.7259,10.7259,10.7259,10.7259,10.7259,10.7259,10.7259,10.7259,10.7259,10.7259,10.7259,10.7259,10.7259,10.7259,10.7259,10.7259,10.7259,10.7259,10.7259,10.7259,10.7259,10.7259,10.7259,10.7259,10.7259,10.7259,10.7259,10.7259,10.7259,10.7259,10.7259,10.7259,10.7259,10.7456,10.7982,11.2278,11.4322,11.4844,11.686,11.911,12.1029,11.8645,11.927,12.1258,12.1258,12.1258,12.1258,12.1258,12.1258,12.1258,12.1258,12.1258,12.1258,12.1258,12.1258,12.1258,12.1258,12.1258,12.093,11.9483,11.7971,11.6064,11.3236,11.2578,11.2513,11.2513,11.2513,11.2513,11.2513,11.2513,11.2973,11.442,11.5866,11.7379,11.8825,12.0338,12.0732,11.9286,11.7773,11.6261,11.4814,11.3367,11.2513,11.2513,11.2513,11.2513,11.2513,11.2513,11.2513,11.2513,11.2513,11.2513,11.2513,11.2513,11.2513,11.2513,11.2513,11.2513,7.6723,8.0369,8.3829,9.9332,9.975,9.7991,10.3965,10.3828,10.313,10.5747,10.6794,10.7259,10.7259,10.7259,10.7259,10.7259,10.7259,10.7259,10.7259,10.7259,10.7259,10.7259,10.7259,10.7259,10.7259,10.7259,10.7259,10.7259,10.7259,10.7259,10.7259,10.7259,10.7259,10.7259,10.7259,10.7259,10.7259,10.7259,10.7259,10.7259,10.7259,10.7259,10.7259,10.7259,10.7259,10.7259,10.7259,10.9305,11.2459,11.1915,11.4781,11.927,11.6294,11.7687,12.1029,11.8645,11.927,12.1258,12.1258,12.1258,12.1258,12.1258,12.1258,12.1258,12.1258,12.1258,12.1258,12.1258,12.1258,12.1258,12.1258,12.1258,12.093,11.9483,11.7971,11.6327,11.4551,11.3302,11.2513,11.2513,11.2513,11.2513,11.2513,11.2513,11.2644,11.3039,11.5209,11.6984,11.7379,11.968,12.0732,11.9286,11.7773,11.6261,11.4814,11.3367,11.2513,11.2513,11.2513,11.2513,11.2513,11.2513,11.2513,11.2513,11.2513,11.2513,11.2513,11.2513,11.2513,11.2513,11.2513,11.2513,7.6064,8.2706,8.9861,10.2428,10.2548,10.0919,10.6096,10.5282,10.4118,10.6736,10.7259,10.7259,10.7259,10.7259,10.7259,10.7259,10.7259,10.7259,10.7259,10.7259,10.7259,10.7259,10.7259,10.7259,10.7259,10.7259,10.7259,10.7259,10.7259,10.7259,10.7259,10.7259,10.7259,10.7259,10.7259,10.7259,10.7259,10.7259,10.7259,10.7259,10.7259,10.7259,10.7259,10.7259,10.7259,10.7358,10.8407,11.0377,11.2818,11.3557,11.621,11.9508,11.686,11.8014,12.1029,11.8645,11.927,12.1258,12.1258,12.1258,12.1258,12.1258,12.1258,12.1258,12.1258,12.1258,12.1258,12.1258,12.1258,12.1258,12.1258,12.1258,12.093,11.9483,11.7971,11.6261,11.4222,11.3104,11.2513,11.2513,11.2513,11.2513,11.2513,11.2513,11.2513,11.2513,11.5011,11.6853,11.6853,11.9417,12.0995,12.0206,11.8102,11.6524,11.5735,11.3696,11.2513,11.2513,11.2513,11.2513,11.2513,11.2513,11.2513,11.2513,11.2513,11.2513,11.2513,11.2513,11.2513,11.2513,11.2513,11.2513,7.2453,8.1835,9.3209,10.1418,10.1966,10.1675,10.5805,10.5282,10.4526,10.6794,10.7259,10.7259,10.7259,10.7259,10.7259,10.7259,10.7259,10.7259,10.7259,10.7259,10.7259,10.7259,10.7259,10.7259,10.7259,10.7259,10.7259,10.7259,10.7259,10.7259,10.7259,10.7259,10.7259,10.7259,10.7259,10.7259,10.7259,10.7259,10.7259,10.7259,10.7259,10.7259,10.7259,10.7259,10.7259,10.7358,10.9495,11.0689,11.155,11.5297,11.7441,11.8241,11.7851,11.927,12.1029,11.903,11.9508,12.1258,12.1258,12.1258,12.1258,12.1258,12.1258,12.1258,12.1258,12.1258,12.1258,12.1258,12.1258,12.1258,12.1258,12.1258,12.0864,11.922,11.7839,11.6064,11.3367,11.2644,11.2513,11.2513,11.2513,11.2513,11.2513,11.2513,11.2513,11.2513,11.5011,11.6853,11.6853,11.9417,12.1258,12.1258,11.8825,11.705,11.6853,11.4354,11.271,11.2513,11.2513,11.2513,11.2513,11.2513,11.2513,11.2513,11.2513,11.2513,11.2513,11.2513,11.2513,11.2513,11.2513,11.2513,7.7647,8.5282,9.4164,10.1498,10.47,10.5631,10.4351,10.5398,10.6736,10.7201,10.7259,10.7259,10.7259,10.7259,10.7259,10.7259,10.7259,10.7259,10.7259,10.7259,10.7259,10.7259,10.7259,10.7259,10.7259,10.7259,10.7259,10.7259,10.7259,10.7259,10.7259,10.7259,10.7259,10.7259,10.7259,10.7259,10.7259,10.7259,10.7259,10.7259,10.7259,10.7259,10.7259,10.7259,10.7259,10.7259,10.769,11.0096,11.3619,11.2459,11.5383,12.05,11.8564,11.927,12.1258,12.0875,12.0952,12.1258,12.1258,12.1258,12.1258,12.1258,12.1258,12.1258,12.1258,12.1258,12.1258,12.1258,12.1258,12.1258,12.1258,12.1258,12.0601,11.7905,11.705,11.6392,11.4683,11.3367,11.2513,11.2513,11.2513,11.2513,11.2513,11.2513,11.2513,11.2513,11.5011,11.6853,11.6853,11.9417,12.1258,12.1258,11.9746,11.8234,11.6918,11.5274,11.3828,11.2578,11.2513,11.2513,11.2513,11.2513,11.2513,11.2513,11.2513,11.2513,11.2513,11.2513,11.2513,11.2513,11.2513,11.2513,8.0609,8.6815,9.3099,9.6612,9.9349,10.2024,10.4758,10.534,10.5631,10.7027,10.6212,10.5689,10.7027,10.7259,10.7259,10.7259,10.7259,10.7259,10.7259,10.7259,10.7259,10.7259,10.7259,10.7259,10.7259,10.7259,10.7259,10.7259,10.7259,10.7259,10.7259,10.7259,10.7259,10.7259,10.7259,10.7259,10.7259,10.7259,10.7259,10.7259,10.7259,10.7259,10.7259,10.7259,10.7259,10.7456,10.9814,11.2188,11.4409,11.5724,11.8258,12.1182,12.0045,12.0279,12.1258,12.1258,12.1258,12.1258,12.1258,12.1258,12.1258,12.1258,12.1258,12.1258,12.1258,12.1258,12.1258,12.1258,12.1258,12.1258,12.1258,12.1258,12.0732,11.8562,11.8036,11.7444,11.5209,11.4157,11.3433,11.2644,11.2513,11.2513,11.2513,11.2513,11.2513,11.2513,11.5011,11.6853,11.6853,11.9417,12.1258,12.1258,12.0009,11.8825,11.8102,11.5998,11.442,11.3696,11.2973,11.2513,11.2513,11.2513,11.2513,11.2513,11.2513,11.2513,11.2513,11.2513,11.2513,11.2513,11.2513,11.2513,8.3191,8.8198,9.266,9.4056,9.487,9.7227,10.406,10.406,10.342,10.662,10.5456,10.4526,10.6852,10.7085,10.6969,10.7259,10.7259,10.7259,10.7259,10.7259,10.7259,10.7259,10.7259,10.7259,10.7259,10.7259,10.7259,10.7259,10.7259,10.7259,10.7259,10.7259,10.7259,10.7259,10.7259,10.7259,10.7259,10.7259,10.7259,10.7259,10.7259,10.7259,10.7259,10.7259,10.7259,10.7553,11.1703,11.3796,11.4584,11.8806,12.0875,12.1258,12.1258,12.1258,12.1258,12.1258,12.1258,12.1258,12.1258,12.1258,12.1258,12.1258,12.1258,12.1258,12.1258,12.1258,12.1258,12.1258,12.1258,12.1258,12.1258,12.1258,12.0995,11.9878,11.9417,11.8431,11.5735,11.4946,11.4288,11.2776,11.2513,11.2513,11.2513,11.2513,11.2513,11.2513,11.4748,11.6458,11.6787,11.9154,12.093,12.1258,12.0272,11.9483,11.922,11.6984,11.5537,11.5209,11.3762,11.2973,11.2973,11.271,11.2513,11.2513,11.2513,11.2513,11.2513,11.2513,11.2513,11.2513,11.2513,11.2513,8.6773,9.0656,9.5103,10.0861,9.8127,9.5103,9.9291,10.0105,10.1326,10.6271,10.6154,10.5631,10.7027,10.6329,10.5922,10.7085,10.7259,10.7259,10.7259,10.7259,10.7259,10.7259,10.7259,10.7259,10.7259,10.7259,10.7259,10.7259,10.7259,10.7259,10.7259,10.7259,10.7259,10.7259,10.7259,10.7259,10.7259,10.7259,10.7259,10.7259,10.7259,10.7259,10.7259,10.7259,10.7259,10.7456,11.0002,11.2368,11.4497,11.711,11.9349,12.1258,12.1258,12.1258,12.1258,12.1258,12.1258,12.1258,12.1258,12.1258,12.1258,12.1258,12.1258,12.1258,12.1258,12.1258,12.1258,12.1258,12.1258,12.1258,12.1258,12.1258,12.1258,12.1127,12.0075,11.8694,11.6984,11.5603,11.4288,11.2776,11.2513,11.2513,11.2513,11.2513,11.2513,11.2513,11.3894,11.534,11.6655,11.8299,11.9878,12.1127,12.1193,12.0535,11.9286,11.8891,11.8168,11.6721,11.5274,11.4551,11.4551,11.3236,11.2513,11.2513,11.2513,11.2513,11.2513,11.2513,11.2513,11.2513,11.2513,11.2513,8.1672,8.5143,8.8879,9.2194,9.3416,9.423,9.5801,9.7313,9.964,10.4002,10.4526,10.3595,10.1792,10.4235,10.5922,10.406,10.5747,10.7259,10.7259,10.7259,10.7259,10.7259,10.7259,10.7259,10.7259,10.7259,10.7259,10.7259,10.7259,10.7259,10.7259,10.7259,10.7259,10.7259,10.7259,10.7259,10.7259,10.7259,10.7259,10.7259,10.7259,10.7259,10.7259,10.7259,10.7259,10.7358,10.8273,11.0782,11.4584,11.8403,12.05,12.1258,12.1258,12.1258,12.1258,12.1258,12.1258,12.1258,12.1258,12.1258,12.1258,12.1258,12.1258,12.1258,12.1258,12.1258,12.1258,12.1258,12.1258,12.1258,12.1258,12.1258,12.1258,12.1258,12.0864,11.9746,11.7313,11.6392,11.5274,11.2973,11.2513,11.2513,11.2513,11.2513,11.2513,11.2513,11.3039,11.4222,11.6524,11.8957,12.0667,12.1193,12.1258,12.1061,12.0469,11.968,11.8891,11.8299,11.5998,11.5077,11.5932,11.3762,11.2513,11.2513,11.2513,11.2513,11.2513,11.2513,11.2513,11.2513,11.2513,11.2513,7.854,8.1608,8.4671,8.6785,8.946,9.2369,9.5452,9.6033,9.7371,10.2373,10.3711,10.3013,9.993,10.2722,10.4758,10.2432,10.4351,10.6387,10.7143,10.7259,10.7259,10.7259,10.7259,10.7259,10.7259,10.7259,10.7259,10.7259,10.7259,10.7259,10.7259,10.7259,10.7259,10.7259,10.7259,10.7259,10.7259,10.7259,10.7259,10.7259,10.7259,10.7259,10.7259,10.7259,10.7749,10.8311,10.8311,11.0967,11.5617,11.895,12.0655,12.1258,12.1258,12.1258,12.1258,12.1258,12.1258,12.1258,12.1258,12.1258,12.1258,12.1258,12.1258,12.1258,12.1258,12.1258,12.1258,12.1258,12.1258,12.1258,12.1258,12.1258,12.1258,12.1258,12.1258,12.0469,11.7444,11.6853,11.5998,11.3104,11.2513,11.2513,11.2513,11.2513,11.2513,11.2513,11.2513,11.3433,11.5866,11.8365,12.0272,12.1193,12.1258,12.1258,12.1258,12.0338,11.9812,11.9812,11.6984,11.5801,11.6787,11.4485,11.2973,11.2513,11.2513,11.2513,11.2513,11.2513,11.2513,11.2513,11.2513,11.2513,7.9943,8.2306,8.5078,8.8972,8.8064,8.8879,9.9058,9.6499,9.4172,10.1792,10.4409,10.4933,10.3595,10.2315,10.1908,10.3188,10.342,10.4293,10.691,10.7259,10.7259,10.7259,10.7259,10.7259,10.7259,10.7259,10.7259,10.7259,10.7259,10.7259,10.7259,10.7259,10.7259,10.7259,10.7259,10.7259,10.7259,10.7259,10.7259,10.7259,10.7259,10.7259,10.7259,10.7259,10.86,11.0782,11.0782,11.338,11.7769,11.7769,11.919,12.1258,12.1258,12.1258,12.1258,12.1258,12.1258,12.1258,12.1258,12.1258,12.1258,12.1258,12.1258,12.1258,12.1258,12.1258,12.1258,12.1258,12.1258,12.1258,12.1258,12.1258,12.1258,12.1258,12.1258,12.0469,11.7444,11.6853,11.5998,11.3104,11.2513,11.2513,11.2513,11.2513,11.2513,11.2513,11.2513,11.3039,11.4551,11.5998,11.7971,12.0995,12.1258,12.1258,12.1258,12.1258,12.1258,12.1258,11.8431,11.6787,11.6853,11.5472,11.4025,11.2578,11.2513,11.2513,11.2513,11.2513,11.2513,11.2513,11.2513,11.2513,7.8729,8.0968,8.4284,8.9926,8.8704,8.8821,9.9116,9.7197,9.5684,10.4293,10.2199,9.8418,9.708,10.0105,10.2606,10.2141,10.4293,10.6329,10.7143,10.7259,10.7259,10.7259,10.7259,10.7259,10.7259,10.7259,10.7259,10.7259,10.7259,10.7259,10.7259,10.7259,10.7259,10.7259,10.7259,10.7259,10.7259,10.7259,10.7259,10.7259,10.7259,10.7259,10.7259,10.7259,10.86,11.0782,11.0782,11.3469,11.7769,11.7769,11.919,12.1258,12.1258,12.1258,12.1258,12.1258,12.1258,12.1258,12.1258,12.1258,12.1258,12.1258,12.1258,12.1258,12.1258,12.1258,12.1258,12.1258,12.1258,12.1258,12.1258,12.1258,12.1258,12.1258,12.1258,12.0469,11.7444,11.6853,11.5998,11.3104,11.2513,11.2513,11.2513,11.2513,11.2513,11.2513,11.2513,11.3039,11.4551,11.5932,11.7576,11.9615,12.0732,12.1258,12.1258,12.1258,12.1258,12.1258,11.9483,11.7905,11.6853,11.5472,11.4025,11.2578,11.2513,11.2513,11.2513,11.2513,11.2513,11.2513,11.2513,11.2513,7.9514,8.1492,8.4342,8.9868,8.8646,8.8704,9.8534,9.5684,9.3474,10.249,10.0163,9.6557,9.6731,9.9581,10.1966,10.2141,10.4235,10.6154,10.7143,10.7259,10.7259,10.7259,10.7259,10.7259,10.7259,10.7259,10.7259,10.7259,10.7259,10.7259,10.7259,10.7259,10.7259,10.7259,10.7259,10.7259,10.7259,10.7259,10.7259,10.7259,10.7259,10.7259,10.7358,10.8273,10.9908,11.2188,11.3025,11.5554,11.911,11.911,11.9967,12.1258,12.1258,12.1258,12.1258,12.1258,12.1258,12.1258,12.1258,12.1258,12.1258,12.1258,12.1258,12.1258,12.1258,12.1258,12.1258,12.1258,12.1258,12.1258,12.1258,12.1258,12.1258,12.1258,12.1258,12.0469,11.7444,11.6853,11.5998,11.3104,11.2513,11.2513,11.2513,11.2513,11.2513,11.2513,11.2513,11.3039,11.4551,11.5472,11.6853,11.8957,11.9943,12.0667,12.1258,12.1258,12.1258,12.1258,12.0469,11.9286,11.7773,11.6261,11.4814,11.3367,11.2776,11.2513,11.2513,11.2513,11.2513,11.2513,11.2513,11.2513,8.1741,8.3295,8.5136,8.9204,8.8355,8.8762,9.7778,9.2892,8.8937,9.7836,9.827,9.7979,10.0687,10.0163,10.0105,10.2664,10.342,10.4409,10.6678,10.7027,10.7027,10.7027,10.7027,10.7027,10.7027,10.7143,10.7259,10.7259,10.7259,10.7259,10.7259,10.7259,10.7259,10.7259,10.7259,10.7259,10.7259,10.7259,10.7201,10.7027,10.7339,10.7437,10.7359,10.9882,11.2368,11.467,11.644,11.8836,12.1258,12.0843,12.0985,12.1258,12.1258,12.1258,12.1258,12.1258,12.1258,12.1258,12.1258,12.1258,12.1258,12.1258,12.1258,12.1258,12.1258,12.1258,12.1258,12.1258,12.1258,12.1258,12.1258,12.1258,12.1258,12.1258,12.1258,12.0469,11.7642,11.6918,11.5998,11.3236,11.2578,11.2513,11.2513,11.2513,11.2513,11.2513,11.2513,11.3039,11.4354,11.4683,11.5801,11.8694,11.9088,11.9746,12.1193,12.1258,12.1258,12.1258,12.1258,12.0667,11.922,11.7773,11.6261,11.4748,11.3367,11.2644,11.2513,11.2513,11.2513,11.2513,11.2513,11.2513,8.1974,8.3295,8.5543,9.1496,9.1031,9.1496,10.0454,9.5568,9.138,9.9407,9.6906,0.0,0.0,9.7487,9.7487,10.0047,10.3769,10.5863,10.4467,10.4293,10.4293,10.4293,10.4293,10.4293,10.4293,10.6096,10.7259,10.7259,10.7259,10.7259,10.7259,10.7259,10.7259,10.7259,10.7259,10.7259,10.7259,10.7259,10.6271,10.4388,10.8167,10.8926,10.7104,11.1541,11.4757,11.6817,11.3519,11.5559,12.0985,11.7183,11.787,12.1258,12.1258,12.1258,12.1258,12.1258,12.1258,12.1258,12.1258,12.1258,12.1258,12.1258,12.1258,12.1258,12.1258,12.1258,12.1258,12.1258,12.1258,12.1258,12.1258,12.1258,12.1258,12.1258,12.1258,12.0798,11.9023,11.7642,11.6327,11.4551,11.3302,11.2513,11.2513,11.2513,11.2513,11.2513,11.2513,11.2644,11.2973,11.4025,11.5406,11.7181,11.8431,11.9746,12.1193,12.1258,12.1258,12.1258,12.1258,12.0667,11.922,11.8825,11.7379,11.4748,11.4354,11.3631,11.2513,11.2513,11.2513,11.2513,11.2513,11.2513,8.3586,8.504,8.6843,9.0333,9.0158,9.0566,9.6033,9.3067,0.0,0.0,0.0,0.0,0.0,9.9523,10.0338,9.8185,10.1152,10.3246,10.1792,10.2606,10.2955,10.1734,10.3711,10.47,10.3479,10.5747,10.7259,10.7259,10.7259,10.7259,10.7259,10.7259,10.7259,10.7259,10.7259,10.7259,10.7259,10.7259,10.598,10.3515,10.8467,10.9488,10.7105,11.3165,11.6546,11.7705,0.0,11.7622,12.1051,11.8428,11.8908,12.1258,12.1258,12.1258,12.1258,12.1258,12.1258,12.1258,12.1258,12.1258,12.1258,12.1258,12.1258,12.1258,12.1258,12.1258,12.1258,12.1258,12.1258,12.1258,12.1258,12.1258,12.1258,12.1258,12.1258,12.0864,11.9483,11.8497,11.7247,11.5143,11.4091,11.3302,11.2644,11.2513,11.2513,11.2513,11.2513,11.2513,11.2513,11.3236,11.4485,11.659,11.7576,11.8957,12.1127,12.1258,12.1258,12.1258,12.1258,12.093,12.0141,11.9483,11.8036,11.5735,11.5011,11.4025,11.2513,11.2513,11.2513,11.2513,11.2513,11.2513,8.5272,8.6785,8.7832,8.8239,8.8064,8.8239,9.0158,0.0,0.0,0.0,0.0,0.0,0.0,10.1675,10.3362,9.6936,9.7546,9.9116,9.9523,10.1443,10.1966,9.9814,10.342,10.5398,10.3537,10.5747,10.7259,10.7259,10.7259,10.7259,10.7259,10.7259,10.7259,10.7259,10.7259,10.7259,10.7259,10.7259,10.598,10.3515,10.8779,10.9974,10.7666,11.5029,11.8322,11.8339,0.0,12.0569,12.1258,12.0504,12.0569,12.1258,12.1258,12.1258,12.1258,12.1258,12.1258,12.1258,12.1258,12.1258,12.1258,12.1258,12.1258,12.1258,12.1258,12.1258,12.1258,12.1258,12.1258,12.1258,12.1258,12.1258,12.1258,12.1258,12.1258,12.093,11.9746,11.9286,11.8365,11.5603,11.488,11.4288,11.2776,11.2513,11.2513,11.2513,11.2513,11.2513,11.2513,11.2513,11.3631,11.6524,11.6853,11.8036,12.0995,12.1258,12.1258,12.1258,12.1258,12.1258,12.1258,12.0141,11.8628,11.6853,11.5669,11.4222,11.2513,11.2513,11.2513,11.2513,11.2513,11.2513,8.4323,8.5447,8.6959,8.917,8.8064,8.7657,9.2252,0.0,0.0,0.0,9.5161,9.5742,9.4637,9.615,9.7227,9.6063,9.6179,9.708,9.9232,9.9872,9.9989,9.9581,10.0279,10.1443,10.3188,10.5747,10.7259,10.7259,10.7259,10.7259,10.7259,10.7259,10.7259,10.7259,10.7259,10.7259,10.7259,10.7259,10.598,10.3515,11.0457,11.2397,11.0111,11.7435,12.0732,12.0524,11.6678,0.0,12.0985,11.6769,11.7456,12.1258,12.1258,12.1258,12.1258,12.1258,12.1258,12.1258,12.1258,12.1258,12.1258,12.1258,12.1258,12.1258,12.1258,12.1258,12.1258,12.1258,12.1258,12.1258,12.1258,12.1258,12.1258,12.1258,12.1258,12.1193,12.0995,12.0009,11.8628,11.6853,11.5537,11.4288,11.2776,11.2513,11.2513,11.2513,11.2513,11.2513,11.2513,11.2513,11.3631,11.6524,11.6853,11.8036,12.0995,12.1258,12.1258,12.1258,12.1258,12.1258,12.1258,12.1061,11.968,11.6918,11.659,11.5209,11.2513,11.2513,11.2513,11.2513,11.2513,11.2513,8.4148,8.4555,8.5311,8.6531,8.7017,8.7774,9.0158,9.0449,9.1031,9.4316,9.5481,9.5655,9.5073,9.6499,9.7371,9.6063,9.6906,9.8244,9.9407,10.0745,10.1094,9.9756,10.2024,10.3653,10.342,10.5747,10.7259,10.7259,10.7259,10.7259,10.7259,10.7259,10.7259,10.7259,10.7259,10.7259,10.7259,10.7259,10.6597,10.5387,11.1441,11.2169,10.8615,11.7339,11.9804,11.7391,11.774,11.9181,12.1127,11.8843,11.9258,12.1258,12.1258,12.1258,12.1258,12.1258,12.1258,12.1258,12.1258,12.1258,12.1258,12.1258,12.1258,12.1258,12.1258,12.1258,12.1258,12.1258,12.1258,12.1258,12.1258,12.1258,12.1258,12.1258,12.1258,12.1258,12.1258,12.0732,11.9878,11.8365,11.7576,11.6392,11.4091,11.3696,11.3433,11.2644,11.2513,11.2513,11.2513,11.2513,11.3631,11.6524,11.6853,11.8036,12.0995,12.1258,12.1258,12.1258,12.1258,12.1258,12.1258,12.1258,12.0601,11.9286,11.7642,11.5406,11.2513,11.2513,11.2513,11.2513,11.2513,11.2513,8.5252,0.0,8.6959,8.6959,8.7948,8.9053,0.0,9.0507,9.2136,9.4405,9.5422,9.5655,9.5073,9.6964,9.7836,9.5277,9.7487,9.9349,9.8767,10.0861,10.1734,9.9814,10.3595,10.5805,10.4409,10.6096,10.7259,10.7259,10.7259,10.7259,10.7259,10.7259,10.7259,10.7259,10.7259,10.7259,10.7259,10.7788,10.8013,10.786,11.2805,11.2388,10.7739,11.7093,11.8635,11.4142,11.9115,12.1258,12.1258,12.1258,12.1258,12.1258,12.1258,12.1258,12.1258,12.1258,12.1258,12.1258,12.1258,12.1258,12.1258,12.1258,12.1258,12.1258,12.1258,12.1258,12.1258,12.1258,12.1258,12.1258,12.1258,12.1258,12.1258,12.1258,12.1258,12.1258,12.1258,12.1258,12.0864,11.9417,11.9154,11.8299,11.5669,11.4946,11.4354,11.3236,11.2776,11.2513,11.2513,11.2513,11.3631,11.6524,11.6853,11.8036,12.0995,12.1258,12.1258,12.1258,12.1258,12.1258,12.1258,12.1258,12.1258,12.1258,11.8365,11.5735,11.3565,11.2841,11.2513,11.2513,11.2513,11.2513,0.0,9.2252,9.5015,9.5015,9.3299,9.1962,9.3183,9.1729,0.0,9.1962,9.4114,9.5131,9.266,9.4288,9.5306,9.266,9.6382,9.8767,9.647,9.8244,9.9756,9.9581,10.1966,10.4526,10.6794,10.7143,10.7259,10.7259,10.7259,10.7259,10.7259,10.7259,10.7259,10.7259,10.7259,10.7259,10.7259,10.9436,11.0569,11.0573,11.532,11.4961,11.0387,11.7844,11.8635,11.4142,11.9115,12.1258,12.1258,12.1258,12.1258,12.1258,12.1258,12.1258,12.1258,12.1258,12.1258,12.1258,12.1258,12.1258,12.1258,12.1258,12.1258,12.1258,12.1258,12.1258,12.1258,12.1258,12.1258,12.1258,12.1258,12.1258,12.1258,12.1258,12.1258,12.1258,12.1258,12.1258,12.0864,11.9417,11.9154,11.8628,11.6984,11.5603,11.4683,11.4551,11.3433,11.2513,11.2513,11.2513,11.3631,11.6524,11.6853,11.8036,12.0995,12.1258,12.1258,12.1258,12.1258,12.1258,12.1258,12.1258,12.1258,12.1258,11.8365,11.6721,11.6524,11.3828,11.2513,11.2513,11.2513,11.2513,9.0391,9.3474,9.583,9.583,9.5626,9.5219,9.4114,9.3707,9.3299,9.2194,9.2718,9.3125,9.2136,9.2718,9.359,9.423,9.5917,9.7953,10.0313,10.1326,10.2548,10.4177,10.5224,10.6212,10.7201,10.5805,10.5514,10.7143,10.5747,10.5573,10.7201,10.7259,10.86,11.1611,11.0283,11.019,11.1611,11.2549,11.3708,11.5126,11.688,11.5972,11.2747,11.8664,11.8635,11.4142,11.9115,11.9531,0.0,12.0012,11.9465,11.6976,12.0088,12.1258,12.1258,12.1258,12.1258,12.1258,12.1258,12.1258,12.1258,12.1258,12.1258,12.1258,12.1258,12.1258,12.1258,12.1258,12.1258,12.1258,12.1258,12.1258,12.1258,12.1258,12.1258,12.1258,12.1258,12.1258,12.1127,12.0601,12.0469,12.0009,11.8562,11.7839,11.6853,11.5011,11.4222,11.3565,11.2644,11.3302,11.4617,11.659,11.7708,11.9088,12.1127,12.1258,12.1258,12.1258,12.1258,12.1258,12.1258,12.1258,12.1258,12.1258,11.8365,11.6853,11.6853,11.3959,11.2513,11.2513,11.2513,11.2513,9.423,9.7138,9.9498,9.9498,9.9465,9.8825,9.6266,9.5742,9.5131,9.2485,9.1962,9.1962,9.1962,9.1962,9.2776,9.5422,9.583,0.0,10.1559,10.2141,10.313,10.5747,10.6038,10.6387,10.7201,10.5689,10.534,10.7143,10.6283,10.6524,10.8348,10.8407,10.9908,11.3086,11.2368,11.2639,11.4322,11.5016,11.621,11.7769,11.8564,11.7162,11.4078,11.905,11.8635,11.4142,11.9115,11.8493,11.4285,11.9258,11.8428,11.4349,11.9323,12.1258,12.1258,12.1258,12.1258,12.1258,12.1258,12.1258,12.1258,12.1258,12.1258,12.1258,12.1258,12.1258,12.1258,12.1258,12.1258,12.1258,12.1258,12.1258,12.1258,12.1258,12.1258,12.1258,12.1258,12.1258,12.1258,12.1258,12.1258,12.0995,12.0009,11.9483,11.8299,11.5801,11.5011,11.4157,11.271,11.3828,11.5274,11.6655,11.8234,11.9746,12.1193,12.1258,12.1258,12.1258,12.1258,12.1258,12.1258,12.1258,12.1258,12.1258,11.8365,11.6853,11.6853,11.3959,11.2513,11.2513,11.2513,11.2513,10.0745,10.4293,10.7259,10.7259,10.534,10.2722,10.0163,9.7604,9.519,9.2485,9.1962,9.1962,9.1962,9.1962,9.2776,9.5422,0.0,0.0,9.9232,9.9581,10.057,10.313,10.342,10.4409,10.6969,10.7259,10.7259,10.7358,10.9436,11.0722,11.0782,11.0875,11.0875,11.0967,11.3176,11.4322,11.4409,11.663,11.7851,11.7851,12.0201,11.87,11.4142,11.905,11.8635,11.4285,11.9115,11.8493,0.0,11.9258,11.8285,11.4349,11.9323,12.1258,12.1258,12.1258,12.1258,12.1258,12.1258,12.1258,12.1258,12.1258,12.1258,12.1258,12.1258,12.1258,12.1258,12.1258,12.1258,12.1258,12.1258,12.1258,12.1258,12.1258,12.1258,12.1258,12.1258,12.1258,12.1258,12.1258,12.1258,12.1258,12.1258,12.0075,11.8628,11.705,11.5669,11.4222,11.2776,11.3828,11.5274,11.6721,11.8299,11.9746,12.1193,12.1258,12.1258,12.1258,12.1258,12.1258,12.1258,12.1258,12.1258,12.1258,11.8365,11.6853,11.6853,11.3959,11.2513,11.2513,11.2513,11.2513,9.9698,10.3653,10.7259,10.7259,10.6678,10.4991,10.057,9.9,9.7197,9.2834,9.1962,9.1962,9.1962,9.1962,9.2776,0.0,0.0,9.7344,10.1617,10.2257,10.3188,10.5805,10.6154,10.5689,10.4642,10.4526,10.5228,10.6884,10.7648,10.8885,11.0661,11.2368,11.4844,11.8095,11.7276,11.7523,11.919,11.9888,12.0201,12.0279,12.0952,12.0569,11.9115,12.0635,12.0504,11.9181,12.0635,11.6562,10.9382,11.7805,11.6354,10.9588,11.8013,12.1258,12.1258,12.1258,12.1258,12.1258,12.1258,12.1258,12.1258,12.1258,12.1258,12.1258,12.1258,12.1258,12.1258,12.1258,12.1258,12.1258,12.1258,12.1258,12.1258,12.1258,12.1258,12.1258,12.1258,12.1258,12.1258,12.1258,12.1258,12.1258,12.1258,12.093,12.0141,11.8694,11.8102,11.7313,11.5735,11.6918,11.8036,11.8431,12.0732,12.1916,12.1324,12.1258,12.1258,12.1258,12.1258,12.1258,12.1258,12.1258,12.1258,12.1258,11.8365,11.6853,11.6853,11.3959,11.2513,11.2513,11.2513,11.2513,10.2141,10.4933,10.7259,10.7259,10.7259,10.6212,10.2024,10.0279,9.8418,9.4346,9.266,9.2252,9.3299,9.3474,9.4288,0.0,0.0,0.0,10.1268,10.185,10.2839,10.5398,10.5747,10.5514,10.4991,10.483,10.5802,10.8312,10.9362,11.0568,11.2127,11.4409,11.7027,11.9809,11.9428,11.9888,12.1258,12.1258,12.1258,12.1258,12.1258,12.1258,12.1258,12.1258,12.1258,12.1258,12.1258,11.6769,11.0063,11.8013,11.6626,11.0269,11.822,12.1258,12.1258,12.1258,12.1258,12.1258,12.1258,12.1258,12.1258,12.1258,12.1258,12.1258,12.1258,12.1258,12.1258,12.1258,12.1258,12.1258,12.1258,12.1258,12.1258,12.1258,12.1258,12.1258,12.1258,12.1258,12.1258,12.1258,12.1258,12.1258,12.1258,12.1258,12.0798,11.9351,11.9154,11.8825,11.7905,11.9088,12.0009,12.0009,12.2113,12.31,12.2245,12.1587,12.1258,12.1258,12.1258,12.1258,12.1258,12.1258,12.1258,12.1258,11.8365,11.6853,11.6853,11.3959,11.2513,11.2513,11.2513,11.2513,10.6329,10.7085,10.7259,10.7259,10.7259,10.6561,10.3653,10.121,9.8767,9.5975,9.359,9.266,9.5073,9.5481,9.6324,9.9116,9.7604,9.7022,9.9523,9.993,10.0803,10.3071,10.3362,10.4388,10.7067,10.703,10.81,11.0913,11.2895,11.416,11.4584,11.663,11.7851,11.816,12.0201,12.1258,12.1258,12.1258,12.1258,12.1258,12.1258,12.1258,12.1258,12.1258,12.1258,12.1258,12.1258,11.8493,11.4285,11.9258,11.8428,11.4349,11.9323,12.1258,12.1258,12.1258,12.1258,12.1258,12.1258,12.1258,12.1258,12.1258,12.1258,12.1258,12.1258,12.1258,12.1258,12.1258,12.1258,12.1258,12.1258,12.1258,12.1258,12.1258,12.1258,12.1258,12.1258,12.1258,12.1258,12.1258,12.1258,12.1258,12.1258,12.1258,12.0864,11.9549,11.9351,11.9417,11.9549,12.0667,12.1522,12.1653,12.2837,12.356,12.3297,12.2048,12.1258,12.1258,12.1258,12.1258,12.1258,12.1258,12.1193,12.1061,11.8299,11.6787,11.6655,11.3894,11.2513,11.2513,11.2513,11.2513,10.4351,10.5747,10.7259,10.7259,10.7259,10.6038,10.1443,9.993,9.8244,9.3707,9.2311,9.2136,9.266,9.2776,9.423,9.8825,9.9116,9.964,10.2199,10.2548,10.2781,10.3304,10.3362,10.4385,10.6742,10.6988,10.8665,11.2941,11.195,11.2954,11.6817,11.7523,11.8645,12.05,12.1029,12.1258,12.1258,12.1258,12.1258,12.1258,12.1258,12.1258,12.1258,12.1258,12.1258,12.1258,12.1258,11.8493,11.4285,11.9258,11.8428,11.4349,11.9323,12.1258,12.1258,12.1258,12.1258,12.1258,12.1258,12.1258,12.1258,12.1258,12.1258,12.1258,12.1258,12.1258,12.1258,12.1258,12.1258,12.1258,12.1258,12.1258,12.1258,12.1258,12.1258,12.1258,12.1258,12.1258,12.1258,12.1258,12.1258,12.1258,12.1258,12.1258,12.1193,12.0864,12.0798,12.1258,12.2376,12.2837,12.3428,12.4546,12.4941,12.4218,12.1916,12.1456,12.1258,12.1258,12.1258,12.1258,12.1258,12.1258,12.0732,11.9615,11.7773,11.6261,11.5143,11.3367,11.2513,11.2513,11.2513,11.2513,10.3886,10.5282,10.7259,10.7259,10.7259,10.6561,10.3886,10.2315,10.0279,9.6382,9.4637,9.3765,9.3765,9.3765,9.5044,9.8942,9.9581,9.9581,9.9698,10.185,10.2897,10.1675,10.2606,10.4807,10.8431,10.8688,11.0545,11.5383,11.4636,11.5518,11.9284,11.8403,11.8806,12.1182,12.1258,12.1258,12.1258,12.1258,12.1258,12.1258,12.1258,12.1258,12.1258,12.1258,12.1258,12.1258,12.1258,11.9804,11.7663,12.0219,11.9738,11.7663,12.0296,12.1258,12.1258,12.1258,12.1258,12.1258,12.1258,12.1258,12.1258,12.1258,12.1258,12.1258,12.1258,12.1258,12.1258,12.1258,12.1258,12.1258,12.1258,12.1258,12.1258,12.1258,12.1258,12.1258,12.1258,12.1258,12.1258,12.1258,12.1258,12.1258,12.1258,12.1258,12.1258,12.1258,12.1258,12.2048,12.4218,12.2705,12.2245,12.4349,12.3955,12.3165,12.2376,12.1653,12.1258,12.1258,12.1258,12.1258,12.1258,12.1258,12.0601,11.922,11.7642,11.6129,11.4748,11.3236,11.2513,11.2513,11.2513,11.2513,10.4526,10.5631,10.7259,10.7259,10.7259,10.7143,10.6736,10.4933,10.2664,10.0105,9.7895,9.6354,9.5946,9.583,9.6762,9.9465,9.9872,9.9349,9.7751,10.1036,10.2839,10.0512,10.2083,10.5335,11.0356,11.0555,11.2513,11.7413,11.7402,11.8016,11.9869,11.8175,11.8369,12.1182,12.1258,12.1258,12.1258,12.1258,12.1258,12.1258,12.1258,12.1258,12.1258,12.1258,12.0843,12.0088,12.0985,12.0777,12.0088,12.0985,12.1258,12.1258,12.1258,12.1258,12.1258,12.1258,12.1258,12.1258,12.1258,12.1258,12.1258,12.1258,12.1258,12.1258,12.1258,12.1258,12.1258,12.1258,12.1258,12.1258,12.1258,12.1258,12.1258,12.1258,12.1258,12.1258,12.1258,12.1258,12.1258,12.1258,12.1258,12.1258,12.1258,12.1258,12.1258,12.1258,12.1061,12.185,12.4481,12.1522,12.0206,12.2837,12.1982,12.1785,12.2968,12.1982,12.1258,12.1258,12.1258,12.1258,12.1258,12.1061,12.0206,11.8825,11.7247,11.5735,11.4354,11.3104,11.2513,11.2513,11.2513,11.2513,10.6271,10.7027,10.7259,10.7259,10.7259,10.6678,10.4409,10.3653,10.2664,10.0105,9.9291,9.836,9.6238,9.583,9.7053,10.0628,10.121,10.1908,10.3828,10.47,10.4526,10.3071,10.3188,10.5335,11.0356,11.0789,11.2745,11.7441,11.5704,11.4592,11.4905,11.4592,11.66,12.1193,12.1258,12.1258,12.1258,12.1258,12.1258,12.1258,12.1258,12.1258,12.1258,12.1258,11.8908,11.5112,11.9465,11.8843,11.5177,11.9531,12.1258,12.1258,12.1258,12.1258,12.1258,12.1258,12.1258,12.1258,12.1258,12.1258,12.1258,12.1258,12.1258,12.1258,12.1258,12.1258,12.1258,12.1258,12.1258,12.1258,12.1258,12.1258,12.1258,12.1258,12.1258,12.1258,12.1258,12.1258,12.1258,12.1258,12.1258,12.1258,12.1258,12.1258,12.1258,12.1258,12.0206,12.0009,12.1653,12.0272,11.9812,12.139,12.139,12.1324,12.1522,12.139,12.1258,12.1258,12.1258,12.1258,12.1258,12.0075,11.8694,11.7181,11.5735,11.4288,11.2841,11.2644,11.2513,11.2513,11.2513,11.2513,10.3013,10.5049,10.7259,10.7259,10.7259,10.6969,10.5863,10.5573,10.4816,10.2257,10.1152,9.9872,9.7313,9.5684,9.6208,10.0745,9.964,9.9698,10.3711,10.3013,10.2432,10.3304,10.3362,10.5335,11.0356,11.2006,11.3027,11.3602,11.5235,11.6696,11.8001,11.8013,11.905,12.1193,12.1258,12.1258,12.1258,12.1258,12.1258,12.1258,12.1258,12.1258,12.1258,12.1258,12.0154,11.822,12.0362,12.0088,11.822,12.0362,12.1258,12.1258,12.1258,12.1258,12.1258,12.1258,12.1258,12.1258,12.1258,12.1258,12.1258,12.1258,12.1258,12.1258,12.1258,12.1258,12.1258,12.1258,12.1258,12.1258,12.1258,12.1258,12.1258,12.1258,12.1258,12.1258,12.1258,12.1258,12.1258,12.1258,12.1258,12.1258,12.1258,12.1258,12.0995,12.0206,11.9549,11.876,11.7708,11.6327,11.5998,11.7444,11.8299,11.9154,12.0009,12.0798,12.1258,12.1258,12.1258,12.093,12.0141,11.9483,11.8036,11.5669,11.5011,11.4025,11.2513,11.2513,11.2513,11.2513,11.2513,11.2513,10.0687,10.3362,10.6445,10.7085,10.7259,10.7259,10.7259,10.7259,10.6736,10.4758,10.3595,10.2141,9.9581,9.7546,9.7662,10.1792,10.0047,9.9847,10.4235,10.3752,10.3061,10.334,10.3963,10.5273,10.7665,11.0694,11.2,11.103,11.4917,11.7936,11.9311,11.9465,11.9946,12.1258,12.1258,12.1258,12.1258,12.1258,12.1258,12.1258,12.1258,12.1258,12.1258,12.1258,12.0569,11.9465,12.0777,12.0569,11.9531,12.0777,12.1258,12.1258,12.1258,12.1258,12.1258,12.1258,12.1258,12.1258,12.1258,12.1258,12.1258,12.1258,12.1258,12.1258,12.1258,12.1258,12.1258,12.1258,12.1258,12.1258,12.1258,12.1258,12.1258,12.1258,12.1258,12.1258,12.1258,12.1258,12.1258,12.1258,12.1258,12.1258,12.1258,12.1258,12.0798,11.9351,11.8825,11.751,11.4551,11.3236,11.3104,11.4551,11.5998,11.7444,11.9023,12.0469,12.1258,12.1258,12.1258,12.0667,11.922,11.876,11.7379,11.4748,11.4354,11.3631,11.2513,11.2513,11.2513,11.2513,11.2513,11.2513,10.1908,10.3362,10.4177,10.6678,10.7259,10.7259,10.7259,10.7259,10.7259,10.7085,10.7027,10.6212,10.3537,10.2955,10.3362,10.4933,10.4991,10.5805,10.8638,11.0753,10.9898,10.4054,10.5387,10.492,10.0529,10.4442,10.8743,11.2215,11.47,11.5606,11.4413,11.4285,11.6419,12.1193,12.1258,12.1258,12.1258,12.1258,12.1258,12.1258,12.1258,12.1258,12.1258,12.1258,11.87,11.4556,11.9258,11.8635,11.4698,11.9323,12.1258,12.1258,12.1258,12.1258,12.1258,12.1258,12.1258,12.1258,12.1258,12.1258,12.1258,12.1258,12.1258,12.1258,12.1258,12.1258,12.1258,12.1258,12.1258,12.1258,12.1258,12.1258,12.1258,12.1258,12.1258,12.1258,12.1258,12.1258,12.1258,12.1258,12.1258,12.1258,12.1258,12.1258,12.0798,11.9351,11.7905,11.5932,11.3039,11.2578,11.3104,11.4551,11.5998,11.7444,11.9023,12.0469,12.1258,12.1258,12.1258,12.0667,11.922,11.7708,11.6261,11.4748,11.3367,11.2578,11.2513,11.2513,11.2513,11.2513,11.2513,11.2513,9.8508,10.0861,10.3595,10.4526,10.6038,10.7259,10.7259,10.7259,10.7259,10.7259,10.662,10.5747,10.4816,10.3304,10.2839,10.5049,10.3304,10.313,10.7376,10.5814,10.5282,10.783,10.4638,10.4321,10.9849,11.2705,11.2619,10.8908,11.6184,12.0201,11.8766,11.8635,11.9465,12.1258,12.1258,12.1258,12.1258,12.1258,12.1258,12.1258,12.1258,12.1258,12.1258,12.1258,12.0362,11.87,12.0569,12.0296,11.8843,12.0569,12.1258,12.1258,12.1258,12.1258,12.1258,12.1258,12.1258,12.1258,12.1258,12.1258,12.1258,12.1258,12.1258,12.1258,12.1258,12.1258,12.1258,12.1258,12.1258,12.1258,12.1258,12.1258,12.1258,12.1258,12.1258,12.1258,12.1258,12.1258,12.1258,12.1258,12.1258,12.1258,12.1258,12.1258,12.0469,11.8036,11.6392,11.4748,11.2776,11.2513,11.271,11.3236,11.4617,11.5669,11.6261,11.8497,11.9878,11.9878,11.9878,11.922,11.7708,11.6261,11.4814,11.3367,11.2776,11.2513,11.2513,11.2513,11.2513,11.2513,11.2513,11.2513,9.8011,9.9523,10.185,10.3595,10.5049,10.6212,10.7085,10.7259,10.7259,10.7259,10.662,10.6038,10.6038,10.4584,10.4002,10.5747,10.4235,10.4002,10.7434,10.6049,10.5839,10.9233,10.6619,10.6027,10.9751,11.5452,11.742,11.3896,12.02,12.356,12.2113,12.1522,12.1258,12.1258,12.1258,12.1258,12.1258,12.1258,12.1258,12.1258,12.1258,12.1258,12.1258,12.1258,12.1258,12.1258,12.1258,12.1258,12.1258,12.1258,12.1258,12.1258,12.1258,12.1258,12.1258,12.1258,12.1258,12.1258,12.1258,12.1258,12.1258,12.1258,12.1258,12.1258,12.1258,12.1258,12.1258,12.1258,12.1258,12.1258,12.1258,12.1258,12.1258,12.1258,12.1258,12.1258,12.1258,12.1258,12.1258,12.1258,12.0864,12.0535,12.0535,12.0141,11.9088,11.7116,11.5603,11.4157,11.271,11.2513,11.2513,11.2513,11.3828,11.4748,11.4748,11.6984,11.8628,11.9154,11.8694,11.7905,11.6853,11.5472,11.4025,11.2578,11.2513,11.2513,11.2513,11.2513,11.2513,11.2513,11.2513,11.225,10.0977,9.9581,9.8967,10.406,10.4409,10.4235,10.6736,10.7318,10.7318,10.7259,10.7259,10.7259,10.7259,10.7201,10.7201,10.7416,10.8504,10.9262,10.9478,11.2333,11.2835,10.8197,11.1611,11.0091,9.9194,11.1671,12.2427,12.7016,12.6256,12.4875,12.3494,12.2048,12.1258,12.1258,12.1258,12.1258,12.1258,12.1258,12.1258,12.1258,12.1258,12.1258,12.1258,12.1258,12.1258,12.1258,12.1258,12.1258,12.1258,12.1258,12.1258,12.1258,12.1258,12.1258,12.1258,12.1258,12.1258,12.1258,12.1258,12.1258,12.1258,12.1258,12.1258,12.1258,12.1258,12.1258,12.1258,12.1258,12.1258,12.1193,12.1258,12.1258,12.1193,12.1258,12.1258,12.1193,12.1193,12.1193,12.1127,12.1127,12.0009,11.9088,11.9088,11.7839,11.6787,11.6787,11.5537,11.4157,11.271,11.2513,11.2513,11.2513,11.3828,11.4683,11.4683,11.5932,11.7313,11.8891,11.751,11.6655,11.6721,11.534,11.3959,11.2578,11.2513,11.2513,11.2513,11.2513,11.2447,11.2447,11.2381,11.1658,9.7053,9.9523,10.2141,10.3595,10.5747,10.7882,10.8481,10.8655,10.8423,10.7492,10.7259,10.7259,10.7259,10.5747,10.6012,11.0578,11.0121,11.0656,11.5364,11.5313,11.4934,11.5271,11.3347,11.1394,11.0003,11.8545,12.2717,11.9514,12.2186,12.3428,12.1982,12.1522,12.1258,12.1258,12.1258,12.1258,12.1258,12.1258,12.1258,12.1258,12.1258,12.1258,12.1258,12.1258,12.1258,12.1258,12.1258,12.1258,12.1258,12.1258,12.1258,12.1258,12.1258,12.1258,12.1258,12.1258,12.1258,12.1258,12.1258,12.1258,12.1258,12.1258,12.1258,12.1258,12.1258,12.1258,12.1258,12.1258,12.0535,12.0009,12.0995,12.0535,12.0009,12.0995,12.0469,11.9746,11.9746,11.8891,11.8036,11.8036,11.7708,11.7444,11.7444,11.7116,11.6458,11.5472,11.4091,11.2973,11.2578,11.2513,11.2513,11.2513,11.2907,11.3104,11.3104,11.3499,11.3894,11.4288,11.2973,11.2644,11.3696,11.2381,11.1855,11.2513,11.2513,11.2513,11.2513,11.146,11.1,11.1,10.9948,10.929,9.7405,9.836,9.9523,10.0138,10.2722,10.5049,10.4467,10.6445,10.8016,10.6736,10.7318,10.8248,10.8714,10.7608,10.7846,11.1583,11.0923,11.1482,11.6254,11.559,11.559,11.794,11.5762,11.4596,11.5939,12.1869,12.4087,12.0301,12.2148,12.31,12.2245,12.1587,12.1258,12.1258,12.1258,12.1258,12.1258,12.1258,12.1258,12.1258,12.1258,12.1258,12.1258,12.1258,12.1258,12.1258,12.1258,12.1258,12.1258,12.1258,12.1258,12.1258,12.1258,12.1258,12.1258,12.1258,12.1258,12.1258,12.1258,12.0864,12.0469,12.1061,12.0404,11.9549,12.0206,11.9943,11.9417,11.9417,11.8825,11.8365,11.922,11.8825,11.8431,11.922,11.876,11.8168,11.8168,11.7444,11.6853,11.6853,11.6327,11.5932,11.5932,11.5406,11.4748,11.3894,11.3039,11.2513,11.2513,11.2513,11.2513,11.2513,11.2513,11.2315,11.1724,11.1658,11.1658,11.1658,11.0343,11.0145,11.1592,11.0277,10.9948,11.0737,11.0737,11.0474,10.9817,10.9619,10.9225,10.8633,10.8436,10.7646,9.9307,9.6324,9.423,9.5888,9.8011,9.9465,0.0,10.2548,10.6271,10.4991,10.6503,10.8423,10.9528,10.9702,10.9919,11.0628,11.0787,11.1802,11.4541,11.4698,11.5279,11.7325,11.8047,11.8378,11.8566,12.2449,12.5138,12.5335,12.402,12.3231,12.3231,12.1982,12.1051,12.0504,12.0985,12.1051,12.0504,12.1051,12.1258,12.1258,12.1258,12.1258,12.1258,12.1258,12.1258,12.1258,12.1258,12.1258,12.1258,12.1258,12.1258,12.1258,12.1258,12.1193,12.1061,12.1061,12.093,12.0798,12.0798,11.9943,11.9088,12.0338,11.8957,11.705,11.8497,11.7839,11.659,11.659,11.6327,11.6195,11.6524,11.6458,11.6458,11.6721,11.6721,11.659,11.659,11.6458,11.6327,11.6327,11.534,11.4485,11.4485,11.3367,11.2513,11.2513,11.2513,11.2513,11.2513,11.2513,11.2513,11.2513,11.2381,11.1789,11.054,11.0145,10.9948,10.9948,10.8633,10.8436,10.9882,10.8699,10.8041,10.8041,10.8041,10.7318,10.5871,10.6989,10.6989,10.5871,10.7055,10.62,0.0,0.0,0.0,0.0,0.0,0.0,0.0,10.1675,10.2257,10.0977,10.1094,10.1501,10.1734,10.1792,10.3471,10.8567,10.9417,11.1333,11.699,11.6061,11.4861,11.5026,11.6777,11.832,11.9551,12.1161,12.2574,12.3757,12.2508,12.1719,12.1719,12.1456,11.9465,11.5526,11.9258,11.9323,11.5384,11.9323,12.1258,12.1258,12.1258,12.1258,12.1258,12.1258,12.1258,12.1258,12.1258,12.1258,12.1258,12.1258,12.1258,12.1258,12.1258,12.0601,11.9549,11.9549,11.876,11.7708,11.7708,11.751,11.7313,11.7576,11.7313,11.6918,11.7181,11.6261,11.5143,11.5143,11.3433,11.2184,11.4551,11.4222,11.3959,11.6261,11.5932,11.5143,11.5143,11.4222,11.3367,11.3367,11.3104,11.2973,11.2973,11.271,11.2513,11.2513,11.2513,11.2513,11.2513,11.2513,11.2513,11.2513,11.1526,11.0737,11.0408,10.8304,10.6923,10.6923,10.5608,10.5476,10.6923,10.666,10.6529,10.6529,10.6529,10.5805,10.4424,10.3438,10.3438,10.4359,10.3438,10.2649,0.0,0.0,0.0,0.0,0.0,0.0,0.0,0.0,0.0,0.0,0.0,9.9,10.0279,0.0,10.2724,10.6557,10.7253,10.8926,11.3958,11.3039,11.1116,10.9126,11.1433,11.4031,11.5999,11.8177,12.0371,12.2234,12.1719,12.1258,12.1258,11.8908,11.6419,11.4,11.6354,11.6419,11.3935,11.8843,12.1258,12.1258,12.1258,12.1258,12.1258,12.1258,12.1258,12.1258,12.1258,12.1258,12.1258,12.1258,12.1258,12.1127,11.9615,11.8628,11.7756,11.6145,11.6044,11.6574,11.4831,11.4934,11.5866,11.659,11.5866,11.4814,11.5537,11.4748,11.3631,11.3631,11.2578,11.1789,11.3236,11.3104,11.2907,11.4354,11.4157,11.3631,11.3631,11.3039,11.2513,11.2513,11.2513,11.2513,11.2513,11.2513,11.2513,11.2513,11.2513,11.2513,11.2513,11.1921,11.0851,10.9214,10.6611,10.5092,10.5389,10.217,10.1078,10.2983,10.1759,10.1731,10.3474,10.2004,10.1961,10.3898,10.2321,10.1212,10.0676,10.061,10.061,10.0676,9.9887,9.9887,0.0,0.0,0.0,0.0,0.0,0.0,0.0,0.0,0.0,0.0,0.0,0.0,0.0,0.0,0.0,10.3595,10.4118,10.5463,10.8892,10.8273,10.6402,10.3704,10.637,10.9273,11.1147,11.4611,11.771,12.0042,12.0524,12.0809,12.1258,11.7456,11.4905,11.3935,11.4827,11.4905,11.3935,11.8843,12.1258,12.1258,12.1258,0.0,12.1258,12.1258,12.0777,11.9946,12.0843,12.0777,11.9946,12.058,12.0864,12.0601,11.7466,11.6269,11.5923,11.3299,11.389,11.5581,11.2931,11.2915,11.4485,11.5603,11.442,11.2776,11.3959,11.3302,0.0,11.2118,11.1921,11.1789,11.2052,11.2118,11.2184,11.2447,11.2513,11.2513,11.2513,11.2118,11.1855,11.2381,11.2052,11.1921,11.2447,11.184,11.0698,10.9309,10.9493,10.9624,10.9173,10.8711,10.7492,10.476,10.1624,9.9838,10.0236,9.6349,9.5527,9.9484,9.7914,9.7588,9.9088,9.6674,9.6364,9.8604,9.5881,9.4916,9.6039,9.6956,9.7404,9.7322,9.5127,9.5397,0.0,0.0,0.0,0.0,0.0,0.0,0.0,0.0,0.0,0.0,0.0,0.0,0.0,0.0,0.0,0.0,9.9374,10.1128,10.3892,10.3133,10.263,10.334,10.5538,10.7226,10.7433,11.0788,11.3897,11.6233,11.7534,11.911,12.1182,12.0777,0.0,0.0,0.0,11.8428,11.3935,11.8843,12.1258,12.1258,12.1258,12.1258,12.1258,12.1258,11.8908,11.497,11.9388,11.8843,11.4983,11.8081,11.9417,11.907,11.5423,11.4078,11.4041,11.4263,11.3815,11.2973,11.2562,0.0,0.0,11.2973,11.2776,11.2578,11.271,11.1789,11.0671,11.0671,10.9751,10.9093,11.0343,11.0671,11.1,11.225,11.2513,11.2513,11.2513,11.054,10.9553,11.2052,11.0474,10.9553,11.2118,10.9077,10.4145,9.7622,9.8526,9.9146,9.6967,9.9461,10.1313,10.09,10.0373,0.0,10.0183,9.533,9.4082,9.7964,9.4821,9.2912,9.3122,9.2725,9.1049,8.7941,8.6492,8.7632,9.1312,9.0344,9.2438,9.713,8.6902,8.5654,0.0,0.0,0.0,0.0,0.0,0.0,0.0,0.0,0.0,0.0,0.0,0.0,0.0,0.0,0.0,0.0,9.6585,9.8825,9.9872,9.8942,9.8883,10.0919,10.2659,10.429,10.5601,10.787,11.0171,11.2511,11.3938,11.5029,11.6,11.4104,11.22,11.0738,11.3527,11.4231,11.2701,11.8451,12.1258,12.1258,12.0469,12.0075,12.0009,11.9088,11.6928,11.3921,11.5992,11.4949,11.1956,11.34,11.412,0.0,0.0,0.0,0.0,0.0,11.0132,11.0376,10.8355,10.9794,11.2513,11.2513,11.2513,11.2513,11.2513,11.2118,11.1658,11.1658,11.1197,11.0869,11.146,11.1658,11.1789,11.2381,11.2513,11.2513,11.2513,11.1592,11.1132,11.2315,11.1592,0.0,10.8537,10.6579,10.3884,9.9634,9.996,10.0272,9.9148,9.9697,9.9491,9.7596,9.5158,9.3892,9.42,9.0761,0.0,0.0,0.0,9.1703,9.0924,9.2023,0.0,0.0,0.0,8.3895,8.6747,8.402,0.0,0.0,8.2071,8.1139,0.0,0.0,0.0,0.0,0.0,0.0,0.0,0.0,0.0,0.0,0.0,0.0,0.0,0.0,0.0,0.0,9.423,9.5597,9.5945,9.5917,9.6731,9.9232,10.0047,10.1361,10.3786,10.4831,10.6442,10.8751,11.0072,11.1134,11.1818,10.9258,10.8165,10.8807,10.9825,11.0716,11.1379,11.6015,11.8339,11.8339,11.7223,11.6769,11.6704,11.5601,11.3486,11.0819,11.2205,11.1107,10.8449,10.9471,10.9762,10.9575,10.6469,10.5213,10.5295,10.595,10.7092,10.8064,10.5567,10.7352,11.0939,11.145,11.1594,11.1804,11.2371,11.2513,11.2513,11.2513,11.2513,11.2447,11.2052,11.1921,11.1724,11.0934,11.1066,11.1263,11.0869,11.0474,11.0408,11.1197,11.0977,10.8797,10.3357,10.2404,10.1301,9.7828,9.7869,9.8053,9.7395,9.7318,9.6449,9.41,9.1529,9.0109,9.0474,8.7832,8.7832,9.1729,9.0624,8.9868,8.996,9.005,8.9803,8.9341,8.3141,8.1059,0.0,0.0,0.0,0.0,0.0,0.0,0.0,0.0,0.0,0.0,0.0,0.0,0.0,0.0,0.0,0.0,0.0,0.0,0.0,0.0,0.0,0.0,0.0,0.0,9.1962,9.423,9.6731,9.9232,9.8444,9.8767,10.1303,10.1594,10.2581,10.4993,10.6349,10.8045,11.0301,11.0385,11.0323,11.0344,11.0407,11.0407,11.0428,11.0636,11.0699,11.0699,11.0699,11.0636,11.0636,11.0574,10.7972,10.3611,10.8387,10.7741,10.3526,10.6922,10.8309,10.802,10.4341,10.2916,10.3174,10.5377,10.6193,10.6193,10.6131,10.6131,10.6676,10.8717,10.9328,10.9705,11.1876,11.2513,11.2513,11.2513,11.2513,11.2184,11.0869,11.0474,10.9751,10.6989,10.7383,10.8041,10.666,10.5213,10.5082,10.791,10.6779,10.3294,9.6667,9.5535,9.3138,8.5816,8.6906,0.0,8.5214,8.8051,9.0323,9.0183,9.1172,9.1871,9.1903,8.8355,8.7832,9.1729,8.717,8.6066,8.9785,8.5292,8.2765,8.2723,7.8785,7.8237,8.1354,0.0,0.0,0.0,0.0,0.0,0.0,0.0,0.0,0.0,0.0,0.0,0.0,0.0,0.0,0.0,0.0,0.0,0.0,0.0,0.0,0.0,0.0,0.0,0.0,9.2718,9.4812,9.9058,9.772,9.7371,9.993,9.9465,9.9154,9.9991,10.2083,10.3626,10.4472,10.5307,10.6027,10.6644,10.7584,10.8423,10.9015,10.997,11.0407,11.0407,10.9451,10.9015,10.8952,10.7998,10.591,10.2916,10.4681,10.3587,10.0817,10.2032,10.1013,9.8509,9.6415,9.5603,9.5688,9.647,9.666,9.7029,9.9291,10.0102,10.0788,10.5145,10.5676,10.488,10.6128,10.6371,10.6235,10.6442,10.6693,10.6989,10.7449,10.6857,10.5937,10.495,10.5082,10.5345,10.4819,10.5082,10.5274,10.4823,10.1014,9.6474,9.2008,9.3348,9.2804,8.6401,8.8413,9.0333,8.9519,9.0507,9.1322,9.1322,9.1729,9.1613,9.074,8.946,8.8937,8.9344,8.7715,8.6959,8.7425,8.5796,8.4458,8.3586,8.2231,7.922,7.4411,0.0,0.0,0.0,0.0,0.0,0.0,0.0,0.0,0.0,0.0,0.0,0.0,0.0,0.0,0.0,0.0,0.0,0.0,0.0,0.0,0.0,0.0,0.0,0.0,0.0,0.0,9.7604,9.6789,0.0,9.8069,9.7805,9.7166,9.6382,9.7836,9.8942,9.9407,9.9756,10.0483,10.1554,10.2476,10.3265,10.3817,10.4778,10.5205,10.5205,10.4267,10.3817,10.3756,10.2904,10.1699,10.0304,10.0304,9.949,9.8127,9.7255,9.5917,9.4346,9.266,9.2485,9.3125,9.1787,9.1554,9.2214,9.3883,9.479,9.5757,9.9338,9.9509,9.8532,9.9354,9.9477,9.9407,9.9611,10.0436,10.1383,10.1771,10.1509,10.0924,9.989,10.0084,10.0345,9.9825,10.0474,10.0385,9.7787,9.4677,9.1312,8.7957,8.9487,8.9596,8.5448,8.7715,8.9868,8.9868,9.0682,9.1089,9.0624,9.0566,9.0217,8.9402,8.9344,8.8937,8.8123,8.7599,8.7017,8.6145,8.568,8.4633,8.2888,8.1882,7.7947,0.0,0.0,0.0,0.0,0.0,0.0,0.0,0.0,0.0,0.0,0.0,0.0,0.0,0.0,0.0,0.0,0.0,0.0,0.0,0.0,0.0,0.0,0.0,0.0,0.0,0.0,0.0,9.5073,9.5597,0.0,0.0,0.0,0.0,9.3823,9.3707,9.4288,9.5597,9.4346,9.423,9.5539,9.5655,9.5655,9.5655,9.5772,9.583,9.583,9.583,9.583,9.583,9.5772,9.5772,9.5772,9.5655,9.5655,9.5481,9.266,9.3009,9.5015,9.2427,9.2892,9.4666,9.0973,9.0391,9.1205,9.0158,9.0566,9.1554,9.1554,9.1373,9.1307,9.1993,9.2188,0.0,0.0,9.381,9.543,9.417,9.4724,9.4956,9.2258,9.2702,9.3263,9.1946,9.1767,9.0967,8.7519,8.7877,8.7658,8.4106,0.0,8.3316,8.1923,8.4013,8.5813,8.5871,8.8135,8.9296,8.8019,8.7764,8.7683,8.7625,8.7567,8.7567,8.7509,8.635,8.5713,8.5713,8.4496,8.2583,8.0165,7.7483,0.0,0.0,0.0,0.0,0.0,0.0,0.0,0.0,0.0,0.0,0.0,0.0,0.0,0.0,0.0,0.0,0.0,0.0,0.0,0.0,0.0,0.0,0.0,0.0,0.0,0.0,8.7868,9.0391,9.266,9.2078,9.1903,0.0,0.0,0.0,0.0,0.0,0.0,9.2892,9.1729,9.1147,9.1496,9.2427,9.295,9.295,9.4898,9.583,9.583,9.583,9.583,9.583,9.4754,9.4433,9.4288,9.3358,9.295,9.2601,8.8123,8.6668,8.7017,8.5447,8.471,8.4419,8.4419,8.4011,8.3586,8.5156,8.5834,8.6124,8.6124,8.7092,8.7977,8.5702,0.0,0.0,0.0,0.0,8.6106,8.773,8.7664,8.7223,8.7403,8.7714,8.7839,8.7527,8.828,8.802,8.434,8.307,8.087,7.49,7.6205,0.0,7.1952,7.7098,8.1765,8.2574,8.4659,8.5993,8.557,8.3969,8.2642,8.1622,8.1567,8.1237,8.0274,7.9945,7.978,7.978,7.8572,7.692,7.4786,0.0,0.0,0.0,0.0,0.0,0.0,0.0,0.0,0.0,0.0,0.0,0.0,0.0,0.0,0.0,0.0,0.0,0.0,0.0,0.0,0.0,0.0,0.0,0.0,0.0,0.0,0.0,8.1402,8.5004,8.837,8.871,8.8423,0.0,0.0,0.0,0.0,0.0,0.0,0.0,0.0,0.0,8.8274,8.9053,8.917,8.8588,9.1089,9.2078,9.1554,9.2718,9.295,9.2453,9.1613,9.1322,9.1264,8.9984,8.8762,8.7483,8.3083,8.2758,8.4652,0.0,0.0,0.0,0.0,7.9398,7.8874,7.9747,8.0386,8.0836,8.0836,0.0,0.0,0.0,0.0,0.0,0.0,0.0,7.9991,8.1575,8.2237,8.2586,8.3374,8.3071,8.301,8.4162,8.2358,7.9932,7.7586,7.6548,7.4201,6.8569,6.929,0.0,0.0,0.0,7.6091,7.6678,8.0029,8.2177,8.1682,8.0466,7.9368,7.8636,7.8583,7.8229,7.7584,7.7584,7.6916,7.5521,7.5224,7.2961,0.0,0.0,0.0,0.0,0.0,0.0,0.0,0.0,0.0,0.0,0.0,0.0,0.0,0.0,0.0,0.0,0.0,0.0,0.0,0.0,0.0,0.0,0.0,0.0,0.0,0.0,0.0,0.0,0.0,7.7369,8.2689,0.0,0.0,0.0,0.0,0.0,0.0,0.0,0.0,0.0,0.0,0.0,0.0,0.0,8.4923,8.3916,8.6378,8.7017,8.5912,8.81,8.8646,8.7541,8.7366,8.7308,8.725,8.5912,0.0,8.1505,7.8629,0.0,0.0,0.0,0.0,0.0,0.0,0.0,0.0,0.0,0.0,0.0,0.0,0.0,0.0,0.0,0.0,0.0,0.0,0.0,0.0,0.0,0.0,7.9165,7.9165,7.8351,7.8046,7.9828,7.4829,6.9922,6.9608,6.9557,6.811,0.0,0.0,0.0,0.0,0.0,0.0,7.0152,7.5082,7.8174,7.7213,7.6851,7.668,7.668,7.668,7.668,7.668,7.6255,7.4639,7.1713,7.2488,0.0,0.0,0.0,0.0,0.0,0.0,0.0,0.0,0.0,0.0,0.0,0.0,0.0,0.0,0.0,0.0,0.0,0.0,0.0,0.0,0.0,0.0,0.0,0.0,0.0,0.0,0.0,0.0,0.0,0.0,0.0,0.0,0.0,0.0,0.0,0.0,0.0,0.0,0.0,0.0,0.0,0.0,0.0,0.0,0.0,0.0,0.0,0.0,0.0,0.0,8.4962,8.502,8.4788,8.3818,8.3429,8.3371,8.209,8.0187,7.8229,7.762,0.0,0.0,0.0,0.0,0.0,0.0,0.0,0.0,0.0,0.0,0.0,0.0,0.0,0.0,0.0,0.0,0.0,0.0,0.0,0.0,0.0,0.0,7.2592,7.2592,7.2418,7.1635,6.932,0.0,0.0,0.0,0.0,0.0,0.0,0.0,0.0,0.0,0.0,0.0,6.6802,7.1651,7.4897,7.469,7.2972,7.1992,7.1992,7.1992,7.1992,7.1992,6.9455,6.7316,0.0,0.0,0.0,0.0,0.0,0.0,0.0,0.0,0.0,0.0,0.0,0.0,0.0,0.0,0.0,0.0,0.0,0.0,0.0,0.0,0.0,0.0,0.0,0.0,0.0,0.0,0.0,0.0,0.0,0.0,0.0,0.0,0.0,0.0,0.0,0.0,0.0,0.0,0.0,0.0,0.0,0.0,0.0,0.0,0.0,0.0,0.0,0.0,0.0,0.0,0.0,0.0,0.0,0.0,0.0,0.0,0.0,0.0,7.583,7.3433,0.0,0.0,0.0,0.0,0.0,0.0,0.0,0.0,0.0,0.0,0.0,0.0,0.0,0.0,0.0,0.0,0.0,0.0,0.0,0.0,0.0,0.0,0.0,0.0,0.0,0.0,0.0,0.0,0.0,0.0,0.0,0.0,0.0,0.0,0.0,0.0,0.0,0.0,0.0,0.0,6.3389,6.8639,7.2394,7.2394,7.1356,7.0765,7.0765,7.0765,7.0081,6.8282,6.6769,0.0,0.0,0.0,0.0,0.0,0.0,0.0,0.0,0.0,0.0,0.0,0.0,0.0,0.0,0.0,0.0,0.0,0.0,0.0,0.0,0.0,0.0,0.0,0.0,0.0,0.0,0.0,0.0,0.0,0.0,0.0,0.0,0.0,0.0,0.0,0.0,0.0,0.0,0.0,0.0,0.0,0.0,0.0,0.0,0.0,0.0,0.0,0.0,0.0,0.0,0.0,0.0,0.0,0.0,0.0,0.0,0.0,0.0,0.0,7.0538,6.7853,0.0,0.0,0.0,0.0,0.0,0.0,0.0,0.0,0.0,0.0,0.0,0.0,0.0,0.0,0.0,0.0,0.0,0.0,0.0,0.0,0.0,0.0,0.0,0.0,0.0,0.0,0.0,0.0,0.0,0.0,0.0,0.0,0.0,0.0,0.0,0.0,0.0,0.0,0.0,0.0,6.101,6.6758,7.0765,7.0765,7.0765,7.0765,7.0765,7.0765,6.9217,6.552,6.4612,0.0,0.0,0.0,0.0,0.0,0.0,0.0,0.0,0.0,0.0,0.0,0.0,0.0,0.0,0.0,0.0,0.0,0.0,0.0,0.0,0.0,0.0,0.0,0.0,0.0,0.0,0.0,0.0,0.0,0.0,0.0,0.0,0.0,0.0,0.0,0.0,0.0,0.0,0.0,0.0,0.0,0.0,0.0,0.0,0.0,0.0,0.0,0.0,0.0,0.0,0.0,0.0,0.0,0.0,0.0,0.0,0.0,0.0,0.0,0.0,0.0,0.0,0.0,0.0,0.0,0.0,0.0,0.0,0.0,0.0,0.0,0.0,0.0,0.0,0.0,0.0,0.0,0.0,0.0,0.0,0.0,0.0,0.0,0.0,0.0,0.0,0.0,0.0,0.0,0.0,0.0,0.0,0.0,0.0,0.0,0.0,0.0,0.0,0.0,0.0,0.0,6.101,6.6758,7.0765,7.0765,7.0765,7.0765,7.0765,7.0765,6.8626,6.3549,0.0,0.0,0.0,0.0,0.0,0.0,0.0,0.0,0.0,0.0,0.0,0.0,0.0,0.0,0.0,0.0,0.0,0.0,0.0,0.0,0.0,0.0,0.0,0.0,0.0,0.0,0.0,0.0,0.0,0.0,0.0,0.0,0.0,0.0,0.0,0.0,0.0,0.0,0.0,0.0,0.0,0.0,0.0,0.0,0.0,0.0,0.0,0.0,0.0,0.0,0.0,0.0,0.0,0.0,0.0,0.0,0.0,0.0,0.0,0.0,0.0,0.0,0.0,0.0,0.0,0.0,0.0,0.0,0.0,0.0,0.0,0.0,0.0,0.0,0.0,0.0,0.0,0.0,0.0,0.0,0.0,0.0,0.0,0.0,0.0,0.0,0.0,0.0,0.0,0.0,0.0,0.0,0.0,0.0,0.0,0.0,0.0,0.0,0.0,0.0,0.0,0.0,5.8957,6.4386,6.7786,6.6177,6.5986,6.5986,6.5986,6.5986,6.3606,5.8096,0.0,0.0,0.0,0.0,0.0,0.0,0.0,0.0,0.0,0.0,0.0,0.0,0.0,0.0,0.0,0.0,0.0,0.0,0.0,0.0,0.0,0.0,0.0,0.0,0.0,0.0,0.0,0.0,0.0,0.0,0.0,0.0,0.0,0.0,0.0,0.0,0.0,0.0,0.0,0.0,0.0,0.0,0.0,0.0,0.0,0.0,0.0,0.0,0.0,0.0,0.0,0.0,0.0,0.0,0.0,0.0,0.0,0.0,0.0,0.0,0.0,0.0,0.0,0.0,0.0,0.0,0.0,0.0,0.0,0.0,0.0,0.0,0.0,0.0,0.0,0.0,0.0,0.0,0.0,0.0,0.0,0.0,0.0,0.0,0.0,0.0,0.0,0.0,0.0,0.0,0.0,0.0,0.0,0.0,0.0,0.0,0.0,0.0,0.0,0.0,0.0,0.0,5.6487,6.1742,6.493,6.2944,6.2748,6.2748,6.2748,6.2748,6.0125,5.3803,0.0,0.0,0.0,0.0,0.0,0.0,0.0,0.0,0.0,0.0,0.0,0.0,0.0,0.0,0.0,0.0,0.0,0.0,0.0,0.0,0.0,0.0,0.0,0.0,0.0,0.0,0.0,0.0,0.0,0.0,0.0,0.0,0.0,0.0,0.0,0.0,0.0,0.0,0.0,0.0,0.0,0.0,0.0,0.0,0.0,0.0,0.0,0.0,0.0,0.0,0.0,0.0,0.0,0.0,0.0,0.0,0.0,0.0,0.0,0.0,0.0,0.0,0.0,0.0,0.0,0.0,0.0,0.0,0.0,0.0,0.0,0.0,0.0,0.0,0.0,0.0,0.0,0.0,0.0,0.0,0.0,0.0,0.0,0.0,0.0,0.0,0.0,0.0,0.0,0.0,0.0,0.0,0.0,0.0,0.0,0.0,0.0,0.0,0.0,0.0,0.0,0.0,5.4266,5.9318,6.2846,6.2748,6.2748,6.2748,6.2748,6.2748,5.9557,0.0,0.0,0.0,0.0,0.0,0.0,0.0,0.0,0.0,0.0,0.0,0.0,0.0,0.0,0.0,0.0,0.0,0.0,0.0,0.0,0.0,0.0,0.0,0.0,0.0,0.0,0.0,0.0,0.0,0.0,0.0,0.0,0.0,0.0,0.0,0.0,0.0,0.0,0.0,0.0,0.0,0.0,0.0,0.0,0.0,0.0,0.0,0.0,0.0,0.0,0.0,0.0,0.0,0.0,0.0,0.0,0.0,0.0,0.0,0.0,0.0,0.0,0.0,0.0,0.0,0.0,0.0,0.0,0.0,0.0,0.0,0.0,0.0,0.0,0.0,0.0,0.0,0.0,0.0,0.0,0.0,0.0,0.0,0.0,0.0,0.0,0.0,0.0,0.0,0.0,0.0,0.0,0.0,0.0,0.0,0.0,0.0,0.0,0.0,0.0,0.0,0.0,0.0,5.1746,5.6069,5.8857,5.7595,5.7471,5.7471,5.7471,5.7471,5.4911,4.9069,0.0,0.0,0.0,0.0,0.0,0.0,0.0,0.0,0.0,0.0,0.0,0.0,0.0,0.0,0.0,0.0,0.0,0.0,0.0,0.0,0.0,0.0,0.0,0.0,0.0,0.0,0.0,0.0,0.0,0.0,0.0,0.0,0.0,0.0,0.0,0.0,0.0,0.0,0.0,0.0,0.0,0.0,0.0,0.0,0.0,0.0,0.0,0.0,0.0,0.0,0.0,0.0,0.0,0.0,0.0,0.0,0.0,0.0,0.0,0.0,0.0,0.0,0.0,0.0,0.0,0.0,0.0,0.0,0.0,0.0,0.0,0.0,0.0,0.0,0.0,0.0,0.0,0.0,0.0,0.0,0.0,0.0,0.0,0.0,0.0,0.0,0.0,0.0,0.0,0.0,0.0,0.0,0.0,0.0,0.0,0.0,0.0,0.0,0.0,0.0,0.0,0.0,0.0,5.2885,5.5324,5.4191,5.4633,5.4746,5.4101,5.4367,5.2393,4.7305,0.0,0.0,0.0,0.0,0.0,0.0,0.0,0.0,0.0,0.0,0.0,0.0,0.0,0.0,0.0,0.0,0.0,0.0,0.0,0.0,0.0,0.0,0.0,0.0,0.0,0.0,0.0,0.0,0.0,0.0,0.0,0.0,0.0,0.0,0.0,0.0,0.0,0.0,0.0,0.0,0.0,0.0,0.0,0.0,0.0,0.0,0.0,0.0,0.0,0.0,0.0,0.0,0.0,0.0,0.0,0.0,0.0,0.0,0.0,0.0,0.0,0.0,0.0,0.0,0.0,0.0,0.0,0.0,0.0,0.0,0.0,0.0,0.0,0.0,0.0,0.0,0.0,0.0,0.0,0.0,0.0,0.0,0.0,0.0,0.0,0.0,0.0,0.0,0.0,0.0,0.0,0.0,0.0,0.0,0.0,0.0,0.0,0.0,0.0,0.0,0.0,0.0,0.0,4.9925,5.2468,5.2582,5.3949,5.4177,5.2658,5.319,5.1579,4.6546,4.4648,0.0,0.0,0.0,0.0,0.0,0.0,0.0,0.0,0.0,0.0,0.0,0.0,0.0,0.0,0.0,0.0,0.0,0.0,0.0,0.0,0.0,0.0,0.0,0.0,0.0,0.0,0.0,0.0,0.0,0.0,0.0,0.0,0.0,0.0,0.0,0.0,0.0,0.0,0.0,0.0,0.0,0.0,0.0,0.0,0.0,0.0,0.0,0.0,0.0,0.0,0.0,0.0,0.0,0.0,0.0,0.0,0.0,0.0,0.0,0.0,0.0,0.0,0.0,0.0,0.0,0.0,0.0,0.0,0.0,0.0,0.0,0.0,0.0,0.0,0.0,0.0,0.0,0.0,0.0,0.0,0.0,0.0,0.0,0.0,0.0,0.0,0.0,0.0,0.0,0.0,0.0,0.0,0.0,0.0,0.0,0.0,0.0,0.0,0.0,0.0,0.0,0.0,5.0153,5.2089,5.3342,5.3266,5.2924,5.2544,5.2127,5.0266,4.647,4.4116,0.0,0.0,0.0,0.0,0.0,0.0,0.0,0.0,0.0,0.0,0.0,0.0,0.0,0.0,0.0,0.0,0.0,0.0,0.0,0.0,0.0,0.0,0.0,0.0,0.0,0.0,0.0,0.0,0.0,0.0,0.0,0.0,0.0,0.0,0.0,0.0,0.0,0.0,0.0,0.0,0.0,0.0,0.0,0.0,0.0,0.0,0.0,0.0,0.0,0.0,0.0,0.0,0.0,0.0,0.0,0.0,0.0,0.0,0.0,0.0,0.0,0.0,0.0,0.0,0.0,0.0,0.0,0.0,0.0,0.0,0.0,0.0,0.0,0.0,0.0,0.0,0.0,0.0,0.0,0.0,0.0,0.0,0.0,0.0,0.0,0.0,0.0,0.0,0.0,0.0,0.0,0.0,0.0,0.0,0.0,0.0,0.0,0.0,0.0,0.0,0.0,0.0,4.7039,4.8786,5.1312,5.1747,5.1633,5.0836,5.038,4.8672,4.5331,4.3129,0.0,0.0,0.0,0.0,0.0,0.0,0.0,0.0,0.0,0.0,0.0,0.0,0.0,0.0,0.0,0.0,0.0,0.0,0.0,0.0,0.0,0.0,0.0,0.0,0.0,0.0,0.0,0.0,0.0,0.0,0.0,0.0,0.0,0.0,0.0,0.0,0.0,0.0,0.0,0.0,0.0,0.0,0.0,0.0,0.0,0.0,0.0,0.0,0.0,0.0,0.0,0.0,0.0,0.0,0.0,0.0,0.0,0.0,0.0,0.0,0.0,0.0,0.0,0.0,0.0,0.0,0.0,0.0,0.0,0.0,0.0,0.0,0.0,0.0,0.0,0.0,0.0,0.0,0.0,0.0,0.0,0.0,0.0,0.0,0.0,0.0,0.0,0.0,0.0,0.0,0.0,0.0,0.0,0.0,0.0,0.0,0.0,0.0,0.0,0.0,0.0,0.0,0.0,4.5255,4.8307,4.9849,5.0115,4.8764,4.8498,4.7039,4.3964,0.0,0.0,0.0,0.0,0.0,0.0,0.0,0.0,0.0,0.0,0.0,0.0,0.0,0.0,0.0,0.0,0.0,0.0,0.0,0.0,0.0,0.0,0.0,0.0,0.0,0.0,0.0,0.0,0.0,0.0,0.0,0.0,0.0,0.0,0.0,0.0,0.0,0.0,0.0,0.0,0.0,0.0,0.0,0.0,0.0,0.0,0.0,0.0,0.0,0.0,0.0,0.0,0.0,0.0,0.0,0.0,0.0,0.0,0.0,0.0,0.0,0.0,0.0,0.0,0.0,0.0,0.0,0.0,0.0,0.0,0.0,0.0,0.0,0.0,0.0,0.0,0.0,0.0,0.0,0.0,0.0,0.0,0.0,0.0,0.0,0.0,0.0,0.0,0.0,0.0,0.0,0.0,0.0,0.0,0.0,0.0,0.0,0.0,0.0,0.0,0.0,0.0,0.0,0.0,4.6318,4.7533,4.7875,4.7951,4.7685,4.7039,4.5787,4.3888,0.0,0.0,0.0,0.0,0.0,0.0,0.0,0.0,0.0,0.0,0.0,0.0,0.0,0.0]}]]]